Time,TemperatureF,DewpointF,PressureIn,WindDirection,WindDirectionDegrees,WindSpeedMPH,WindSpeedGustMPH,Humidity,HourlyPrecipIn,Conditions,Clouds,dailyrainin,SoftwareType,DateUTC
2013-03-16 00:00:00,30.8,23.8,29.64,NW,306,0.0,6.0,75,0.00,,SKC,0.00,VWS V13.01,2013-03-16 04:00:00,
2013-03-16 00:01:00,30.8,24.1,29.63,NW,326,2.0,4.0,76,0.00,,SKC,0.00,VWS V13.01,2013-03-16 04:01:00,
2013-03-16 00:02:00,30.8,24.1,29.64,NNW,327,1.0,4.0,76,0.00,,SKC,0.00,VWS V13.01,2013-03-16 04:02:00,
2013-03-16 00:03:00,30.8,24.1,29.64,NNW,327,1.0,4.0,76,0.00,,SKC,0.00,VWS V13.01,2013-03-16 04:03:00,
2013-03-16 00:04:00,30.8,24.1,29.64,NNW,327,3.0,4.0,76,0.00,,SKC,0.00,VWS V13.01,2013-03-16 04:04:00,
2013-03-16 00:06:00,30.8,24.1,29.64,NW,304,2.0,5.0,76,0.00,,SKC,0.00,VWS V13.01,2013-03-16 04:06:00,
2013-03-16 00:07:00,30.8,24.1,29.64,NW,318,6.0,6.0,76,0.00,,SKC,0.00,VWS V13.01,2013-03-16 04:07:00,
2013-03-16 00:08:00,30.8,24.1,29.64,NW,318,2.0,6.0,76,0.00,,SKC,0.00,VWS V13.01,2013-03-16 04:08:00,
2013-03-16 00:09:00,30.8,24.5,29.64,NW,318,1.0,6.0,77,0.00,,SKC,0.00,VWS V13.01,2013-03-16 04:09:00,
2013-03-16 00:10:00,30.8,24.5,29.64,NW,318,0.0,6.0,77,0.00,,SKC,0.00,VWS V13.01,2013-03-16 04:10:00,
2013-03-16 00:11:00,30.8,24.5,29.64,NNW,346,2.0,6.0,77,0.00,,SKC,0.00,VWS V13.01,2013-03-16 04:11:00,
2013-03-16 00:12:00,30.8,24.5,29.64,NNW,346,1.0,6.0,77,0.00,,SKC,0.00,VWS V13.01,2013-03-16 04:12:00,
2013-03-16 00:13:00,30.8,24.1,29.64,NNW,327,1.0,4.0,76,0.00,,SKC,0.00,VWS V13.01,2013-03-16 04:13:00,
2013-03-16 00:14:00,30.8,24.5,29.64,NNW,344,2.0,6.0,77,0.00,,SKC,0.00,VWS V13.01,2013-03-16 04:14:00,
2013-03-16 00:15:00,30.8,24.5,29.64,NNW,344,2.0,6.0,77,0.00,,SKC,0.00,VWS V13.01,2013-03-16 04:15:00,
2013-03-16 00:16:00,30.8,24.5,29.64,NNW,344,0.0,6.0,77,0.00,,SKC,0.00,VWS V13.01,2013-03-16 04:16:00,
2013-03-16 00:17:00,30.8,24.5,29.64,NNW,344,0.0,6.0,77,0.00,,SKC,0.00,VWS V13.01,2013-03-16 04:17:00,
2013-03-16 00:18:00,30.8,24.5,29.64,NNW,344,3.0,6.0,77,0.00,,SKC,0.00,VWS V13.01,2013-03-16 04:18:00,
2013-03-16 00:19:00,30.8,24.5,29.64,NW,318,2.0,6.0,77,0.00,,SKC,0.00,VWS V13.01,2013-03-16 04:19:00,
2013-03-16 00:20:00,30.8,24.5,29.64,NNW,342,1.0,6.0,77,0.00,,SKC,0.00,VWS V13.01,2013-03-16 04:20:00,
2013-03-16 00:21:00,30.8,24.5,29.64,NW,319,4.0,6.0,77,0.00,,SKC,0.00,VWS V13.01,2013-03-16 04:21:00,
2013-03-16 00:22:00,30.8,24.5,29.64,WNW,292,4.0,7.0,77,0.00,,SKC,0.00,VWS V13.01,2013-03-16 04:22:00,
2013-03-16 00:23:00,30.8,24.5,29.64,West,279,3.0,7.0,77,0.00,,SKC,0.00,VWS V13.01,2013-03-16 04:23:00,
2013-03-16 00:24:00,30.8,24.5,29.64,NNW,344,2.0,6.0,77,0.00,,SKC,0.00,VWS V13.01,2013-03-16 04:24:00,
2013-03-16 00:25:00,30.8,24.5,29.64,West,279,3.0,7.0,77,0.00,,SKC,0.00,VWS V13.01,2013-03-16 04:25:00,
2013-03-16 00:26:00,30.8,24.5,29.64,NNW,336,3.0,7.0,77,0.00,,SKC,0.00,VWS V13.01,2013-03-16 04:26:00,
2013-03-16 00:27:00,30.8,24.5,29.64,NNW,333,1.0,7.0,77,0.00,,SKC,0.00,VWS V13.01,2013-03-16 04:27:00,
2013-03-16 00:28:00,30.8,24.5,29.64,NNW,341,5.0,7.0,77,0.00,,SKC,0.00,VWS V13.01,2013-03-16 04:28:00,
2013-03-16 00:29:00,30.8,24.5,29.64,NNW,347,3.0,7.0,77,0.00,,SKC,0.00,VWS V13.01,2013-03-16 04:29:00,
2013-03-16 00:30:00,30.8,24.5,29.64,NNW,342,1.0,6.0,77,0.00,,SKC,0.00,VWS V13.01,2013-03-16 04:30:00,
2013-03-16 00:31:00,30.8,24.5,29.64,NNW,338,1.0,2.0,77,0.00,,SKC,0.00,VWS V13.01,2013-03-16 04:31:00,
2013-03-16 00:32:00,30.8,24.5,29.64,NNW,346,1.0,5.0,77,0.00,,SKC,0.00,VWS V13.01,2013-03-16 04:32:00,
2013-03-16 00:33:00,30.8,24.5,29.64,NNW,345,1.0,5.0,77,0.00,,SKC,0.00,VWS V13.01,2013-03-16 04:33:00,
2013-03-16 00:34:00,30.8,24.5,29.64,NNW,345,1.0,5.0,77,0.00,,SKC,0.00,VWS V13.01,2013-03-16 04:34:00,
2013-03-16 00:35:00,30.8,24.5,29.64,West,279,1.0,7.0,77,0.00,,SKC,0.00,VWS V13.01,2013-03-16 04:35:00,
2013-03-16 00:36:00,30.7,24.4,29.64,WNW,294,0.0,5.0,77,0.00,,SKC,0.00,VWS V13.01,2013-03-16 04:36:00,
2013-03-16 00:37:00,30.7,24.4,29.64,WNW,294,3.0,5.0,77,0.00,,SKC,0.00,VWS V13.01,2013-03-16 04:37:00,
2013-03-16 00:38:00,30.7,24.4,29.64,WNW,294,2.0,5.0,77,0.00,,SKC,0.00,VWS V13.01,2013-03-16 04:38:00,
2013-03-16 00:39:00,30.7,24.4,29.64,WNW,294,3.0,5.0,77,0.00,,SKC,0.00,VWS V13.01,2013-03-16 04:39:00,
2013-03-16 00:40:00,30.7,24.4,29.64,WNW,294,1.0,5.0,77,0.00,,SKC,0.00,VWS V13.01,2013-03-16 04:40:00,
2013-03-16 00:41:00,30.7,24.4,29.64,NW,309,4.0,5.0,77,0.00,,SKC,0.00,VWS V13.01,2013-03-16 04:41:00,
2013-03-16 00:42:00,30.8,24.5,29.64,NNW,346,2.0,5.0,77,0.00,,SKC,0.00,VWS V13.01,2013-03-16 04:42:00,
2013-03-16 00:43:00,30.6,24.3,29.64,NW,319,4.0,5.0,77,0.00,,SKC,0.00,VWS V13.01,2013-03-16 04:43:00,
2013-03-16 00:44:00,30.6,24.3,29.64,NW,320,1.0,5.0,77,0.00,,SKC,0.00,VWS V13.01,2013-03-16 04:44:00,
2013-03-16 00:45:00,30.6,24.3,29.64,NW,315,2.0,5.0,77,0.00,,SKC,0.00,VWS V13.01,2013-03-16 04:45:00,
2013-03-16 00:46:00,30.6,24.3,29.64,NW,317,3.0,5.0,77,0.00,,SKC,0.00,VWS V13.01,2013-03-16 04:46:00,
2013-03-16 00:47:00,30.6,24.3,29.64,NNW,339,2.0,5.0,77,0.00,,SKC,0.00,VWS V13.01,2013-03-16 04:47:00,
2013-03-16 00:48:00,30.7,24.4,29.64,WNW,294,2.0,5.0,77,0.00,,SKC,0.00,VWS V13.01,2013-03-16 04:48:00,
2013-03-16 00:49:00,30.6,24.3,29.65,NNW,339,1.0,5.0,77,0.00,,SKC,0.00,VWS V13.01,2013-03-16 04:49:00,
2013-03-16 00:50:00,30.5,24.2,29.64,NNW,341,4.0,5.0,77,0.00,,SKC,0.00,VWS V13.01,2013-03-16 04:50:00,
2013-03-16 00:51:00,30.5,24.2,29.65,NNW,340,2.0,5.0,77,0.00,,SKC,0.00,VWS V13.01,2013-03-16 04:51:00,
2013-03-16 00:52:00,30.5,24.2,29.65,NNW,340,3.0,5.0,77,0.00,,SKC,0.00,VWS V13.01,2013-03-16 04:52:00,
2013-03-16 00:53:00,30.6,24.3,29.64,NW,319,4.0,5.0,77,0.00,,SKC,0.00,VWS V13.01,2013-03-16 04:53:00,
2013-03-16 00:54:00,30.5,24.2,29.65,NNW,331,3.0,5.0,77,0.00,,SKC,0.00,VWS V13.01,2013-03-16 04:54:00,
2013-03-16 00:55:00,30.5,24.2,29.65,NW,318,1.0,5.0,77,0.00,,SKC,0.00,VWS V13.01,2013-03-16 04:55:00,
2013-03-16 00:56:00,30.4,24.1,29.64,NW,318,1.0,5.0,77,0.00,,SKC,0.00,VWS V13.01,2013-03-16 04:56:00,
2013-03-16 00:57:00,30.4,24.1,29.65,NW,318,1.0,5.0,77,0.00,,SKC,0.00,VWS V13.01,2013-03-16 04:57:00,
2013-03-16 00:58:00,30.4,24.1,29.65,NW,318,1.0,5.0,77,0.00,,SKC,0.00,VWS V13.01,2013-03-16 04:58:00,
2013-03-16 00:59:00,30.6,24.3,29.65,NNW,339,1.0,5.0,77,0.00,,SKC,0.00,VWS V13.01,2013-03-16 04:59:00,
2013-03-16 01:00:00,30.3,24.0,29.65,NW,318,2.0,5.0,77,0.00,,SKC,0.00,VWS V13.01,2013-03-16 05:00:00,
2013-03-16 01:01:00,30.3,24.0,29.65,NNW,344,0.0,2.0,77,0.00,,SKC,0.00,VWS V13.01,2013-03-16 05:01:00,
2013-03-16 01:02:00,30.3,24.0,29.65,NNW,344,1.0,2.0,77,0.00,,SKC,0.00,VWS V13.01,2013-03-16 05:02:00,
2013-03-16 01:03:00,30.2,23.9,29.65,NNW,344,0.0,2.0,77,0.00,,SKC,0.00,VWS V13.01,2013-03-16 05:03:00,
2013-03-16 01:04:00,30.2,23.9,29.65,North,350,1.0,4.0,77,0.00,,SKC,0.00,VWS V13.01,2013-03-16 05:04:00,
2013-03-16 01:05:00,30.5,24.2,29.65,NW,318,1.0,5.0,77,0.00,,SKC,0.00,VWS V13.01,2013-03-16 05:05:00,
2013-03-16 01:06:00,30.1,23.8,29.65,North,351,0.0,4.0,77,0.00,,SKC,0.00,VWS V13.01,2013-03-16 05:06:00,
2013-03-16 01:07:00,30.1,23.8,29.65,North,350,2.0,4.0,77,0.00,,SKC,0.00,VWS V13.01,2013-03-16 05:07:00,
2013-03-16 01:08:00,30.1,23.8,29.65,North,349,0.0,4.0,77,0.00,,SKC,0.00,VWS V13.01,2013-03-16 05:08:00,
2013-03-16 01:09:00,30.1,24.1,29.65,North,350,1.0,4.0,78,0.00,,SKC,0.00,VWS V13.01,2013-03-16 05:09:00,
2013-03-16 01:10:00,30.3,24.0,29.65,NW,318,1.0,5.0,77,0.00,,SKC,0.00,VWS V13.01,2013-03-16 05:10:00,
2013-03-16 01:11:00,30.0,24.0,29.65,North,350,0.0,4.0,78,0.00,,SKC,0.00,VWS V13.01,2013-03-16 05:11:00,
2013-03-16 01:12:00,30.0,24.0,29.65,North,5,4.0,7.0,78,0.00,,SKC,0.00,VWS V13.01,2013-03-16 05:12:00,
2013-03-16 01:13:00,30.0,24.0,29.65,North,355,2.0,7.0,78,0.00,,SKC,0.00,VWS V13.01,2013-03-16 05:13:00,
2013-03-16 01:14:00,30.0,24.0,29.65,North,360,3.0,7.0,78,0.00,,SKC,0.00,VWS V13.01,2013-03-16 05:14:00,
2013-03-16 01:15:00,30.2,23.9,29.65,North,350,3.0,4.0,77,0.00,,SKC,0.00,VWS V13.01,2013-03-16 05:15:00,
2013-03-16 01:16:00,30.0,23.7,29.65,North,360,1.0,7.0,77,0.00,,SKC,0.00,VWS V13.01,2013-03-16 05:16:00,
2013-03-16 01:17:00,30.0,23.7,29.65,North,360,1.0,7.0,77,0.00,,SKC,0.00,VWS V13.01,2013-03-16 05:17:00,
2013-03-16 01:18:00,30.0,23.7,29.65,North,355,0.0,7.0,77,0.00,,SKC,0.00,VWS V13.01,2013-03-16 05:18:00,
2013-03-16 01:19:00,30.0,23.7,29.65,North,350,4.0,7.0,77,0.00,,SKC,0.00,VWS V13.01,2013-03-16 05:19:00,
2013-03-16 01:20:00,30.1,24.1,29.65,North,350,0.0,4.0,78,0.00,,SKC,0.00,VWS V13.01,2013-03-16 05:20:00,
2013-03-16 01:21:00,29.9,23.6,29.65,North,350,2.0,7.0,77,0.00,,SKC,0.00,VWS V13.01,2013-03-16 05:21:00,
2013-03-16 01:22:00,29.9,23.6,29.65,North,350,0.0,7.0,77,0.00,,SKC,0.00,VWS V13.01,2013-03-16 05:22:00,
2013-03-16 01:23:00,29.9,23.6,29.65,North,350,1.0,7.0,77,0.00,,SKC,0.00,VWS V13.01,2013-03-16 05:23:00,
2013-03-16 01:24:00,29.9,23.6,29.66,North,351,0.0,7.0,77,0.00,,SKC,0.00,VWS V13.01,2013-03-16 05:24:00,
2013-03-16 01:25:00,29.9,23.6,29.66,North,351,0.0,7.0,77,0.00,,SKC,0.00,VWS V13.01,2013-03-16 05:25:00,
2013-03-16 01:26:00,29.9,23.6,29.66,NNW,337,4.0,7.0,77,0.00,,SKC,0.00,VWS V13.01,2013-03-16 05:26:00,
2013-03-16 01:27:00,29.9,23.6,29.66,NW,321,1.0,7.0,77,0.00,,SKC,0.00,VWS V13.01,2013-03-16 05:27:00,
2013-03-16 01:28:00,29.8,23.5,29.66,NW,323,4.0,7.0,77,0.00,,SKC,0.00,VWS V13.01,2013-03-16 05:28:00,
2013-03-16 01:29:00,30.0,23.7,29.65,North,355,2.0,7.0,77,0.00,,SKC,0.00,VWS V13.01,2013-03-16 05:29:00,
2013-03-16 01:30:00,29.8,23.5,29.66,NW,326,0.0,7.0,77,0.00,,SKC,0.00,VWS V13.01,2013-03-16 05:30:00,
2013-03-16 01:31:00,29.8,23.5,29.66,NNE,15,3.0,5.0,77,0.00,,SKC,0.00,VWS V13.01,2013-03-16 05:31:00,
2013-03-16 01:32:00,29.8,23.5,29.66,NNE,14,1.0,5.0,77,0.00,,SKC,0.00,VWS V13.01,2013-03-16 05:32:00,
2013-03-16 01:33:00,29.7,23.4,29.66,North,355,4.0,6.0,77,0.00,,SKC,0.00,VWS V13.01,2013-03-16 05:33:00,
2013-03-16 01:34:00,29.9,23.6,29.65,North,351,1.0,7.0,77,0.00,,SKC,0.00,VWS V13.01,2013-03-16 05:34:00,
2013-03-16 01:35:00,29.7,23.1,29.66,North,360,2.0,6.0,76,0.00,,SKC,0.00,VWS V13.01,2013-03-16 05:35:00,
2013-03-16 01:36:00,29.7,23.4,29.66,NNW,333,11.0,11.0,77,0.00,,SKC,0.00,VWS V13.01,2013-03-16 05:36:00,
2013-03-16 01:37:00,29.7,23.1,29.66,NNW,346,4.0,11.0,76,0.00,,SKC,0.00,VWS V13.01,2013-03-16 05:37:00,
2013-03-16 01:38:00,29.6,23.0,29.66,NNW,346,1.0,11.0,76,0.00,,SKC,0.00,VWS V13.01,2013-03-16 05:38:00,
2013-03-16 01:39:00,29.6,23.0,29.66,North,360,5.0,11.0,76,0.00,,SKC,0.00,VWS V13.01,2013-03-16 05:39:00,
2013-03-16 01:40:00,29.8,23.5,29.66,NW,326,0.0,7.0,77,0.00,,SKC,0.00,VWS V13.01,2013-03-16 05:40:00,
2013-03-16 01:41:00,29.5,22.9,29.66,North,355,1.0,11.0,76,0.00,,SKC,0.00,VWS V13.01,2013-03-16 05:41:00,
2013-03-16 01:42:00,29.5,22.9,29.66,NNW,342,9.0,11.0,76,0.00,,SKC,0.00,VWS V13.01,2013-03-16 05:42:00,
2013-03-16 01:43:00,29.5,22.9,29.66,NNW,342,3.0,11.0,76,0.00,,SKC,0.00,VWS V13.01,2013-03-16 05:43:00,
2013-03-16 01:44:00,29.4,22.8,29.66,NNW,345,1.0,11.0,76,0.00,,SKC,0.00,VWS V13.01,2013-03-16 05:44:00,
2013-03-16 01:45:00,29.5,22.9,29.66,NNW,346,2.0,11.0,76,0.00,,SKC,0.00,VWS V13.01,2013-03-16 05:45:00,
2013-03-16 01:46:00,29.4,22.8,29.66,NW,312,2.0,11.0,76,0.00,,SKC,0.00,VWS V13.01,2013-03-16 05:46:00,
2013-03-16 01:47:00,29.4,22.8,29.66,North,350,1.0,11.0,76,0.00,,SKC,0.00,VWS V13.01,2013-03-16 05:47:00,
2013-03-16 01:48:00,29.6,23.0,29.66,NNW,346,2.0,11.0,76,0.00,,SKC,0.00,VWS V13.01,2013-03-16 05:48:00,
2013-03-16 01:49:00,29.4,22.8,29.66,NNW,341,4.0,11.0,76,0.00,,SKC,0.00,VWS V13.01,2013-03-16 05:49:00,
2013-03-16 01:50:00,29.3,22.7,29.66,NNW,342,3.0,11.0,76,0.00,,SKC,0.00,VWS V13.01,2013-03-16 05:50:00,
2013-03-16 01:51:00,29.3,22.7,29.66,NW,318,4.0,11.0,76,0.00,,SKC,0.00,VWS V13.01,2013-03-16 05:51:00,
2013-03-16 01:52:00,29.3,22.7,29.66,NW,321,3.0,11.0,76,0.00,,SKC,0.00,VWS V13.01,2013-03-16 05:52:00,
2013-03-16 01:53:00,29.3,22.7,29.67,NNW,333,2.0,11.0,76,0.00,,SKC,0.00,VWS V13.01,2013-03-16 05:53:00,
2013-03-16 01:54:00,29.5,22.9,29.66,NNW,346,2.0,11.0,76,0.00,,SKC,0.00,VWS V13.01,2013-03-16 05:54:00,
2013-03-16 01:55:00,29.3,22.7,29.67,NNW,333,2.0,11.0,76,0.00,,SKC,0.00,VWS V13.01,2013-03-16 05:55:00,
2013-03-16 01:56:00,29.2,22.6,29.67,NNW,333,1.0,11.0,76,0.00,,SKC,0.00,VWS V13.01,2013-03-16 05:56:00,
2013-03-16 01:57:00,29.2,22.6,29.67,NW,326,3.0,11.0,76,0.00,,SKC,0.00,VWS V13.01,2013-03-16 05:57:00,
2013-03-16 01:58:00,29.2,22.6,29.67,West,267,0.0,11.0,76,0.00,,SKC,0.00,VWS V13.01,2013-03-16 05:58:00,
2013-03-16 01:59:00,29.2,22.6,29.67,NW,310,3.0,11.0,76,0.00,,SKC,0.00,VWS V13.01,2013-03-16 05:59:00,
2013-03-16 02:00:00,29.2,22.6,29.67,NNW,348,5.0,12.0,76,0.00,,SKC,0.00,VWS V13.01,2013-03-16 06:00:00,
2013-03-16 02:01:00,29.2,22.6,29.67,North,360,10.0,10.0,76,0.00,,SKC,0.00,VWS V13.01,2013-03-16 06:01:00,
2013-03-16 02:02:00,29.2,22.6,29.67,North,350,6.0,11.0,76,0.00,,SKC,0.00,VWS V13.01,2013-03-16 06:02:00,
2013-03-16 02:03:00,29.3,22.7,29.67,NNW,333,2.0,11.0,76,0.00,,SKC,0.00,VWS V13.01,2013-03-16 06:03:00,
2013-03-16 02:04:00,29.2,22.6,29.67,NNW,348,3.0,11.0,76,0.00,,SKC,0.00,VWS V13.01,2013-03-16 06:04:00,
2013-03-16 02:05:00,29.2,22.6,29.67,NNW,348,9.0,11.0,76,0.00,,SKC,0.00,VWS V13.01,2013-03-16 06:05:00,
2013-03-16 02:06:00,29.2,22.3,29.67,WNW,294,3.0,11.0,75,0.00,,SKC,0.00,VWS V13.01,2013-03-16 06:06:00,
2013-03-16 02:07:00,29.2,22.3,29.67,WNW,289,4.0,11.0,75,0.00,,SKC,0.00,VWS V13.01,2013-03-16 06:07:00,
2013-03-16 02:08:00,29.2,22.6,29.67,WNW,296,2.0,11.0,76,0.00,,SKC,0.00,VWS V13.01,2013-03-16 06:08:00,
2013-03-16 02:09:00,29.2,22.6,29.67,NW,310,3.0,11.0,76,0.00,,SKC,0.00,VWS V13.01,2013-03-16 06:09:00,
2013-03-16 02:10:00,29.2,22.3,29.67,North,355,3.0,11.0,75,0.00,,SKC,0.00,VWS V13.01,2013-03-16 06:10:00,
2013-03-16 02:11:00,29.2,22.3,29.67,North,355,2.0,11.0,75,0.00,,SKC,0.00,VWS V13.01,2013-03-16 06:11:00,
2013-03-16 02:12:00,29.1,22.2,29.67,NNW,342,4.0,11.0,75,0.00,,SKC,0.00,VWS V13.01,2013-03-16 06:12:00,
2013-03-16 02:13:00,29.1,22.2,29.67,NNW,342,0.0,11.0,75,0.00,,SKC,0.00,VWS V13.01,2013-03-16 06:13:00,
2013-03-16 02:14:00,29.2,22.6,29.67,NNW,348,3.0,11.0,76,0.00,,SKC,0.00,VWS V13.01,2013-03-16 06:14:00,
2013-03-16 02:15:00,29.1,21.9,29.67,NNW,337,6.0,11.0,74,0.00,,SKC,0.00,VWS V13.01,2013-03-16 06:15:00,
2013-03-16 02:16:00,29.1,21.9,29.67,NNW,344,2.0,11.0,74,0.00,,SKC,0.00,VWS V13.01,2013-03-16 06:16:00,
2013-03-16 02:17:00,29.0,21.8,29.67,NW,326,2.0,11.0,74,0.00,,SKC,0.00,VWS V13.01,2013-03-16 06:17:00,
2013-03-16 02:18:00,29.0,21.8,29.67,WNW,286,1.0,11.0,74,0.00,,SKC,0.00,VWS V13.01,2013-03-16 06:18:00,
2013-03-16 02:19:00,29.0,21.4,29.67,WNW,286,2.0,11.0,73,0.00,,SKC,0.00,VWS V13.01,2013-03-16 06:19:00,
2013-03-16 02:20:00,29.2,22.3,29.67,North,355,3.0,11.0,75,0.00,,SKC,0.00,VWS V13.01,2013-03-16 06:20:00,
2013-03-16 02:21:00,29.0,21.4,29.67,WNW,283,2.0,11.0,73,0.00,,SKC,0.00,VWS V13.01,2013-03-16 06:21:00,
2013-03-16 02:22:00,29.0,21.1,29.67,NE,34,3.0,11.0,72,0.00,,SKC,0.00,VWS V13.01,2013-03-16 06:22:00,
2013-03-16 02:23:00,29.0,21.1,29.68,NNW,340,2.0,11.0,72,0.00,,SKC,0.00,VWS V13.01,2013-03-16 06:23:00,
2013-03-16 02:24:00,28.9,21.0,29.68,NNW,341,5.0,11.0,72,0.00,,SKC,0.00,VWS V13.01,2013-03-16 06:24:00,
2013-03-16 02:26:00,28.9,21.0,29.68,NW,319,3.0,11.0,72,0.00,,SKC,0.00,VWS V13.01,2013-03-16 06:26:00,
2013-03-16 02:27:00,29.0,21.8,29.68,NW,326,5.0,11.0,74,0.00,,SKC,0.00,VWS V13.01,2013-03-16 06:27:00,
2013-03-16 02:28:00,28.8,20.9,29.68,NNE,32,5.0,12.0,72,0.00,,SKC,0.00,VWS V13.01,2013-03-16 06:28:00,
2013-03-16 02:29:00,28.8,20.6,29.68,NNE,25,3.0,12.0,71,0.00,,SKC,0.00,VWS V13.01,2013-03-16 06:29:00,
2013-03-16 02:30:00,28.8,20.6,29.68,ENE,69,4.0,12.0,71,0.00,,SKC,0.00,VWS V13.01,2013-03-16 06:30:00,
2013-03-16 02:31:00,28.8,20.6,29.68,ENE,67,1.0,4.0,71,0.00,,SKC,0.00,VWS V13.01,2013-03-16 06:31:00,
2013-03-16 02:32:00,29.0,21.1,29.67,NE,34,3.0,11.0,72,0.00,,SKC,0.00,VWS V13.01,2013-03-16 06:32:00,
2013-03-16 02:33:00,28.8,20.3,29.68,NNW,348,4.0,12.0,70,0.00,,SKC,0.00,VWS V13.01,2013-03-16 06:33:00,
2013-03-16 02:34:00,28.8,19.9,29.68,ENE,57,6.0,12.0,69,0.00,,SKC,0.00,VWS V13.01,2013-03-16 06:34:00,
2013-03-16 02:36:00,28.8,19.6,29.68,NW,309,5.0,12.0,68,0.00,,SKC,0.00,VWS V13.01,2013-03-16 06:36:00,
2013-03-16 02:37:00,28.9,21.0,29.68,NNW,334,4.0,11.0,72,0.00,,SKC,0.00,VWS V13.01,2013-03-16 06:37:00,
2013-03-16 02:38:00,28.7,19.5,29.68,North,355,4.0,12.0,68,0.00,,SKC,0.00,VWS V13.01,2013-03-16 06:38:00,
2013-03-16 02:39:00,28.8,19.2,29.68,NNW,345,3.0,12.0,67,0.00,,SKC,0.00,VWS V13.01,2013-03-16 06:39:00,
2013-03-16 02:41:00,28.8,19.2,29.68,NNW,340,0.0,12.0,67,0.00,,SKC,0.00,VWS V13.01,2013-03-16 06:41:00,
2013-03-16 02:42:00,28.7,19.1,29.68,NNE,31,4.0,12.0,67,0.00,,SKC,0.00,VWS V13.01,2013-03-16 06:42:00,
2013-03-16 02:43:00,28.8,20.3,29.68,NNW,346,5.0,12.0,70,0.00,,SKC,0.00,VWS V13.01,2013-03-16 06:43:00,
2013-03-16 02:44:00,28.7,18.8,29.68,NNW,346,3.0,12.0,66,0.00,,SKC,0.00,VWS V13.01,2013-03-16 06:44:00,
2013-03-16 02:46:00,28.7,18.4,29.68,North,355,1.0,12.0,65,0.00,,SKC,0.00,VWS V13.01,2013-03-16 06:46:00,
2013-03-16 02:47:00,28.7,18.4,29.68,NNW,344,5.0,12.0,65,0.00,,SKC,0.00,VWS V13.01,2013-03-16 06:47:00,
2013-03-16 02:48:00,28.8,19.6,29.68,North,355,4.0,12.0,68,0.00,,SKC,0.00,VWS V13.01,2013-03-16 06:48:00,
2013-03-16 02:49:00,28.7,18.4,29.68,NNW,344,1.0,12.0,65,0.00,,SKC,0.00,VWS V13.01,2013-03-16 06:49:00,
2013-03-16 02:50:00,28.7,18.4,29.68,NNW,344,1.0,12.0,65,0.00,,SKC,0.00,VWS V13.01,2013-03-16 06:50:00,
2013-03-16 02:51:00,28.6,18.3,29.68,North,355,9.0,12.0,65,0.00,,SKC,0.00,VWS V13.01,2013-03-16 06:51:00,
2013-03-16 02:52:00,28.6,18.3,29.69,North,360,3.0,12.0,65,0.00,,SKC,0.00,VWS V13.01,2013-03-16 06:52:00,
2013-03-16 02:53:00,28.6,18.0,29.69,NNW,338,5.0,12.0,64,0.00,,SKC,0.00,VWS V13.01,2013-03-16 06:53:00,
2013-03-16 02:54:00,28.7,18.8,29.68,NNW,346,5.0,12.0,66,0.00,,SKC,0.00,VWS V13.01,2013-03-16 06:54:00,
2013-03-16 02:56:00,28.6,18.0,29.69,North,360,6.0,12.0,64,0.00,,SKC,0.00,VWS V13.01,2013-03-16 06:56:00,
2013-03-16 02:57:00,28.5,17.9,29.69,ENE,57,6.0,12.0,64,0.00,,SKC,0.00,VWS V13.01,2013-03-16 06:57:00,
2013-03-16 02:58:00,28.5,17.9,29.69,WNW,291,3.0,12.0,64,0.00,,SKC,0.00,VWS V13.01,2013-03-16 06:58:00,
2013-03-16 02:59:00,28.5,17.9,29.69,North,11,3.0,12.0,64,0.00,,SKC,0.00,VWS V13.01,2013-03-16 06:59:00,
2013-03-16 03:01:00,28.5,17.9,29.69,NNW,331,3.0,6.0,64,0.00,,SKC,0.00,VWS V13.01,2013-03-16 07:01:00,
2013-03-16 03:02:00,28.6,18.3,29.68,North,5,4.0,12.0,65,0.00,,SKC,0.00,VWS V13.01,2013-03-16 07:02:00,
2013-03-16 03:03:00,28.5,17.9,29.69,NNW,331,0.0,6.0,64,0.00,,SKC,0.00,VWS V13.01,2013-03-16 07:03:00,
2013-03-16 03:04:00,28.5,17.9,29.69,NE,42,3.0,6.0,64,0.00,,SKC,0.00,VWS V13.01,2013-03-16 07:04:00,
2013-03-16 03:06:00,28.4,17.4,29.69,North,360,2.0,11.0,63,0.00,,SKC,0.00,VWS V13.01,2013-03-16 07:06:00,
2013-03-16 03:07:00,28.4,17.4,29.69,North,360,3.0,11.0,63,0.00,,SKC,0.00,VWS V13.01,2013-03-16 07:07:00,
2013-03-16 03:08:00,28.6,18.0,29.69,WNW,291,6.0,12.0,64,0.00,,SKC,0.00,VWS V13.01,2013-03-16 07:08:00,
2013-03-16 03:09:00,28.4,17.4,29.69,North,9,4.0,11.0,63,0.00,,SKC,0.00,VWS V13.01,2013-03-16 07:09:00,
2013-03-16 03:10:00,28.4,17.4,29.69,North,355,4.0,11.0,63,0.00,,SKC,0.00,VWS V13.01,2013-03-16 07:10:00,
2013-03-16 03:11:00,28.4,17.4,29.69,NE,47,2.0,11.0,63,0.00,,SKC,0.00,VWS V13.01,2013-03-16 07:11:00,
2013-03-16 03:12:00,28.4,17.4,29.69,NNE,24,5.0,11.0,63,0.00,,SKC,0.00,VWS V13.01,2013-03-16 07:12:00,
2013-03-16 03:13:00,28.4,17.4,29.69,NNE,28,6.0,11.0,63,0.00,,SKC,0.00,VWS V13.01,2013-03-16 07:13:00,
2013-03-16 03:14:00,28.5,17.9,29.69,NE,42,3.0,6.0,64,0.00,,SKC,0.00,VWS V13.01,2013-03-16 07:14:00,
2013-03-16 03:15:00,28.3,17.3,29.69,NW,325,2.0,11.0,63,0.00,,SKC,0.00,VWS V13.01,2013-03-16 07:15:00,
2013-03-16 03:16:00,28.3,17.3,29.69,NW,325,3.0,11.0,63,0.00,,SKC,0.00,VWS V13.01,2013-03-16 07:16:00,
2013-03-16 03:17:00,28.3,17.3,29.69,NW,325,3.0,11.0,63,0.00,,SKC,0.00,VWS V13.01,2013-03-16 07:17:00,
2013-03-16 03:18:00,28.3,17.3,29.69,NNE,28,2.0,11.0,63,0.00,,SKC,0.00,VWS V13.01,2013-03-16 07:18:00,
2013-03-16 03:19:00,28.4,17.4,29.69,NW,304,2.0,11.0,63,0.00,,SKC,0.00,VWS V13.01,2013-03-16 07:19:00,
2013-03-16 03:21:00,28.1,17.1,29.69,North,360,1.0,11.0,63,0.00,,SKC,0.00,VWS V13.01,2013-03-16 07:21:00,
2013-03-16 03:22:00,28.1,17.1,29.69,NNE,27,4.0,11.0,63,0.00,,SKC,0.00,VWS V13.01,2013-03-16 07:22:00,
2013-03-16 03:23:00,28.1,17.1,29.69,NE,51,4.0,11.0,63,0.00,,SKC,0.00,VWS V13.01,2013-03-16 07:23:00,
2013-03-16 03:24:00,28.3,17.3,29.69,NNW,330,5.0,11.0,63,0.00,,SKC,0.00,VWS V13.01,2013-03-16 07:24:00,
2013-03-16 03:26:00,28.0,17.0,29.70,North,11,3.0,11.0,63,0.00,,SKC,0.00,VWS V13.01,2013-03-16 07:26:00,
2013-03-16 03:27:00,28.0,16.7,29.70,NNW,344,7.0,11.0,62,0.00,,SKC,0.00,VWS V13.01,2013-03-16 07:27:00,
2013-03-16 03:28:00,28.0,16.7,29.70,North,350,5.0,11.0,62,0.00,,SKC,0.00,VWS V13.01,2013-03-16 07:28:00,
2013-03-16 03:29:00,28.2,17.2,29.69,North,360,4.0,11.0,63,0.00,,SKC,0.00,VWS V13.01,2013-03-16 07:29:00,
2013-03-16 03:30:00,28.0,16.7,29.70,NE,34,6.0,11.0,62,0.00,,SKC,0.00,VWS V13.01,2013-03-16 07:30:00,
2013-03-16 03:31:00,28.0,16.7,29.70,NNE,30,0.0,6.0,62,0.00,,SKC,0.00,VWS V13.01,2013-03-16 07:31:00,
2013-03-16 03:32:00,27.9,16.6,29.70,NNE,16,6.0,6.0,62,0.00,,SKC,0.00,VWS V13.01,2013-03-16 07:32:00,
2013-03-16 03:33:00,27.9,16.6,29.70,NE,48,2.0,8.0,62,0.00,,SKC,0.00,VWS V13.01,2013-03-16 07:33:00,
2013-03-16 03:34:00,27.9,16.6,29.70,NE,49,6.0,8.0,62,0.00,,SKC,0.00,VWS V13.01,2013-03-16 07:34:00,
2013-03-16 03:35:00,27.9,16.6,29.70,NE,51,2.0,10.0,62,0.00,,SKC,0.00,VWS V13.01,2013-03-16 07:35:00,
2013-03-16 03:36:00,27.9,16.6,29.70,North,360,2.0,10.0,62,0.00,,SKC,0.00,VWS V13.01,2013-03-16 07:36:00,
2013-03-16 03:37:00,27.9,16.6,29.70,North,360,3.0,10.0,62,0.00,,SKC,0.00,VWS V13.01,2013-03-16 07:37:00,
2013-03-16 03:38:00,28.0,16.7,29.70,NW,307,5.0,11.0,62,0.00,,SKC,0.00,VWS V13.01,2013-03-16 07:38:00,
2013-03-16 03:39:00,27.9,16.6,29.70,North,349,4.0,10.0,62,0.00,,SKC,0.00,VWS V13.01,2013-03-16 07:39:00,
2013-03-16 03:40:00,27.8,16.5,29.70,NE,35,4.0,10.0,62,0.00,,SKC,0.00,VWS V13.01,2013-03-16 07:40:00,
2013-03-16 03:41:00,27.8,16.5,29.70,WNW,296,6.0,10.0,62,0.00,,SKC,0.00,VWS V13.01,2013-03-16 07:41:00,
2013-03-16 03:42:00,27.8,16.5,29.70,NW,317,10.0,10.0,62,0.00,,SKC,0.00,VWS V13.01,2013-03-16 07:42:00,
2013-03-16 03:43:00,27.8,16.1,29.70,NNW,331,7.0,10.0,61,0.00,,SKC,0.00,VWS V13.01,2013-03-16 07:43:00,
2013-03-16 03:44:00,27.9,16.6,29.70,NE,43,4.0,8.0,62,0.00,,SKC,0.00,VWS V13.01,2013-03-16 07:44:00,
2013-03-16 03:45:00,27.8,16.5,29.71,NE,50,3.0,10.0,62,0.00,,SKC,0.00,VWS V13.01,2013-03-16 07:45:00,
2013-03-16 03:46:00,27.7,16.4,29.70,NNW,342,2.0,10.0,62,0.00,,SKC,0.00,VWS V13.01,2013-03-16 07:46:00,
2013-03-16 03:47:00,27.7,16.4,29.70,NNW,340,0.0,10.0,62,0.00,,SKC,0.00,VWS V13.01,2013-03-16 07:47:00,
2013-03-16 03:48:00,27.7,16.4,29.71,NNE,19,6.0,10.0,62,0.00,,SKC,0.00,VWS V13.01,2013-03-16 07:48:00,
2013-03-16 03:49:00,27.9,16.6,29.70,North,350,3.0,10.0,62,0.00,,SKC,0.00,VWS V13.01,2013-03-16 07:49:00,
2013-03-16 03:50:00,27.6,16.3,29.71,NNW,345,0.0,10.0,62,0.00,,SKC,0.00,VWS V13.01,2013-03-16 07:50:00,
2013-03-16 03:51:00,27.6,16.3,29.71,NNW,345,1.0,10.0,62,0.00,,SKC,0.00,VWS V13.01,2013-03-16 07:51:00,
2013-03-16 03:52:00,27.6,16.3,29.71,NNW,345,1.0,10.0,62,0.00,,SKC,0.00,VWS V13.01,2013-03-16 07:52:00,
2013-03-16 03:53:00,27.5,16.2,29.71,NNW,345,1.0,10.0,62,0.00,,SKC,0.00,VWS V13.01,2013-03-16 07:53:00,
2013-03-16 03:54:00,27.8,16.5,29.70,ENE,57,3.0,10.0,62,0.00,,SKC,0.00,VWS V13.01,2013-03-16 07:54:00,
2013-03-16 03:55:00,27.5,16.2,29.71,North,355,4.0,10.0,62,0.00,,SKC,0.00,VWS V13.01,2013-03-16 07:55:00,
2013-03-16 03:56:00,27.4,16.5,29.71,North,355,1.0,10.0,63,0.00,,SKC,0.00,VWS V13.01,2013-03-16 07:56:00,
2013-03-16 03:57:00,27.4,16.5,29.71,North,5,1.0,10.0,63,0.00,,SKC,0.00,VWS V13.01,2013-03-16 07:57:00,
2013-03-16 03:58:00,27.4,16.1,29.71,North,350,6.0,10.0,62,0.00,,SKC,0.00,VWS V13.01,2013-03-16 07:58:00,
2013-03-16 03:59:00,27.3,16.0,29.71,NW,323,3.0,10.0,62,0.00,,SKC,0.00,VWS V13.01,2013-03-16 07:59:00,
2013-03-16 04:01:00,27.3,16.4,29.71,NE,42,4.0,6.0,63,0.00,,SKC,0.00,VWS V13.01,2013-03-16 08:01:00,
2013-03-16 04:02:00,27.3,16.0,29.71,NNE,29,3.0,6.0,62,0.00,,SKC,0.00,VWS V13.01,2013-03-16 08:02:00,
2013-03-16 04:03:00,27.5,16.2,29.71,NNW,345,3.0,10.0,62,0.00,,SKC,0.00,VWS V13.01,2013-03-16 08:03:00,
2013-03-16 04:04:00,27.2,15.9,29.72,NNW,346,4.0,6.0,62,0.00,,SKC,0.00,VWS V13.01,2013-03-16 08:04:00,
2013-03-16 04:05:00,27.2,15.9,29.72,North,350,5.0,8.0,62,0.00,,SKC,0.00,VWS V13.01,2013-03-16 08:05:00,
2013-03-16 04:06:00,27.2,15.9,29.72,North,360,0.0,8.0,62,0.00,,SKC,0.00,VWS V13.01,2013-03-16 08:06:00,
2013-03-16 04:07:00,27.2,15.9,29.72,North,360,0.0,8.0,62,0.00,,SKC,0.00,VWS V13.01,2013-03-16 08:07:00,
2013-03-16 04:08:00,27.2,15.9,29.72,North,360,3.0,8.0,62,0.00,,SKC,0.00,VWS V13.01,2013-03-16 08:08:00,
2013-03-16 04:09:00,27.3,16.0,29.71,NW,323,3.0,10.0,62,0.00,,SKC,0.00,VWS V13.01,2013-03-16 08:09:00,
2013-03-16 04:11:00,27.1,15.8,29.72,NNW,336,1.0,8.0,62,0.00,,SKC,0.00,VWS V13.01,2013-03-16 08:11:00,
2013-03-16 04:12:00,27.1,15.8,29.72,NNW,336,0.0,8.0,62,0.00,,SKC,0.00,VWS V13.01,2013-03-16 08:12:00,
2013-03-16 04:13:00,27.0,15.7,29.72,NNW,336,1.0,8.0,62,0.00,,SKC,0.00,VWS V13.01,2013-03-16 08:13:00,
2013-03-16 04:14:00,27.0,15.7,29.72,NNW,336,0.0,8.0,62,0.00,,SKC,0.00,VWS V13.01,2013-03-16 08:14:00,
2013-03-16 04:15:00,27.0,15.7,29.72,North,355,3.0,8.0,62,0.00,,SKC,0.00,VWS V13.01,2013-03-16 08:15:00,
2013-03-16 04:16:00,26.9,15.6,29.72,North,355,3.0,8.0,62,0.00,,SKC,0.00,VWS V13.01,2013-03-16 08:16:00,
2013-03-16 04:17:00,26.9,15.6,29.72,North,350,1.0,8.0,62,0.00,,SKC,0.00,VWS V13.01,2013-03-16 08:17:00,
2013-03-16 04:18:00,27.2,15.9,29.72,North,360,4.0,8.0,62,0.00,,SKC,0.00,VWS V13.01,2013-03-16 08:18:00,
2013-03-16 04:19:00,26.9,15.6,29.72,NNE,15,3.0,8.0,62,0.00,,SKC,0.00,VWS V13.01,2013-03-16 08:19:00,
2013-03-16 04:20:00,26.9,15.6,29.72,NNE,15,3.0,8.0,62,0.00,,SKC,0.00,VWS V13.01,2013-03-16 08:20:00,
2013-03-16 04:21:00,26.8,15.5,29.72,North,350,1.0,8.0,62,0.00,,SKC,0.00,VWS V13.01,2013-03-16 08:21:00,
2013-03-16 04:22:00,26.8,15.5,29.72,North,350,4.0,8.0,62,0.00,,SKC,0.00,VWS V13.01,2013-03-16 08:22:00,
2013-03-16 04:23:00,27.1,15.8,29.72,NNW,336,1.0,8.0,62,0.00,,SKC,0.00,VWS V13.01,2013-03-16 08:23:00,
2013-03-16 04:24:00,26.7,15.4,29.72,NNE,24,2.0,8.0,62,0.00,,SKC,0.00,VWS V13.01,2013-03-16 08:24:00,
2013-03-16 04:25:00,26.7,15.4,29.72,North,360,5.0,8.0,62,0.00,,SKC,0.00,VWS V13.01,2013-03-16 08:25:00,
2013-03-16 04:26:00,26.7,15.4,29.72,North,360,5.0,8.0,62,0.00,,SKC,0.00,VWS V13.01,2013-03-16 08:26:00,
2013-03-16 04:27:00,26.8,15.5,29.72,North,360,1.0,8.0,62,0.00,,SKC,0.00,VWS V13.01,2013-03-16 08:27:00,
2013-03-16 04:28:00,26.7,15.4,29.72,NE,41,1.0,8.0,62,0.00,,SKC,0.00,VWS V13.01,2013-03-16 08:28:00,
2013-03-16 04:29:00,26.8,15.5,29.73,North,355,4.0,8.0,62,0.00,,SKC,0.00,VWS V13.01,2013-03-16 08:29:00,
2013-03-16 04:30:00,26.8,15.5,29.73,NE,49,5.0,8.0,62,0.00,,SKC,0.00,VWS V13.01,2013-03-16 08:30:00,
2013-03-16 04:31:00,26.8,15.2,29.73,NNW,331,1.0,5.0,61,0.00,,SKC,0.00,VWS V13.01,2013-03-16 08:31:00,
2013-03-16 04:32:00,26.8,15.2,29.73,NNW,342,8.0,11.0,61,0.00,,SKC,0.00,VWS V13.01,2013-03-16 08:32:00,
2013-03-16 04:33:00,26.7,15.4,29.72,NNE,26,5.0,8.0,62,0.00,,SKC,0.00,VWS V13.01,2013-03-16 08:33:00,
2013-03-16 04:34:00,26.9,15.3,29.73,NW,323,2.0,12.0,61,0.00,,SKC,0.00,VWS V13.01,2013-03-16 08:34:00,
2013-03-16 04:36:00,26.9,15.3,29.73,North,5,4.0,12.0,61,0.00,,SKC,0.00,VWS V13.01,2013-03-16 08:36:00,
2013-03-16 04:37:00,26.9,14.9,29.73,NE,55,1.0,12.0,60,0.00,,SKC,0.00,VWS V13.01,2013-03-16 08:37:00,
2013-03-16 04:38:00,26.7,15.4,29.72,NE,41,2.0,8.0,62,0.00,,SKC,0.00,VWS V13.01,2013-03-16 08:38:00,
2013-03-16 04:39:00,26.9,14.9,29.74,NNE,18,3.0,12.0,60,0.00,,SKC,0.00,VWS V13.01,2013-03-16 08:39:00,
2013-03-16 04:40:00,26.9,14.9,29.74,NW,314,2.0,12.0,60,0.00,,SKC,0.00,VWS V13.01,2013-03-16 08:40:00,
2013-03-16 04:41:00,26.9,14.9,29.74,NNW,341,3.0,12.0,60,0.00,,SKC,0.00,VWS V13.01,2013-03-16 08:41:00,
2013-03-16 04:42:00,26.9,14.9,29.74,NNE,29,7.0,12.0,60,0.00,,SKC,0.00,VWS V13.01,2013-03-16 08:42:00,
2013-03-16 04:43:00,26.9,14.9,29.74,NNW,340,5.0,12.0,60,0.00,,SKC,0.00,VWS V13.01,2013-03-16 08:43:00,
2013-03-16 04:44:00,26.9,15.3,29.73,NW,322,3.0,12.0,61,0.00,,SKC,0.00,VWS V13.01,2013-03-16 08:44:00,
2013-03-16 04:46:00,26.7,14.7,29.74,NNE,17,3.0,12.0,60,0.00,,SKC,0.00,VWS V13.01,2013-03-16 08:46:00,
2013-03-16 04:47:00,26.7,14.7,29.74,NNW,332,10.0,12.0,60,0.00,,SKC,0.00,VWS V13.01,2013-03-16 08:47:00,
2013-03-16 04:48:00,26.7,14.7,29.74,NNW,345,3.0,12.0,60,0.00,,SKC,0.00,VWS V13.01,2013-03-16 08:48:00,
2013-03-16 04:49:00,26.9,14.9,29.74,NNE,18,4.0,12.0,60,0.00,,SKC,0.00,VWS V13.01,2013-03-16 08:49:00,
2013-03-16 04:50:00,26.7,14.7,29.74,NNW,342,2.0,12.0,60,0.00,,SKC,0.00,VWS V13.01,2013-03-16 08:50:00,
2013-03-16 04:51:00,26.7,14.7,29.74,NNW,342,2.0,12.0,60,0.00,,SKC,0.00,VWS V13.01,2013-03-16 08:51:00,
2013-03-16 04:52:00,26.7,14.7,29.74,NNW,342,0.0,12.0,60,0.00,,SKC,0.00,VWS V13.01,2013-03-16 08:52:00,
2013-03-16 04:53:00,26.7,14.7,29.74,NE,49,1.0,12.0,60,0.00,,SKC,0.00,VWS V13.01,2013-03-16 08:53:00,
2013-03-16 04:54:00,26.8,14.8,29.74,ENE,57,4.0,12.0,60,0.00,,SKC,0.00,VWS V13.01,2013-03-16 08:54:00,
2013-03-16 04:55:00,26.6,14.6,29.74,ENE,74,1.0,12.0,60,0.00,,SKC,0.00,VWS V13.01,2013-03-16 08:55:00,
2013-03-16 04:56:00,26.6,14.6,29.74,NNW,327,5.0,12.0,60,0.00,,SKC,0.00,VWS V13.01,2013-03-16 08:56:00,
2013-03-16 04:57:00,26.6,14.6,29.74,North,350,4.0,12.0,60,0.00,,SKC,0.00,VWS V13.01,2013-03-16 08:57:00,
2013-03-16 04:58:00,26.5,14.5,29.75,North,355,2.0,12.0,60,0.00,,SKC,0.00,VWS V13.01,2013-03-16 08:58:00,
2013-03-16 04:59:00,26.5,14.5,29.75,North,355,0.0,12.0,60,0.00,,SKC,0.00,VWS V13.01,2013-03-16 08:59:00,
2013-03-16 05:00:00,26.7,14.7,29.74,NNW,342,2.0,12.0,60,0.00,,SKC,0.00,VWS V13.01,2013-03-16 09:00:00,
2013-03-16 05:01:00,26.4,14.4,29.75,NE,51,2.0,2.0,60,0.00,,SKC,0.00,VWS V13.01,2013-03-16 09:01:00,
2013-03-16 05:02:00,26.4,14.4,29.75,NNW,327,2.0,4.0,60,0.00,,SKC,0.00,VWS V13.01,2013-03-16 09:02:00,
2013-03-16 05:03:00,26.4,14.4,29.75,NNW,327,1.0,4.0,60,0.00,,SKC,0.00,VWS V13.01,2013-03-16 09:03:00,
2013-03-16 05:04:00,26.4,14.4,29.75,NE,55,4.0,4.0,60,0.00,,SKC,0.00,VWS V13.01,2013-03-16 09:04:00,
2013-03-16 05:06:00,26.3,14.3,29.75,North,360,7.0,7.0,60,0.00,,SKC,0.00,VWS V13.01,2013-03-16 09:06:00,
2013-03-16 05:07:00,26.3,14.3,29.75,NE,49,2.0,7.0,60,0.00,,SKC,0.00,VWS V13.01,2013-03-16 09:07:00,
2013-03-16 05:08:00,26.5,14.5,29.75,North,355,2.0,12.0,60,0.00,,SKC,0.00,VWS V13.01,2013-03-16 09:08:00,
2013-03-16 05:09:00,26.3,14.3,29.75,North,350,3.0,9.0,60,0.00,,SKC,0.00,VWS V13.01,2013-03-16 09:09:00,
2013-03-16 05:10:00,26.2,14.2,29.75,North,350,1.0,9.0,60,0.00,,SKC,0.00,VWS V13.01,2013-03-16 09:10:00,
2013-03-16 05:11:00,26.2,14.2,29.75,NNW,337,0.0,9.0,60,0.00,,SKC,0.00,VWS V13.01,2013-03-16 09:11:00,
2013-03-16 05:12:00,26.2,14.2,29.75,NNW,348,2.0,9.0,60,0.00,,SKC,0.00,VWS V13.01,2013-03-16 09:12:00,
2013-03-16 05:13:00,26.2,14.2,29.75,NNW,348,2.0,9.0,60,0.00,,SKC,0.00,VWS V13.01,2013-03-16 09:13:00,
2013-03-16 05:14:00,26.4,14.4,29.75,NNW,345,4.0,4.0,60,0.00,,SKC,0.00,VWS V13.01,2013-03-16 09:14:00,
2013-03-16 05:15:00,26.2,14.2,29.75,NE,37,6.0,9.0,60,0.00,,SKC,0.00,VWS V13.01,2013-03-16 09:15:00,
2013-03-16 05:16:00,26.2,14.2,29.75,NE,45,4.0,9.0,60,0.00,,SKC,0.00,VWS V13.01,2013-03-16 09:16:00,
2013-03-16 05:17:00,26.2,14.2,29.75,NE,44,3.0,9.0,60,0.00,,SKC,0.00,VWS V13.01,2013-03-16 09:17:00,
2013-03-16 05:18:00,26.1,14.5,29.75,NE,46,2.0,9.0,61,0.00,,SKC,0.00,VWS V13.01,2013-03-16 09:18:00,
2013-03-16 05:19:00,26.3,14.3,29.75,North,350,4.0,9.0,60,0.00,,SKC,0.00,VWS V13.01,2013-03-16 09:19:00,
2013-03-16 05:20:00,26.1,14.5,29.75,NE,41,3.0,9.0,61,0.00,,SKC,0.00,VWS V13.01,2013-03-16 09:20:00,
2013-03-16 05:21:00,26.0,14.4,29.76,NW,320,2.0,9.0,61,0.00,,SKC,0.00,VWS V13.01,2013-03-16 09:21:00,
2013-03-16 05:22:00,26.0,14.4,29.76,NW,321,3.0,9.0,61,0.00,,SKC,0.00,VWS V13.01,2013-03-16 09:22:00,
2013-03-16 05:23:00,26.0,14.4,29.76,NNW,344,2.0,9.0,61,0.00,,SKC,0.00,VWS V13.01,2013-03-16 09:23:00,
2013-03-16 05:24:00,26.2,14.2,29.75,NE,54,2.0,9.0,60,0.00,,SKC,0.00,VWS V13.01,2013-03-16 09:24:00,
2013-03-16 05:26:00,25.9,14.3,29.75,NE,36,3.0,9.0,61,0.00,,SKC,0.00,VWS V13.01,2013-03-16 09:26:00,
2013-03-16 05:27:00,25.9,14.3,29.76,NE,36,1.0,9.0,61,0.00,,SKC,0.00,VWS V13.01,2013-03-16 09:27:00,
2013-03-16 05:28:00,25.8,14.2,29.76,NNE,32,1.0,9.0,61,0.00,,SKC,0.00,VWS V13.01,2013-03-16 09:28:00,
2013-03-16 05:29:00,25.9,14.3,29.76,NNE,32,1.0,9.0,61,0.00,,SKC,0.00,VWS V13.01,2013-03-16 09:29:00,
2013-03-16 05:30:00,26.1,14.5,29.75,NE,41,3.0,9.0,61,0.00,,SKC,0.00,VWS V13.01,2013-03-16 09:30:00,
2013-03-16 05:31:00,25.8,14.2,29.76,NNE,18,2.0,8.0,61,0.00,,SKC,0.00,VWS V13.01,2013-03-16 09:31:00,
2013-03-16 05:32:00,25.8,13.9,29.76,NE,37,2.0,8.0,60,0.00,,SKC,0.00,VWS V13.01,2013-03-16 09:32:00,
2013-03-16 05:33:00,25.8,13.9,29.76,NNE,18,7.0,10.0,60,0.00,,SKC,0.00,VWS V13.01,2013-03-16 09:33:00,
2013-03-16 05:34:00,25.8,13.9,29.76,North,360,2.0,10.0,60,0.00,,SKC,0.00,VWS V13.01,2013-03-16 09:34:00,
2013-03-16 05:35:00,25.9,14.3,29.76,NNW,344,2.0,9.0,61,0.00,,SKC,0.00,VWS V13.01,2013-03-16 09:35:00,
2013-03-16 05:36:00,25.8,14.2,29.76,North,5,0.0,10.0,61,0.00,,SKC,0.00,VWS V13.01,2013-03-16 09:36:00,
2013-03-16 05:37:00,25.8,14.2,29.76,North,5,1.0,10.0,61,0.00,,SKC,0.00,VWS V13.01,2013-03-16 09:37:00,
2013-03-16 05:38:00,25.8,14.2,29.76,NNE,28,6.0,10.0,61,0.00,,SKC,0.00,VWS V13.01,2013-03-16 09:38:00,
2013-03-16 05:39:00,25.8,14.2,29.76,North,360,5.0,10.0,61,0.00,,SKC,0.00,VWS V13.01,2013-03-16 09:39:00,
2013-03-16 05:40:00,25.8,14.2,29.76,NNE,25,2.0,9.0,61,0.00,,SKC,0.00,VWS V13.01,2013-03-16 09:40:00,
2013-03-16 05:41:00,25.8,13.9,29.76,NNE,15,2.0,10.0,60,0.00,,SKC,0.00,VWS V13.01,2013-03-16 09:41:00,
2013-03-16 05:42:00,25.8,13.9,29.76,NNW,346,6.0,10.0,60,0.00,,SKC,0.00,VWS V13.01,2013-03-16 09:42:00,
2013-03-16 05:43:00,25.8,14.2,29.76,NNW,346,2.0,10.0,61,0.00,,SKC,0.00,VWS V13.01,2013-03-16 09:43:00,
2013-03-16 05:44:00,25.8,14.2,29.76,NNE,23,4.0,10.0,61,0.00,,SKC,0.00,VWS V13.01,2013-03-16 09:44:00,
2013-03-16 05:45:00,25.8,14.2,29.76,NNW,327,4.0,10.0,61,0.00,,SKC,0.00,VWS V13.01,2013-03-16 09:45:00,
2013-03-16 05:46:00,25.8,13.9,29.77,NW,313,1.0,10.0,60,0.00,,SKC,0.00,VWS V13.01,2013-03-16 09:46:00,
2013-03-16 05:47:00,25.8,14.2,29.76,North,355,11.0,11.0,61,0.00,,SKC,0.00,VWS V13.01,2013-03-16 09:47:00,
2013-03-16 05:48:00,25.8,14.2,29.76,North,360,2.0,10.0,61,0.00,,SKC,0.00,VWS V13.01,2013-03-16 09:48:00,
2013-03-16 05:49:00,25.8,14.2,29.77,NE,34,1.0,11.0,61,0.00,,SKC,0.00,VWS V13.01,2013-03-16 09:49:00,
2013-03-16 05:50:00,25.8,13.9,29.77,NNE,26,5.0,11.0,60,0.00,,SKC,0.00,VWS V13.01,2013-03-16 09:50:00,
2013-03-16 05:51:00,25.8,14.2,29.77,NNE,29,0.0,11.0,61,0.00,,SKC,0.00,VWS V13.01,2013-03-16 09:51:00,
2013-03-16 05:52:00,25.8,14.2,29.77,North,360,4.0,11.0,61,0.00,,SKC,0.00,VWS V13.01,2013-03-16 09:52:00,
2013-03-16 05:53:00,25.8,14.2,29.76,NNW,346,3.0,10.0,61,0.00,,SKC,0.00,VWS V13.01,2013-03-16 09:53:00,
2013-03-16 05:54:00,25.7,14.1,29.77,NNE,17,4.0,11.0,61,0.00,,SKC,0.00,VWS V13.01,2013-03-16 09:54:00,
2013-03-16 05:55:00,25.7,14.1,29.77,NE,34,0.0,11.0,61,0.00,,SKC,0.00,VWS V13.01,2013-03-16 09:55:00,
2013-03-16 05:56:00,25.7,14.5,29.77,NE,34,2.0,11.0,62,0.00,,SKC,0.00,VWS V13.01,2013-03-16 09:56:00,
2013-03-16 05:57:00,25.7,14.5,29.77,North,11,2.0,11.0,62,0.00,,SKC,0.00,VWS V13.01,2013-03-16 09:57:00,
2013-03-16 05:58:00,25.8,14.2,29.76,North,360,3.0,11.0,61,0.00,,SKC,0.00,VWS V13.01,2013-03-16 09:58:00,
2013-03-16 05:59:00,25.6,14.4,29.77,NNE,22,2.0,11.0,62,0.00,,SKC,0.00,VWS V13.01,2013-03-16 09:59:00,
2013-03-16 06:00:00,25.6,14.4,29.77,ENE,61,9.0,11.0,62,0.00,,SKC,0.00,VWS V13.01,2013-03-16 10:00:00,
2013-03-16 06:01:00,25.5,14.3,29.77,NE,34,2.0,9.0,62,0.00,,SKC,0.00,VWS V13.01,2013-03-16 10:01:00,
2013-03-16 06:02:00,25.6,14.4,29.77,NNW,330,6.0,9.0,62,0.00,,SKC,0.00,VWS V13.01,2013-03-16 10:02:00,
2013-03-16 06:03:00,25.8,14.2,29.77,North,360,1.0,11.0,61,0.00,,SKC,0.00,VWS V13.01,2013-03-16 10:03:00,
2013-03-16 06:04:00,25.5,14.3,29.77,NE,42,3.0,9.0,62,0.00,,SKC,0.00,VWS V13.01,2013-03-16 10:04:00,
2013-03-16 06:05:00,25.5,14.3,29.77,NE,38,3.0,9.0,62,0.00,,SKC,0.00,VWS V13.01,2013-03-16 10:05:00,
2013-03-16 06:06:00,25.5,14.3,29.77,North,5,1.0,9.0,62,0.00,,SKC,0.00,VWS V13.01,2013-03-16 10:06:00,
2013-03-16 06:07:00,25.4,14.2,29.77,North,11,2.0,9.0,62,0.00,,SKC,0.00,VWS V13.01,2013-03-16 10:07:00,
2013-03-16 06:08:00,25.6,14.4,29.77,NNE,24,4.0,11.0,62,0.00,,SKC,0.00,VWS V13.01,2013-03-16 10:08:00,
2013-03-16 06:09:00,25.4,14.2,29.77,North,11,4.0,9.0,62,0.00,,SKC,0.00,VWS V13.01,2013-03-16 10:09:00,
2013-03-16 06:10:00,25.4,14.2,29.77,NNE,33,1.0,9.0,62,0.00,,SKC,0.00,VWS V13.01,2013-03-16 10:10:00,
2013-03-16 06:11:00,25.4,14.2,29.77,NNE,27,3.0,9.0,62,0.00,,SKC,0.00,VWS V13.01,2013-03-16 10:11:00,
2013-03-16 06:12:00,25.3,14.1,29.77,North,10,4.0,9.0,62,0.00,,SKC,0.00,VWS V13.01,2013-03-16 10:12:00,
2013-03-16 06:13:00,25.5,14.3,29.77,NNE,29,2.0,9.0,62,0.00,,SKC,0.00,VWS V13.01,2013-03-16 10:13:00,
2013-03-16 06:14:00,25.3,14.1,29.77,NE,51,1.0,10.0,62,0.00,,SKC,0.00,VWS V13.01,2013-03-16 10:14:00,
2013-03-16 06:15:00,25.3,14.1,29.77,North,350,4.0,10.0,62,0.00,,SKC,0.00,VWS V13.01,2013-03-16 10:15:00,
2013-03-16 06:16:00,25.2,14.0,29.77,NE,55,5.0,10.0,62,0.00,,SKC,0.00,VWS V13.01,2013-03-16 10:16:00,
2013-03-16 06:17:00,25.2,14.0,29.77,NE,44,2.0,10.0,62,0.00,,SKC,0.00,VWS V13.01,2013-03-16 10:17:00,
2013-03-16 06:18:00,25.3,14.1,29.77,North,5,2.0,10.0,62,0.00,,SKC,0.00,VWS V13.01,2013-03-16 10:18:00,
2013-03-16 06:19:00,25.4,14.2,29.77,North,11,4.0,9.0,62,0.00,,SKC,0.00,VWS V13.01,2013-03-16 10:19:00,
2013-03-16 06:21:00,25.2,14.4,29.78,North,360,4.0,10.0,63,0.00,,SKC,0.00,VWS V13.01,2013-03-16 10:21:00,
2013-03-16 06:22:00,25.2,14.0,29.78,NNW,342,3.0,10.0,62,0.00,,SKC,0.00,VWS V13.01,2013-03-16 10:22:00,
2013-03-16 06:23:00,25.2,14.0,29.78,NNW,342,2.0,10.0,62,0.00,,SKC,0.00,VWS V13.01,2013-03-16 10:23:00,
2013-03-16 06:24:00,25.1,14.3,29.78,NNW,342,1.0,10.0,63,0.00,,SKC,0.00,VWS V13.01,2013-03-16 10:24:00,
2013-03-16 06:25:00,25.1,14.3,29.78,NNW,342,0.0,10.0,63,0.00,,SKC,0.00,VWS V13.01,2013-03-16 10:25:00,
2013-03-16 06:26:00,25.1,13.9,29.78,NNW,336,5.0,10.0,62,0.00,,SKC,0.00,VWS V13.01,2013-03-16 10:26:00,
2013-03-16 06:27:00,25.1,13.9,29.78,NW,325,3.0,10.0,62,0.00,,SKC,0.00,VWS V13.01,2013-03-16 10:27:00,
2013-03-16 06:28:00,25.3,14.1,29.78,North,5,2.0,10.0,62,0.00,,SKC,0.00,VWS V13.01,2013-03-16 10:28:00,
2013-03-16 06:29:00,25.1,13.9,29.78,NW,325,2.0,10.0,62,0.00,,SKC,0.00,VWS V13.01,2013-03-16 10:29:00,
2013-03-16 06:30:00,25.1,13.9,29.78,NW,326,3.0,10.0,62,0.00,,SKC,0.00,VWS V13.01,2013-03-16 10:30:00,
2013-03-16 06:31:00,25.1,14.3,29.79,NW,326,4.0,4.0,63,0.00,,SKC,0.00,VWS V13.01,2013-03-16 10:31:00,
2013-03-16 06:32:00,25.1,14.3,29.79,North,355,3.0,5.0,63,0.00,,SKC,0.00,VWS V13.01,2013-03-16 10:32:00,
2013-03-16 06:33:00,25.1,14.3,29.79,North,355,0.0,5.0,63,0.00,,SKC,0.00,VWS V13.01,2013-03-16 10:33:00,
2013-03-16 06:34:00,25.2,14.4,29.78,NNW,342,1.0,10.0,63,0.00,,SKC,0.00,VWS V13.01,2013-03-16 10:34:00,
2013-03-16 06:36:00,25.0,14.2,29.79,NNE,22,1.0,5.0,63,0.00,,SKC,0.00,VWS V13.01,2013-03-16 10:36:00,
2013-03-16 06:37:00,25.0,14.2,29.79,North,360,1.0,5.0,63,0.00,,SKC,0.00,VWS V13.01,2013-03-16 10:37:00,
2013-03-16 06:38:00,25.0,14.2,29.79,North,355,4.0,5.0,63,0.00,,SKC,0.00,VWS V13.01,2013-03-16 10:38:00,
2013-03-16 06:39:00,25.0,14.2,29.79,North,355,4.0,5.0,63,0.00,,SKC,0.00,VWS V13.01,2013-03-16 10:39:00,
2013-03-16 06:40:00,25.1,13.9,29.78,NW,326,3.0,10.0,62,0.00,,SKC,0.00,VWS V13.01,2013-03-16 10:40:00,
2013-03-16 06:41:00,25.0,14.2,29.80,NNE,26,0.0,5.0,63,0.00,,SKC,0.00,VWS V13.01,2013-03-16 10:41:00,
2013-03-16 06:42:00,25.0,14.2,29.80,NNE,25,2.0,5.0,63,0.00,,SKC,0.00,VWS V13.01,2013-03-16 10:42:00,
2013-03-16 06:43:00,25.0,14.2,29.80,NNE,26,1.0,5.0,63,0.00,,SKC,0.00,VWS V13.01,2013-03-16 10:43:00,
2013-03-16 06:44:00,25.0,14.2,29.80,NNE,26,1.0,5.0,63,0.00,,SKC,0.00,VWS V13.01,2013-03-16 10:44:00,
2013-03-16 06:45:00,24.9,14.1,29.80,NNE,26,0.0,5.0,63,0.00,,SKC,0.00,VWS V13.01,2013-03-16 10:45:00,
2013-03-16 06:46:00,24.9,14.1,29.80,NNE,25,0.0,5.0,63,0.00,,SKC,0.00,VWS V13.01,2013-03-16 10:46:00,
2013-03-16 06:47:00,25.0,14.2,29.79,North,360,1.0,5.0,63,0.00,,SKC,0.00,VWS V13.01,2013-03-16 10:47:00,
2013-03-16 06:48:00,24.9,14.1,29.80,NNE,26,3.0,5.0,63,0.00,,SKC,0.00,VWS V13.01,2013-03-16 10:48:00,
2013-03-16 06:49:00,24.9,14.1,29.80,NNE,26,2.0,5.0,63,0.00,,SKC,0.00,VWS V13.01,2013-03-16 10:49:00,
2013-03-16 06:50:00,24.8,14.0,29.80,NNE,26,0.0,5.0,63,0.00,,SKC,0.00,VWS V13.01,2013-03-16 10:50:00,
2013-03-16 06:51:00,24.8,14.4,29.80,NNE,26,1.0,5.0,64,0.00,,SKC,0.00,VWS V13.01,2013-03-16 10:51:00,
2013-03-16 06:52:00,24.8,14.4,29.80,NNE,26,1.0,5.0,64,0.00,,SKC,0.00,VWS V13.01,2013-03-16 10:52:00,
2013-03-16 06:53:00,24.8,14.4,29.80,NNE,25,0.0,5.0,64,0.00,,SKC,0.00,VWS V13.01,2013-03-16 10:53:00,
2013-03-16 06:54:00,25.0,14.2,29.80,NNE,26,1.0,5.0,63,0.00,,SKC,0.00,VWS V13.01,2013-03-16 10:54:00,
2013-03-16 06:55:00,24.7,14.3,29.80,NNE,26,1.0,5.0,64,0.00,,SKC,0.00,VWS V13.01,2013-03-16 10:55:00,
2013-03-16 06:56:00,24.7,14.3,29.80,NNE,26,0.0,5.0,64,0.00,,SKC,0.00,VWS V13.01,2013-03-16 10:56:00,
2013-03-16 06:57:00,24.7,14.3,29.80,NNE,25,4.0,5.0,64,0.00,,SKC,0.00,VWS V13.01,2013-03-16 10:57:00,
2013-03-16 06:58:00,24.7,14.3,29.80,NNE,26,2.0,5.0,64,0.00,,SKC,0.00,VWS V13.01,2013-03-16 10:58:00,
2013-03-16 06:59:00,24.6,14.2,29.80,NNE,26,2.0,5.0,64,0.00,,SKC,0.00,VWS V13.01,2013-03-16 10:59:00,
2013-03-16 07:01:00,24.5,14.1,29.80,NNE,22,1.0,3.0,64,0.00,,SKC,0.00,VWS V13.01,2013-03-16 11:01:00,
2013-03-16 07:02:00,24.8,14.4,29.80,NNE,25,0.0,5.0,64,0.00,,SKC,0.00,VWS V13.01,2013-03-16 11:02:00,
2013-03-16 07:03:00,24.5,14.1,29.80,NNE,29,2.0,6.0,64,0.00,,SKC,0.00,VWS V13.01,2013-03-16 11:03:00,
2013-03-16 07:04:00,24.5,14.1,29.80,NNE,29,0.0,6.0,64,0.00,,SKC,0.00,VWS V13.01,2013-03-16 11:04:00,
2013-03-16 07:05:00,24.5,14.1,29.80,NNE,30,0.0,6.0,64,0.00,,SKC,0.00,VWS V13.01,2013-03-16 11:05:00,
2013-03-16 07:06:00,24.5,14.4,29.80,North,349,3.0,6.0,65,0.00,,SKC,0.00,VWS V13.01,2013-03-16 11:06:00,
2013-03-16 07:07:00,24.5,14.4,29.80,North,349,5.0,6.0,65,0.00,,SKC,0.00,VWS V13.01,2013-03-16 11:07:00,
2013-03-16 07:08:00,24.5,14.1,29.80,North,350,1.0,6.0,64,0.00,,SKC,0.00,VWS V13.01,2013-03-16 11:08:00,
2013-03-16 07:09:00,24.6,14.2,29.80,NNE,26,3.0,5.0,64,0.00,,SKC,0.00,VWS V13.01,2013-03-16 11:09:00,
2013-03-16 07:11:00,24.6,14.2,29.80,NE,56,2.0,6.0,64,0.00,,SKC,0.00,VWS V13.01,2013-03-16 11:11:00,
2013-03-16 07:12:00,24.6,14.2,29.80,NE,55,3.0,6.0,64,0.00,,SKC,0.00,VWS V13.01,2013-03-16 11:12:00,
2013-03-16 07:13:00,24.6,14.2,29.80,NE,55,2.0,6.0,64,0.00,,SKC,0.00,VWS V13.01,2013-03-16 11:13:00,
2013-03-16 07:14:00,24.5,14.1,29.80,NNE,30,0.0,6.0,64,0.00,,SKC,0.00,VWS V13.01,2013-03-16 11:14:00,
2013-03-16 07:16:00,24.7,14.3,29.80,NE,41,1.0,7.0,64,0.00,,SKC,0.00,VWS V13.01,2013-03-16 11:16:00,
2013-03-16 07:17:00,24.7,14.3,29.81,NW,319,6.0,7.0,64,0.00,,SKC,0.00,VWS V13.01,2013-03-16 11:17:00,
2013-03-16 07:18:00,24.7,14.3,29.81,North,360,3.0,10.0,64,0.00,,SKC,0.00,VWS V13.01,2013-03-16 11:18:00,
2013-03-16 07:19:00,24.8,14.0,29.81,ENE,64,5.0,10.0,63,0.00,,SKC,0.00,VWS V13.01,2013-03-16 11:19:00,
2013-03-16 07:20:00,24.5,14.1,29.80,ENE,59,0.0,6.0,64,0.00,,SKC,0.00,VWS V13.01,2013-03-16 11:20:00,
2013-03-16 07:21:00,24.8,14.0,29.81,NNW,345,2.0,10.0,63,0.00,,SKC,0.00,VWS V13.01,2013-03-16 11:21:00,
2013-03-16 07:22:00,24.8,14.0,29.81,NNW,345,4.0,10.0,63,0.00,,SKC,0.00,VWS V13.01,2013-03-16 11:22:00,
2013-03-16 07:23:00,24.9,14.1,29.81,NNW,346,1.0,10.0,63,0.00,,SKC,0.00,VWS V13.01,2013-03-16 11:23:00,
2013-03-16 07:24:00,24.9,14.1,29.81,NE,37,5.0,10.0,63,0.00,,SKC,0.00,VWS V13.01,2013-03-16 11:24:00,
2013-03-16 07:26:00,24.9,14.1,29.81,NE,40,2.0,10.0,63,0.00,,SKC,0.00,VWS V13.01,2013-03-16 11:26:00,
2013-03-16 07:27:00,24.9,14.1,29.81,NE,39,3.0,10.0,63,0.00,,SKC,0.00,VWS V13.01,2013-03-16 11:27:00,
2013-03-16 07:28:00,24.7,14.3,29.81,North,360,3.0,10.0,64,0.00,,SKC,0.00,VWS V13.01,2013-03-16 11:28:00,
2013-03-16 07:29:00,25.0,13.8,29.81,NNW,344,2.0,10.0,62,0.00,,SKC,0.00,VWS V13.01,2013-03-16 11:29:00,
2013-03-16 07:30:00,25.0,13.8,29.81,NNW,345,3.0,10.0,62,0.00,,SKC,0.00,VWS V13.01,2013-03-16 11:30:00,
2013-03-16 07:31:00,25.0,13.8,29.81,North,355,1.0,3.0,62,0.00,,SKC,0.00,VWS V13.01,2013-03-16 11:31:00,
2013-03-16 07:32:00,25.0,13.8,29.82,NW,311,4.0,6.0,62,0.00,,SKC,0.00,VWS V13.01,2013-03-16 11:32:00,
2013-03-16 07:33:00,25.0,13.8,29.82,NW,311,0.0,6.0,62,0.00,,SKC,0.00,VWS V13.01,2013-03-16 11:33:00,
2013-03-16 07:34:00,24.9,14.1,29.81,NE,36,5.0,10.0,63,0.00,,SKC,0.00,VWS V13.01,2013-03-16 11:34:00,
2013-03-16 07:35:00,25.1,14.3,29.82,NW,311,2.0,6.0,63,0.00,,SKC,0.00,VWS V13.01,2013-03-16 11:35:00,
2013-03-16 07:36:00,25.0,14.2,29.82,NW,317,2.0,6.0,63,0.00,,SKC,0.00,VWS V13.01,2013-03-16 11:36:00,
2013-03-16 07:37:00,25.1,13.9,29.82,North,355,3.0,6.0,62,0.00,,SKC,0.00,VWS V13.01,2013-03-16 11:37:00,
2013-03-16 07:38:00,25.1,13.9,29.82,NW,306,1.0,6.0,62,0.00,,SKC,0.00,VWS V13.01,2013-03-16 11:38:00,
2013-03-16 07:39:00,25.0,13.8,29.81,NNW,344,2.0,10.0,62,0.00,,SKC,0.00,VWS V13.01,2013-03-16 11:39:00,
2013-03-16 07:41:00,25.1,13.9,29.82,NNW,348,3.0,6.0,62,0.00,,SKC,0.00,VWS V13.01,2013-03-16 11:41:00,
2013-03-16 07:42:00,25.2,14.0,29.82,NNW,348,0.0,6.0,62,0.00,,SKC,0.00,VWS V13.01,2013-03-16 11:42:00,
2013-03-16 07:43:00,25.2,14.0,29.82,NNW,347,0.0,6.0,62,0.00,,SKC,0.00,VWS V13.01,2013-03-16 11:43:00,
2013-03-16 07:44:00,25.2,14.0,29.82,North,5,5.0,6.0,62,0.00,,SKC,0.00,VWS V13.01,2013-03-16 11:44:00,
2013-03-16 07:45:00,25.1,14.3,29.82,NW,311,2.0,6.0,63,0.00,,SKC,0.00,VWS V13.01,2013-03-16 11:45:00,
2013-03-16 07:46:00,25.2,14.0,29.82,NNW,330,2.0,6.0,62,0.00,,SKC,0.00,VWS V13.01,2013-03-16 11:46:00,
2013-03-16 07:47:00,25.2,14.0,29.82,NE,50,7.0,7.0,62,0.00,,SKC,0.00,VWS V13.01,2013-03-16 11:47:00,
2013-03-16 07:48:00,25.2,13.6,29.82,North,355,5.0,7.0,61,0.00,,SKC,0.00,VWS V13.01,2013-03-16 11:48:00,
2013-03-16 07:49:00,25.2,13.6,29.82,North,355,1.0,7.0,61,0.00,,SKC,0.00,VWS V13.01,2013-03-16 11:49:00,
2013-03-16 07:50:00,25.1,13.9,29.82,North,10,1.0,6.0,62,0.00,,SKC,0.00,VWS V13.01,2013-03-16 11:50:00,
2013-03-16 07:51:00,25.3,14.1,29.82,North,355,2.0,7.0,62,0.00,,SKC,0.00,VWS V13.01,2013-03-16 11:51:00,
2013-03-16 07:52:00,25.3,13.8,29.82,North,355,0.0,7.0,61,0.00,,SKC,0.00,VWS V13.01,2013-03-16 11:52:00,
2013-03-16 07:53:00,25.3,13.8,29.82,North,5,0.0,7.0,61,0.00,,SKC,0.00,VWS V13.01,2013-03-16 11:53:00,
2013-03-16 07:54:00,25.3,13.8,29.82,NNW,345,4.0,7.0,61,0.00,,SKC,0.00,VWS V13.01,2013-03-16 11:54:00,
2013-03-16 07:55:00,25.3,14.1,29.82,North,10,7.0,7.0,62,0.00,,SKC,0.00,VWS V13.01,2013-03-16 11:55:00,
2013-03-16 07:56:00,25.4,13.8,29.82,NNW,333,5.0,7.0,61,0.00,,SKC,0.00,VWS V13.01,2013-03-16 11:56:00,
2013-03-16 07:57:00,25.2,14.0,29.82,NE,50,7.0,7.0,62,0.00,,SKC,0.00,VWS V13.01,2013-03-16 11:57:00,
2013-03-16 07:58:00,25.4,13.8,29.83,NNE,18,4.0,10.0,61,0.00,,SKC,0.00,VWS V13.01,2013-03-16 11:58:00,
2013-03-16 07:59:00,25.4,13.8,29.83,North,355,2.0,10.0,61,0.00,,SKC,0.00,VWS V13.01,2013-03-16 11:59:00,
2013-03-16 08:01:00,25.4,13.8,29.83,NNE,32,2.0,5.0,61,0.00,,SKC,0.00,VWS V13.01,2013-03-16 12:01:00,
2013-03-16 08:02:00,25.3,13.8,29.82,North,355,1.0,7.0,61,0.00,,SKC,0.00,VWS V13.01,2013-03-16 12:02:00,
2013-03-16 08:03:00,25.4,13.8,29.83,NNE,26,3.0,5.0,61,0.00,,SKC,0.00,VWS V13.01,2013-03-16 12:03:00,
2013-03-16 08:04:00,25.5,13.9,29.83,NNE,32,3.0,5.0,61,0.00,,SKC,0.00,VWS V13.01,2013-03-16 12:04:00,
2013-03-16 08:05:00,25.4,13.8,29.83,NNE,24,5.0,5.0,61,0.00,,SKC,0.00,VWS V13.01,2013-03-16 12:05:00,
2013-03-16 08:06:00,25.5,13.9,29.83,NNE,21,4.0,5.0,61,0.00,,SKC,0.00,VWS V13.01,2013-03-16 12:06:00,
2013-03-16 08:07:00,25.5,13.9,29.83,NW,319,5.0,6.0,61,0.00,,SKC,0.00,VWS V13.01,2013-03-16 12:07:00,
2013-03-16 08:08:00,25.6,14.0,29.83,NW,306,2.0,6.0,61,0.00,,SKC,0.00,VWS V13.01,2013-03-16 12:08:00,
2013-03-16 08:09:00,25.6,14.0,29.83,NW,306,1.0,6.0,61,0.00,,SKC,0.00,VWS V13.01,2013-03-16 12:09:00,
2013-03-16 08:10:00,25.4,13.8,29.83,North,350,5.0,10.0,61,0.00,,SKC,0.00,VWS V13.01,2013-03-16 12:10:00,
2013-03-16 08:11:00,25.7,14.5,29.83,NW,306,2.0,6.0,62,0.00,,SKC,0.00,VWS V13.01,2013-03-16 12:11:00,
2013-03-16 08:12:00,25.7,14.5,29.83,NW,311,4.0,6.0,62,0.00,,SKC,0.00,VWS V13.01,2013-03-16 12:12:00,
2013-03-16 08:13:00,25.8,14.2,29.83,North,355,3.0,6.0,61,0.00,,SKC,0.00,VWS V13.01,2013-03-16 12:13:00,
2013-03-16 08:14:00,25.8,14.2,29.83,North,355,1.0,6.0,61,0.00,,SKC,0.00,VWS V13.01,2013-03-16 12:14:00,
2013-03-16 08:15:00,25.9,14.3,29.83,North,355,1.0,6.0,61,0.00,,SKC,0.00,VWS V13.01,2013-03-16 12:15:00,
2013-03-16 08:16:00,25.9,14.3,29.82,North,355,4.0,6.0,61,0.00,,SKC,0.00,VWS V13.01,2013-03-16 12:16:00,
2013-03-16 08:17:00,26.0,14.4,29.82,North,355,1.0,6.0,61,0.00,,SKC,0.00,VWS V13.01,2013-03-16 12:17:00,
2013-03-16 08:18:00,25.5,13.9,29.83,NW,306,2.0,6.0,61,0.00,,SKC,0.00,VWS V13.01,2013-03-16 12:18:00,
2013-03-16 08:19:00,26.0,14.0,29.83,NNW,344,1.0,9.0,60,0.00,,SKC,0.00,VWS V13.01,2013-03-16 12:19:00,
2013-03-16 08:20:00,26.1,14.1,29.82,NNW,346,4.0,9.0,60,0.00,,SKC,0.00,VWS V13.01,2013-03-16 12:20:00,
2013-03-16 08:21:00,26.2,13.8,29.83,NNW,342,2.0,9.0,59,0.00,,SKC,0.00,VWS V13.01,2013-03-16 12:21:00,
2013-03-16 08:22:00,26.2,13.8,29.83,NE,43,3.0,11.0,59,0.00,,SKC,0.00,VWS V13.01,2013-03-16 12:22:00,
2013-03-16 08:23:00,25.8,14.2,29.83,North,355,4.0,6.0,61,0.00,,SKC,0.00,VWS V13.01,2013-03-16 12:23:00,
2013-03-16 08:24:00,26.2,13.4,29.83,NNE,33,10.0,12.0,58,0.00,,SKC,0.00,VWS V13.01,2013-03-16 12:24:00,
2013-03-16 08:26:00,26.3,13.1,29.83,North,360,4.0,12.0,57,0.00,,SKC,0.00,VWS V13.01,2013-03-16 12:26:00,
2013-03-16 08:27:00,26.3,13.1,29.83,NNE,21,9.0,12.0,57,0.00,,SKC,0.00,VWS V13.01,2013-03-16 12:27:00,
2013-03-16 08:28:00,26.3,12.8,29.83,NE,51,5.0,12.0,56,0.00,,SKC,0.00,VWS V13.01,2013-03-16 12:28:00,
2013-03-16 08:29:00,26.3,13.1,29.83,NE,55,4.0,12.0,57,0.00,,SKC,0.00,VWS V13.01,2013-03-16 12:29:00,
2013-03-16 08:30:00,26.1,14.1,29.82,NNW,346,4.0,9.0,60,0.00,,SKC,0.00,VWS V13.01,2013-03-16 12:30:00,
2013-03-16 08:31:00,26.3,12.8,29.82,NNE,33,3.0,7.0,56,0.00,,SKC,0.00,VWS V13.01,2013-03-16 12:31:00,
2013-03-16 08:32:00,26.4,13.2,29.83,NNW,333,6.0,7.0,57,0.00,,SKC,0.00,VWS V13.01,2013-03-16 12:32:00,
2013-03-16 08:33:00,26.4,12.8,29.83,North,5,5.0,8.0,56,0.00,,SKC,0.00,VWS V13.01,2013-03-16 12:33:00,
2013-03-16 08:34:00,26.4,12.8,29.83,North,11,3.0,8.0,56,0.00,,SKC,0.00,VWS V13.01,2013-03-16 12:34:00,
2013-03-16 08:35:00,26.2,13.1,29.83,ENE,57,5.0,12.0,57,0.00,,SKC,0.00,VWS V13.01,2013-03-16 12:35:00,
2013-03-16 08:36:00,26.5,13.3,29.83,North,11,2.0,8.0,57,0.00,,SKC,0.00,VWS V13.01,2013-03-16 12:36:00,
2013-03-16 08:37:00,26.5,13.3,29.83,North,10,2.0,8.0,57,0.00,,SKC,0.00,VWS V13.01,2013-03-16 12:37:00,
2013-03-16 08:38:00,26.6,13.4,29.83,NW,317,6.0,8.0,57,0.00,,SKC,0.00,VWS V13.01,2013-03-16 12:38:00,
2013-03-16 08:39:00,26.7,13.5,29.83,NW,312,2.0,10.0,57,0.00,,SKC,0.00,VWS V13.01,2013-03-16 12:39:00,
2013-03-16 08:40:00,26.8,14.0,29.83,NNW,344,2.0,10.0,58,0.00,,SKC,0.00,VWS V13.01,2013-03-16 12:40:00,
2013-03-16 08:41:00,26.9,14.1,29.83,NNW,340,5.0,10.0,58,0.00,,SKC,0.00,VWS V13.01,2013-03-16 12:41:00,
2013-03-16 08:42:00,26.9,13.7,29.83,NNW,340,7.0,10.0,57,0.00,,SKC,0.00,VWS V13.01,2013-03-16 12:42:00,
2013-03-16 08:43:00,27.0,13.4,29.83,North,350,3.0,10.0,56,0.00,,SKC,0.00,VWS V13.01,2013-03-16 12:43:00,
2013-03-16 08:44:00,27.0,13.4,29.83,North,350,4.0,10.0,56,0.00,,SKC,0.00,VWS V13.01,2013-03-16 12:44:00,
2013-03-16 08:45:00,27.0,13.4,29.83,North,350,0.0,10.0,56,0.00,,SKC,0.00,VWS V13.01,2013-03-16 12:45:00,
2013-03-16 08:46:00,27.1,13.5,29.83,NNW,329,0.0,10.0,56,0.00,,SKC,0.00,VWS V13.01,2013-03-16 12:46:00,
2013-03-16 08:47:00,27.2,13.6,29.83,NNW,329,3.0,10.0,56,0.00,,SKC,0.00,VWS V13.01,2013-03-16 12:47:00,
2013-03-16 08:48:00,26.6,13.4,29.83,North,5,2.0,8.0,57,0.00,,SKC,0.00,VWS V13.01,2013-03-16 12:48:00,
2013-03-16 08:49:00,27.3,14.1,29.83,NNE,24,2.0,10.0,57,0.00,,SKC,0.00,VWS V13.01,2013-03-16 12:49:00,
2013-03-16 08:51:00,27.5,13.9,29.83,NW,324,2.0,10.0,56,0.00,,SKC,0.00,VWS V13.01,2013-03-16 12:51:00,
2013-03-16 08:52:00,27.5,13.9,29.83,NW,320,6.0,10.0,56,0.00,,SKC,0.00,VWS V13.01,2013-03-16 12:52:00,
2013-03-16 08:53:00,26.9,13.3,29.83,North,350,3.0,10.0,56,0.00,,SKC,0.00,VWS V13.01,2013-03-16 12:53:00,
2013-03-16 08:54:00,27.5,13.5,29.83,NE,45,3.0,11.0,55,0.00,,SKC,0.00,VWS V13.01,2013-03-16 12:54:00,
2013-03-16 08:55:00,27.5,13.5,29.83,North,9,1.0,11.0,55,0.00,,SKC,0.00,VWS V13.01,2013-03-16 12:55:00,
2013-03-16 08:56:00,27.5,13.5,29.83,NE,40,5.0,11.0,55,0.00,,SKC,0.00,VWS V13.01,2013-03-16 12:56:00,
2013-03-16 08:57:00,27.5,13.5,29.83,NNE,19,6.0,11.0,55,0.00,,SKC,0.00,VWS V13.01,2013-03-16 12:57:00,
2013-03-16 08:58:00,27.6,13.6,29.83,North,355,3.0,11.0,55,0.00,,SKC,0.00,VWS V13.01,2013-03-16 12:58:00,
2013-03-16 08:59:00,27.7,13.2,29.83,ENE,65,8.0,11.0,54,0.00,,SKC,0.00,VWS V13.01,2013-03-16 12:59:00,
2013-03-16 09:00:00,27.4,13.8,29.83,NNE,27,3.0,10.0,56,0.00,,SKC,0.00,VWS V13.01,2013-03-16 13:00:00,
2013-03-16 09:01:00,27.7,13.2,29.83,NNW,344,4.0,5.0,54,0.00,,SKC,0.00,VWS V13.01,2013-03-16 13:01:00,
2013-03-16 09:02:00,27.7,12.8,29.82,North,355,3.0,11.0,53,0.00,,SKC,0.00,VWS V13.01,2013-03-16 13:02:00,
2013-03-16 09:03:00,27.7,13.2,29.82,NNW,342,3.0,11.0,54,0.00,,SKC,0.00,VWS V13.01,2013-03-16 13:03:00,
2013-03-16 09:04:00,27.7,13.2,29.82,NNW,341,1.0,11.0,54,0.00,,SKC,0.00,VWS V13.01,2013-03-16 13:04:00,
2013-03-16 09:06:00,27.8,13.3,29.82,NW,310,9.0,11.0,54,0.00,,SKC,0.00,VWS V13.01,2013-03-16 13:06:00,
2013-03-16 09:07:00,27.8,13.3,29.82,NNE,22,10.0,12.0,54,0.00,,SKC,0.00,VWS V13.01,2013-03-16 13:07:00,
2013-03-16 09:08:00,27.8,12.9,29.82,North,355,2.0,12.0,53,0.00,,SKC,0.00,VWS V13.01,2013-03-16 13:08:00,
2013-03-16 09:09:00,27.7,12.8,29.82,East,83,6.0,12.0,53,0.00,,SKC,0.00,VWS V13.01,2013-03-16 13:09:00,
2013-03-16 09:10:00,27.7,13.2,29.83,North,355,2.0,11.0,54,0.00,,SKC,0.00,VWS V13.01,2013-03-16 13:10:00,
2013-03-16 09:11:00,27.6,13.1,29.82,ENE,62,6.0,14.0,54,0.00,,SKC,0.00,VWS V13.01,2013-03-16 13:11:00,
2013-03-16 09:12:00,27.6,13.1,29.83,North,9,5.0,14.0,54,0.00,,SKC,0.00,VWS V13.01,2013-03-16 13:12:00,
2013-03-16 09:13:00,27.7,12.8,29.83,ENE,63,7.0,14.0,53,0.00,,SKC,0.00,VWS V13.01,2013-03-16 13:13:00,
2013-03-16 09:14:00,27.7,12.8,29.82,NNE,30,3.0,14.0,53,0.00,,SKC,0.00,VWS V13.01,2013-03-16 13:14:00,
2013-03-16 09:15:00,27.7,12.8,29.82,NNW,337,10.0,11.0,53,0.00,,SKC,0.00,VWS V13.01,2013-03-16 13:15:00,
2013-03-16 09:16:00,27.8,12.9,29.83,NNE,28,3.0,14.0,53,0.00,,SKC,0.00,VWS V13.01,2013-03-16 13:16:00,
2013-03-16 09:17:00,27.9,13.0,29.83,North,351,4.0,14.0,53,0.00,,SKC,0.00,VWS V13.01,2013-03-16 13:17:00,
2013-03-16 09:18:00,27.9,13.0,29.83,NE,43,4.0,14.0,53,0.00,,SKC,0.00,VWS V13.01,2013-03-16 13:18:00,
2013-03-16 09:19:00,28.0,13.5,29.83,North,11,3.0,14.0,54,0.00,,SKC,0.00,VWS V13.01,2013-03-16 13:19:00,
2013-03-16 09:21:00,28.1,13.2,29.83,NNW,337,1.0,14.0,53,0.00,,SKC,0.00,VWS V13.01,2013-03-16 13:21:00,
2013-03-16 09:22:00,27.6,13.1,29.82,NE,36,4.0,14.0,54,0.00,,SKC,0.00,VWS V13.01,2013-03-16 13:22:00,
2013-03-16 09:23:00,28.3,13.4,29.83,ENE,67,12.0,14.0,53,0.00,,SKC,0.00,VWS V13.01,2013-03-16 13:23:00,
2013-03-16 09:24:00,28.3,12.9,29.83,North,355,5.0,14.0,52,0.00,,SKC,0.00,VWS V13.01,2013-03-16 13:24:00,
2013-03-16 09:25:00,28.3,12.9,29.83,WNW,286,2.0,14.0,52,0.00,,SKC,0.00,VWS V13.01,2013-03-16 13:25:00,
2013-03-16 09:26:00,28.4,13.0,29.83,NNW,338,2.0,14.0,52,0.00,,SKC,0.00,VWS V13.01,2013-03-16 13:26:00,
2013-03-16 09:27:00,28.5,13.1,29.83,NE,51,6.0,14.0,52,0.00,,SKC,0.00,VWS V13.01,2013-03-16 13:27:00,
2013-03-16 09:28:00,28.5,13.1,29.83,NE,50,2.0,14.0,52,0.00,,SKC,0.00,VWS V13.01,2013-03-16 13:28:00,
2013-03-16 09:29:00,28.0,13.5,29.83,NNE,28,6.0,14.0,54,0.00,,SKC,0.00,VWS V13.01,2013-03-16 13:29:00,
2013-03-16 09:30:00,28.8,13.4,29.83,NE,34,10.0,14.0,52,0.00,,SKC,0.00,VWS V13.01,2013-03-16 13:30:00,
2013-03-16 09:31:00,28.8,13.0,29.83,North,355,7.0,10.0,51,0.00,,SKC,0.00,VWS V13.01,2013-03-16 13:31:00,
2013-03-16 09:32:00,28.8,12.5,29.83,ENE,57,6.0,10.0,50,0.00,,SKC,0.00,VWS V13.01,2013-03-16 13:32:00,
2013-03-16 09:33:00,28.8,12.5,29.83,ENE,59,3.0,10.0,50,0.00,,SKC,0.00,VWS V13.01,2013-03-16 13:33:00,
2013-03-16 09:34:00,28.7,12.9,29.83,WNW,303,5.0,12.0,51,0.00,,SKC,0.00,VWS V13.01,2013-03-16 13:34:00,
2013-03-16 09:35:00,28.3,12.9,29.83,WNW,286,2.0,14.0,52,0.00,,SKC,0.00,VWS V13.01,2013-03-16 13:35:00,
2013-03-16 09:36:00,28.7,12.4,29.83,NNE,24,9.0,12.0,50,0.00,,SKC,0.00,VWS V13.01,2013-03-16 13:36:00,
2013-03-16 09:37:00,28.7,12.4,29.83,NNE,28,2.0,12.0,50,0.00,,SKC,0.00,VWS V13.01,2013-03-16 13:37:00,
2013-03-16 09:38:00,28.8,12.5,29.83,North,9,2.0,12.0,50,0.00,,SKC,0.00,VWS V13.01,2013-03-16 13:38:00,
2013-03-16 09:39:00,28.8,12.1,29.83,NNW,337,5.0,12.0,49,0.00,,SKC,0.00,VWS V13.01,2013-03-16 13:39:00,
2013-03-16 09:40:00,28.8,13.4,29.83,ENE,60,11.0,14.0,52,0.00,,SKC,0.00,VWS V13.01,2013-03-16 13:40:00,
2013-03-16 09:41:00,28.9,12.1,29.83,NNE,26,4.0,12.0,49,0.00,,SKC,0.00,VWS V13.01,2013-03-16 13:41:00,
2013-03-16 09:42:00,28.9,12.1,29.83,North,360,2.0,12.0,49,0.00,,SKC,0.00,VWS V13.01,2013-03-16 13:42:00,
2013-03-16 09:43:00,29.0,12.2,29.83,NNW,342,4.0,12.0,49,0.00,,SKC,0.00,VWS V13.01,2013-03-16 13:43:00,
2013-03-16 09:44:00,29.1,12.3,29.83,NW,311,2.0,12.0,49,0.00,,SKC,0.00,VWS V13.01,2013-03-16 13:44:00,
2013-03-16 09:45:00,28.7,12.4,29.83,North,5,5.0,12.0,50,0.00,,SKC,0.00,VWS V13.01,2013-03-16 13:45:00,
2013-03-16 09:46:00,29.3,12.5,29.83,NNE,28,5.0,12.0,49,0.00,,SKC,0.00,VWS V13.01,2013-03-16 13:46:00,
2013-03-16 09:47:00,29.3,12.1,29.83,North,9,3.0,12.0,48,0.00,,SKC,0.00,VWS V13.01,2013-03-16 13:47:00,
2013-03-16 09:48:00,29.3,12.1,29.83,NNW,329,3.0,12.0,48,0.00,,SKC,0.00,VWS V13.01,2013-03-16 13:48:00,
2013-03-16 09:49:00,29.4,12.1,29.83,NE,37,9.0,12.0,48,0.00,,SKC,0.00,VWS V13.01,2013-03-16 13:49:00,
2013-03-16 09:50:00,29.4,12.1,29.83,NNE,25,4.0,12.0,48,0.00,,SKC,0.00,VWS V13.01,2013-03-16 13:50:00,
2013-03-16 09:51:00,29.3,12.1,29.83,NW,321,1.0,12.0,48,0.00,,SKC,0.00,VWS V13.01,2013-03-16 13:51:00,
2013-03-16 09:52:00,29.3,12.1,29.83,NNW,330,2.0,12.0,48,0.00,,SKC,0.00,VWS V13.01,2013-03-16 13:52:00,
2013-03-16 09:53:00,29.3,12.1,29.83,NNW,330,10.0,14.0,48,0.00,,SKC,0.00,VWS V13.01,2013-03-16 13:53:00,
2013-03-16 09:54:00,29.1,12.3,29.83,NW,310,1.0,12.0,49,0.00,,SKC,0.00,VWS V13.01,2013-03-16 13:54:00,
2013-03-16 09:56:00,28.9,12.1,29.83,North,360,9.0,14.0,49,0.00,,SKC,0.00,VWS V13.01,2013-03-16 13:56:00,
2013-03-16 09:57:00,28.8,12.1,29.83,NW,323,5.0,14.0,49,0.00,,SKC,0.00,VWS V13.01,2013-03-16 13:57:00,
2013-03-16 09:58:00,28.8,12.1,29.82,NE,37,3.0,14.0,49,0.00,,SKC,0.00,VWS V13.01,2013-03-16 13:58:00,
2013-03-16 09:59:00,29.4,12.1,29.82,North,355,4.0,12.0,48,0.00,,SKC,0.00,VWS V13.01,2013-03-16 13:59:00,
2013-03-16 10:00:00,28.8,12.1,29.82,West,272,6.0,14.0,49,0.00,,SKC,0.00,VWS V13.01,2013-03-16 14:00:00,
2013-03-16 10:01:00,28.9,12.1,29.83,NW,308,2.0,6.0,49,0.00,,SKC,0.00,VWS V13.01,2013-03-16 14:01:00,
2013-03-16 10:02:00,29.1,12.8,29.83,NW,306,7.0,7.0,50,0.00,,SKC,0.00,VWS V13.01,2013-03-16 14:02:00,
2013-03-16 10:03:00,29.3,12.5,29.83,NNW,334,5.0,12.0,49,0.00,,SKC,0.00,VWS V13.01,2013-03-16 14:03:00,
2013-03-16 10:04:00,29.4,12.6,29.83,NW,320,5.0,12.0,49,0.00,,SKC,0.00,VWS V13.01,2013-03-16 14:04:00,
2013-03-16 10:05:00,29.0,11.8,29.83,NNW,331,6.0,14.0,48,0.00,,SKC,0.00,VWS V13.01,2013-03-16 14:05:00,
2013-03-16 10:06:00,29.7,12.4,29.83,NNW,331,7.0,12.0,48,0.00,,SKC,0.00,VWS V13.01,2013-03-16 14:06:00,
2013-03-16 10:07:00,29.7,12.4,29.83,WNW,292,6.0,12.0,48,0.00,,SKC,0.00,VWS V13.01,2013-03-16 14:07:00,
2013-03-16 10:08:00,29.6,11.9,29.83,WNW,300,3.0,12.0,47,0.00,,SKC,0.00,VWS V13.01,2013-03-16 14:08:00,
2013-03-16 10:09:00,29.5,12.2,29.83,NNW,333,2.0,12.0,48,0.00,,SKC,0.00,VWS V13.01,2013-03-16 14:09:00,
2013-03-16 10:11:00,29.4,11.7,29.83,NW,325,7.0,12.0,47,0.00,,SKC,0.00,VWS V13.01,2013-03-16 14:11:00,
2013-03-16 10:12:00,29.1,12.8,29.83,NW,306,6.0,6.0,50,0.00,,SKC,0.00,VWS V13.01,2013-03-16 14:12:00,
2013-03-16 10:13:00,29.5,12.2,29.83,NNE,26,2.0,12.0,48,0.00,,SKC,0.00,VWS V13.01,2013-03-16 14:13:00,
2013-03-16 10:14:00,29.6,12.3,29.83,NNW,338,6.0,12.0,48,0.00,,SKC,0.00,VWS V13.01,2013-03-16 14:14:00,
2013-03-16 10:16:00,30.0,12.2,29.83,NNW,337,3.0,12.0,47,0.00,,SKC,0.00,VWS V13.01,2013-03-16 14:16:00,
2013-03-16 10:17:00,30.1,11.8,29.83,NW,313,8.0,13.0,46,0.00,,SKC,0.00,VWS V13.01,2013-03-16 14:17:00,
2013-03-16 10:18:00,29.6,11.9,29.83,WNW,299,4.0,12.0,47,0.00,,SKC,0.00,VWS V13.01,2013-03-16 14:18:00,
2013-03-16 10:19:00,30.0,11.7,29.83,North,360,9.0,13.0,46,0.00,,SKC,0.00,VWS V13.01,2013-03-16 14:19:00,
2013-03-16 10:20:00,30.0,11.7,29.83,NE,34,5.0,13.0,46,0.00,,SKC,0.00,VWS V13.01,2013-03-16 14:20:00,
2013-03-16 10:21:00,30.0,11.7,29.82,NE,36,5.0,13.0,46,0.00,,SKC,0.00,VWS V13.01,2013-03-16 14:21:00,
2013-03-16 10:22:00,30.1,11.8,29.82,NNE,26,3.0,13.0,46,0.00,,SKC,0.00,VWS V13.01,2013-03-16 14:22:00,
2013-03-16 10:23:00,30.2,11.9,29.82,NNE,16,0.0,13.0,46,0.00,,SKC,0.00,VWS V13.01,2013-03-16 14:23:00,
2013-03-16 10:24:00,30.3,12.5,29.82,NNE,16,2.0,13.0,47,0.00,,SKC,0.00,VWS V13.01,2013-03-16 14:24:00,
2013-03-16 10:25:00,30.6,12.8,29.82,NNE,20,2.0,13.0,47,0.00,,SKC,0.00,VWS V13.01,2013-03-16 14:25:00,
2013-03-16 10:26:00,30.9,12.6,29.82,West,275,1.0,13.0,46,0.00,,SKC,0.00,VWS V13.01,2013-03-16 14:26:00,
2013-03-16 10:27:00,30.1,11.8,29.83,NW,313,8.0,13.0,46,0.00,,SKC,0.00,VWS V13.01,2013-03-16 14:27:00,
2013-03-16 10:28:00,31.1,12.8,29.82,North,355,4.0,13.0,46,0.00,,SKC,0.00,VWS V13.01,2013-03-16 14:28:00,
2013-03-16 10:29:00,31.0,11.7,29.82,NE,38,3.0,13.0,44,0.00,,SKC,0.00,VWS V13.01,2013-03-16 14:29:00,
2013-03-16 10:30:00,30.8,12.0,29.82,NNE,32,2.0,13.0,45,0.00,,SKC,0.00,VWS V13.01,2013-03-16 14:30:00,
2013-03-16 10:31:00,30.8,12.0,29.82,NE,55,7.0,7.0,45,0.00,,SKC,0.00,VWS V13.01,2013-03-16 14:31:00,
2013-03-16 10:32:00,30.1,11.8,29.82,NNE,26,3.0,13.0,46,0.00,,SKC,0.00,VWS V13.01,2013-03-16 14:32:00,
2013-03-16 10:33:00,30.6,12.3,29.82,NNW,346,5.0,12.0,46,0.00,,SKC,0.00,VWS V13.01,2013-03-16 14:33:00,
2013-03-16 10:34:00,30.6,12.3,29.82,NNW,332,3.0,12.0,46,0.00,,SKC,0.00,VWS V13.01,2013-03-16 14:34:00,
2013-03-16 10:35:00,30.6,11.8,29.82,North,9,11.0,12.0,45,0.00,,SKC,0.00,VWS V13.01,2013-03-16 14:35:00,
2013-03-16 10:36:00,30.3,11.5,29.82,NNW,344,5.0,12.0,45,0.00,,SKC,0.00,VWS V13.01,2013-03-16 14:36:00,
2013-03-16 10:37:00,30.2,11.4,29.82,NNE,12,4.0,12.0,45,0.00,,SKC,0.00,VWS V13.01,2013-03-16 14:37:00,
2013-03-16 10:38:00,29.9,11.2,29.82,NNW,338,7.0,12.0,45,0.00,,SKC,0.00,VWS V13.01,2013-03-16 14:38:00,
2013-03-16 10:39:00,31.0,11.7,29.82,NE,38,3.0,13.0,44,0.00,,SKC,0.00,VWS V13.01,2013-03-16 14:39:00,
2013-03-16 10:41:00,29.6,11.9,29.82,NW,304,2.0,12.0,47,0.00,,SKC,0.00,VWS V13.01,2013-03-16 14:41:00,
2013-03-16 10:42:00,29.6,12.3,29.82,West,263,3.0,12.0,48,0.00,,SKC,0.00,VWS V13.01,2013-03-16 14:42:00,
2013-03-16 10:43:00,29.6,11.9,29.82,West,260,3.0,12.0,47,0.00,,SKC,0.00,VWS V13.01,2013-03-16 14:43:00,
2013-03-16 10:44:00,30.6,12.3,29.82,NNW,331,3.0,12.0,46,0.00,,SKC,0.00,VWS V13.01,2013-03-16 14:44:00,
2013-03-16 10:46:00,29.7,12.4,29.82,NNE,30,4.0,12.0,48,0.00,,SKC,0.00,VWS V13.01,2013-03-16 14:46:00,
2013-03-16 10:47:00,29.8,12.0,29.82,NNW,330,3.0,12.0,47,0.00,,SKC,0.00,VWS V13.01,2013-03-16 14:47:00,
2013-03-16 10:48:00,29.9,12.1,29.82,NNW,330,1.0,12.0,47,0.00,,SKC,0.00,VWS V13.01,2013-03-16 14:48:00,
2013-03-16 10:49:00,30.0,11.7,29.82,NNW,331,2.0,12.0,46,0.00,,SKC,0.00,VWS V13.01,2013-03-16 14:49:00,
2013-03-16 10:50:00,29.7,11.9,29.82,NNW,333,2.0,12.0,47,0.00,,SKC,0.00,VWS V13.01,2013-03-16 14:50:00,
2013-03-16 10:51:00,30.3,12.0,29.82,North,360,5.0,12.0,46,0.00,,SKC,0.00,VWS V13.01,2013-03-16 14:51:00,
2013-03-16 10:52:00,30.5,12.2,29.82,North,355,6.0,12.0,46,0.00,,SKC,0.00,VWS V13.01,2013-03-16 14:52:00,
2013-03-16 10:53:00,30.6,12.3,29.82,NW,317,4.0,12.0,46,0.00,,SKC,0.00,VWS V13.01,2013-03-16 14:53:00,
2013-03-16 10:54:00,30.9,12.6,29.82,NNW,345,11.0,13.0,46,0.00,,SKC,0.00,VWS V13.01,2013-03-16 14:54:00,
2013-03-16 10:56:00,30.9,12.1,29.82,North,360,9.0,13.0,45,0.00,,SKC,0.00,VWS V13.01,2013-03-16 14:56:00,
2013-03-16 10:57:00,29.7,11.9,29.82,NNW,330,7.0,12.0,47,0.00,,SKC,0.00,VWS V13.01,2013-03-16 14:57:00,
2013-03-16 10:58:00,30.5,11.7,29.82,NNW,341,6.0,13.0,45,0.00,,SKC,0.00,VWS V13.01,2013-03-16 14:58:00,
2013-03-16 10:59:00,30.3,11.5,29.81,NNW,342,5.0,13.0,45,0.00,,SKC,0.00,VWS V13.01,2013-03-16 14:59:00,
2013-03-16 11:00:00,30.1,11.3,29.81,NNW,340,3.0,13.0,45,0.00,,SKC,0.00,VWS V13.01,2013-03-16 15:00:00,
2013-03-16 11:01:00,30.1,11.8,29.81,NNW,344,4.0,5.0,46,0.00,,SKC,0.00,VWS V13.01,2013-03-16 15:01:00,
2013-03-16 11:02:00,30.5,12.2,29.82,North,349,3.0,12.0,46,0.00,,SKC,0.00,VWS V13.01,2013-03-16 15:02:00,
2013-03-16 11:03:00,30.2,11.9,29.81,NNE,18,5.0,12.0,46,0.00,,SKC,0.00,VWS V13.01,2013-03-16 15:03:00,
2013-03-16 11:04:00,30.3,11.5,29.81,NNW,338,6.0,12.0,45,0.00,,SKC,0.00,VWS V13.01,2013-03-16 15:04:00,
2013-03-16 11:05:00,30.4,11.6,29.81,NE,39,4.0,12.0,45,0.00,,SKC,0.00,VWS V13.01,2013-03-16 15:05:00,
2013-03-16 11:06:00,30.5,11.2,29.81,ENE,60,5.0,12.0,44,0.00,,SKC,0.00,VWS V13.01,2013-03-16 15:06:00,
2013-03-16 11:07:00,30.5,11.7,29.81,North,349,3.0,12.0,45,0.00,,SKC,0.00,VWS V13.01,2013-03-16 15:07:00,
2013-03-16 11:08:00,30.5,11.7,29.82,NNW,341,6.0,13.0,45,0.00,,SKC,0.00,VWS V13.01,2013-03-16 15:08:00,
2013-03-16 11:09:00,30.7,11.9,29.81,NNW,340,2.0,13.0,45,0.00,,SKC,0.00,VWS V13.01,2013-03-16 15:09:00,
2013-03-16 11:10:00,30.8,12.0,29.81,NNW,340,2.0,13.0,45,0.00,,SKC,0.00,VWS V13.01,2013-03-16 15:10:00,
2013-03-16 11:11:00,31.0,11.7,29.81,NE,36,5.0,13.0,44,0.00,,SKC,0.00,VWS V13.01,2013-03-16 15:11:00,
2013-03-16 11:12:00,31.1,11.2,29.82,North,360,3.0,13.0,43,0.00,,SKC,0.00,VWS V13.01,2013-03-16 15:12:00,
2013-03-16 11:13:00,31.2,11.3,29.82,NNW,338,4.0,13.0,43,0.00,,SKC,0.00,VWS V13.01,2013-03-16 15:13:00,
2013-03-16 11:14:00,31.3,11.9,29.82,NW,326,3.0,13.0,44,0.00,,SKC,0.00,VWS V13.01,2013-03-16 15:14:00,
2013-03-16 11:15:00,30.4,11.6,29.81,NE,53,5.0,12.0,45,0.00,,SKC,0.00,VWS V13.01,2013-03-16 15:15:00,
2013-03-16 11:16:00,31.7,12.3,29.82,NW,321,3.0,13.0,44,0.00,,SKC,0.00,VWS V13.01,2013-03-16 15:16:00,
2013-03-16 11:17:00,31.8,12.4,29.82,NNW,331,2.0,13.0,44,0.00,,SKC,0.00,VWS V13.01,2013-03-16 15:17:00,
2013-03-16 11:18:00,32.0,12.1,29.82,NW,325,3.0,13.0,43,0.00,,SKC,0.00,VWS V13.01,2013-03-16 15:18:00,
2013-03-16 11:19:00,31.9,12.0,29.82,NNW,337,4.0,13.0,43,0.00,,SKC,0.00,VWS V13.01,2013-03-16 15:19:00,
2013-03-16 11:20:00,30.8,12.0,29.81,NNW,340,4.0,13.0,45,0.00,,SKC,0.00,VWS V13.01,2013-03-16 15:20:00,
2013-03-16 11:21:00,31.9,12.0,29.82,North,355,2.0,13.0,43,0.00,,SKC,0.00,VWS V13.01,2013-03-16 15:21:00,
2013-03-16 11:22:00,31.9,12.0,29.82,North,355,4.0,13.0,43,0.00,,SKC,0.00,VWS V13.01,2013-03-16 15:22:00,
2013-03-16 11:23:00,31.7,11.8,29.82,North,355,2.0,13.0,43,0.00,,SKC,0.00,VWS V13.01,2013-03-16 15:23:00,
2013-03-16 11:24:00,31.7,11.8,29.82,NNW,344,1.0,13.0,43,0.00,,SKC,0.00,VWS V13.01,2013-03-16 15:24:00,
2013-03-16 11:25:00,31.7,12.3,29.82,NNW,344,2.0,13.0,44,0.00,,SKC,0.00,VWS V13.01,2013-03-16 15:25:00,
2013-03-16 11:26:00,31.9,12.5,29.82,NNW,345,2.0,13.0,44,0.00,,SKC,0.00,VWS V13.01,2013-03-16 15:26:00,
2013-03-16 11:27:00,31.9,12.0,29.82,NNW,345,0.0,13.0,43,0.00,,SKC,0.00,VWS V13.01,2013-03-16 15:27:00,
2013-03-16 11:28:00,32.0,12.1,29.82,NNW,331,3.0,13.0,43,0.00,,SKC,0.00,VWS V13.01,2013-03-16 15:28:00,
2013-03-16 11:29:00,32.1,12.7,29.82,NNW,331,2.0,13.0,44,0.00,,SKC,0.00,VWS V13.01,2013-03-16 15:29:00,
2013-03-16 11:31:00,32.3,11.8,29.82,NW,305,2.0,7.0,42,0.00,,SKC,0.00,VWS V13.01,2013-03-16 15:31:00,
2013-03-16 11:32:00,32.2,12.2,29.82,NW,304,3.0,7.0,43,0.00,,SKC,0.00,VWS V13.01,2013-03-16 15:32:00,
2013-03-16 11:33:00,31.7,11.8,29.82,North,355,2.0,13.0,43,0.00,,SKC,0.00,VWS V13.01,2013-03-16 15:33:00,
2013-03-16 11:34:00,32.4,12.4,29.82,West,263,4.0,7.0,43,0.00,,SKC,0.00,VWS V13.01,2013-03-16 15:34:00,
2013-03-16 11:36:00,32.4,12.4,29.81,West,263,2.0,7.0,43,0.00,,SKC,0.00,VWS V13.01,2013-03-16 15:36:00,
2013-03-16 11:37:00,32.5,12.5,29.81,NNE,26,4.0,7.0,43,0.00,,SKC,0.00,VWS V13.01,2013-03-16 15:37:00,
2013-03-16 11:38:00,32.7,12.7,29.81,North,360,5.0,7.0,43,0.00,,SKC,0.00,VWS V13.01,2013-03-16 15:38:00,
2013-03-16 11:39:00,32.9,12.9,29.82,NNW,339,2.0,7.0,43,0.00,,SKC,0.00,VWS V13.01,2013-03-16 15:39:00,
2013-03-16 11:40:00,33.0,12.4,29.82,NNE,33,6.0,10.0,42,0.00,,SKC,0.00,VWS V13.01,2013-03-16 15:40:00,
2013-03-16 11:41:00,33.0,12.4,29.82,North,350,1.0,10.0,42,0.00,,SKC,0.00,VWS V13.01,2013-03-16 15:41:00,
2013-03-16 11:42:00,32.9,11.8,29.82,North,360,5.0,10.0,41,0.00,,SKC,0.00,VWS V13.01,2013-03-16 15:42:00,
2013-03-16 11:43:00,32.8,11.7,29.82,North,355,2.0,10.0,41,0.00,,SKC,0.00,VWS V13.01,2013-03-16 15:43:00,
2013-03-16 11:44:00,32.7,12.2,29.81,West,264,4.0,10.0,42,0.00,,SKC,0.00,VWS V13.01,2013-03-16 15:44:00,
2013-03-16 11:45:00,32.6,12.1,29.81,WNW,298,4.0,10.0,42,0.00,,SKC,0.00,VWS V13.01,2013-03-16 15:45:00,
2013-03-16 11:46:00,32.6,12.1,29.81,WNW,300,1.0,10.0,42,0.00,,SKC,0.00,VWS V13.01,2013-03-16 15:46:00,
2013-03-16 11:47:00,32.5,12.5,29.81,North,360,3.0,7.0,43,0.00,,SKC,0.00,VWS V13.01,2013-03-16 15:47:00,
2013-03-16 11:48:00,32.5,12.5,29.81,NW,314,2.0,10.0,43,0.00,,SKC,0.00,VWS V13.01,2013-03-16 15:48:00,
2013-03-16 11:49:00,32.5,12.0,29.81,NW,309,3.0,10.0,42,0.00,,SKC,0.00,VWS V13.01,2013-03-16 15:49:00,
2013-03-16 11:50:00,32.5,12.5,29.81,NNW,348,5.0,10.0,43,0.00,,SKC,0.00,VWS V13.01,2013-03-16 15:50:00,
2013-03-16 11:51:00,32.4,12.9,29.81,WSW,248,6.0,10.0,44,0.00,,SKC,0.00,VWS V13.01,2013-03-16 15:51:00,
2013-03-16 11:52:00,32.3,12.8,29.81,WSW,248,5.0,10.0,44,0.00,,SKC,0.00,VWS V13.01,2013-03-16 15:52:00,
2013-03-16 11:53:00,32.0,12.6,29.81,West,259,0.0,10.0,44,0.00,,SKC,0.00,VWS V13.01,2013-03-16 15:53:00,
2013-03-16 11:54:00,32.7,12.2,29.81,West,260,5.0,10.0,42,0.00,,SKC,0.00,VWS V13.01,2013-03-16 15:54:00,
2013-03-16 11:55:00,31.9,12.5,29.81,West,259,0.0,10.0,44,0.00,,SKC,0.00,VWS V13.01,2013-03-16 15:55:00,
2013-03-16 11:56:00,31.9,12.5,29.81,West,259,0.0,10.0,44,0.00,,SKC,0.00,VWS V13.01,2013-03-16 15:56:00,
2013-03-16 11:57:00,31.9,12.5,29.81,SE,133,1.0,10.0,44,0.00,,SKC,0.00,VWS V13.01,2013-03-16 15:57:00,
2013-03-16 11:58:00,31.9,12.5,29.81,WNW,292,4.0,10.0,44,0.00,,SKC,0.00,VWS V13.01,2013-03-16 15:58:00,
2013-03-16 11:59:00,32.1,12.7,29.81,NNW,344,5.0,10.0,44,0.00,,SKC,0.00,VWS V13.01,2013-03-16 15:59:00,
2013-03-16 12:00:00,32.5,12.5,29.81,North,349,4.0,10.0,43,0.00,,SKC,0.00,VWS V13.01,2013-03-16 16:00:00,
2013-03-16 12:01:00,32.3,12.3,29.82,North,355,10.0,10.0,43,0.00,,SKC,0.00,VWS V13.01,2013-03-16 16:01:00,
2013-03-16 12:02:00,32.3,11.8,29.82,NNW,346,4.0,10.0,42,0.00,,SKC,0.00,VWS V13.01,2013-03-16 16:02:00,
2013-03-16 12:03:00,32.2,11.7,29.81,West,276,5.0,10.0,42,0.00,,SKC,0.00,VWS V13.01,2013-03-16 16:03:00,
2013-03-16 12:04:00,32.2,11.7,29.81,West,277,0.0,10.0,42,0.00,,SKC,0.00,VWS V13.01,2013-03-16 16:04:00,
2013-03-16 12:05:00,32.2,11.7,29.81,WNW,282,0.0,10.0,42,0.00,,SKC,0.00,VWS V13.01,2013-03-16 16:05:00,
2013-03-16 12:06:00,32.4,12.4,29.81,WNW,282,1.0,10.0,43,0.00,,SKC,0.00,VWS V13.01,2013-03-16 16:06:00,
2013-03-16 12:07:00,32.5,12.5,29.81,WNW,282,0.0,10.0,43,0.00,,SKC,0.00,VWS V13.01,2013-03-16 16:07:00,
2013-03-16 12:08:00,32.7,12.7,29.81,WNW,290,3.0,10.0,43,0.00,,SKC,0.00,VWS V13.01,2013-03-16 16:08:00,
2013-03-16 12:09:00,32.1,12.7,29.81,WNW,298,3.0,10.0,44,0.00,,SKC,0.00,VWS V13.01,2013-03-16 16:09:00,
2013-03-16 12:10:00,33.0,12.4,29.81,WNW,296,1.0,10.0,42,0.00,,SKC,0.00,VWS V13.01,2013-03-16 16:10:00,
2013-03-16 12:11:00,33.1,12.0,29.81,WNW,301,1.0,10.0,41,0.00,,SKC,0.00,VWS V13.01,2013-03-16 16:11:00,
2013-03-16 12:12:00,33.3,12.2,29.81,NW,304,3.0,10.0,41,0.00,,SKC,0.00,VWS V13.01,2013-03-16 16:12:00,
2013-03-16 12:13:00,33.3,12.2,29.81,NNW,338,0.0,10.0,41,0.00,,SKC,0.00,VWS V13.01,2013-03-16 16:13:00,
2013-03-16 12:14:00,32.2,11.7,29.81,West,277,1.0,10.0,42,0.00,,SKC,0.00,VWS V13.01,2013-03-16 16:14:00,
2013-03-16 12:15:00,33.1,12.0,29.81,NNW,343,10.0,10.0,41,0.00,,SKC,0.00,VWS V13.01,2013-03-16 16:15:00,
2013-03-16 12:16:00,33.0,11.3,29.81,NNW,345,5.0,10.0,40,0.00,,SKC,0.00,VWS V13.01,2013-03-16 16:16:00,
2013-03-16 12:17:00,32.8,11.1,29.81,NNW,346,1.0,10.0,40,0.00,,SKC,0.00,VWS V13.01,2013-03-16 16:17:00,
2013-03-16 12:18:00,32.8,12.2,29.81,NNW,346,1.0,10.0,42,0.00,,SKC,0.00,VWS V13.01,2013-03-16 16:18:00,
2013-03-16 12:19:00,32.8,11.7,29.81,NW,311,1.0,10.0,41,0.00,,SKC,0.00,VWS V13.01,2013-03-16 16:19:00,
2013-03-16 12:20:00,33.0,12.4,29.81,WNW,296,2.0,10.0,42,0.00,,SKC,0.00,VWS V13.01,2013-03-16 16:20:00,
2013-03-16 12:21:00,32.5,11.4,29.81,WSW,240,0.0,10.0,41,0.00,,SKC,0.00,VWS V13.01,2013-03-16 16:21:00,
2013-03-16 12:22:00,32.6,12.1,29.81,WNW,299,2.0,10.0,42,0.00,,SKC,0.00,VWS V13.01,2013-03-16 16:22:00,
2013-03-16 12:23:00,32.6,11.5,29.81,NNW,333,3.0,10.0,41,0.00,,SKC,0.00,VWS V13.01,2013-03-16 16:23:00,
2013-03-16 12:24:00,32.7,12.2,29.81,NNW,333,0.0,10.0,42,0.00,,SKC,0.00,VWS V13.01,2013-03-16 16:24:00,
2013-03-16 12:26:00,33.1,12.5,29.81,North,360,5.0,10.0,42,0.00,,SKC,0.00,VWS V13.01,2013-03-16 16:26:00,
2013-03-16 12:27:00,32.8,11.1,29.81,NNW,346,0.0,10.0,40,0.00,,SKC,0.00,VWS V13.01,2013-03-16 16:27:00,
2013-03-16 12:28:00,33.2,11.5,29.81,North,355,0.0,10.0,40,0.00,,SKC,0.00,VWS V13.01,2013-03-16 16:28:00,
2013-03-16 12:29:00,33.2,11.5,29.81,NE,51,4.0,10.0,40,0.00,,SKC,0.00,VWS V13.01,2013-03-16 16:29:00,
2013-03-16 12:30:00,33.0,11.3,29.81,NE,46,4.0,10.0,40,0.00,,SKC,0.00,VWS V13.01,2013-03-16 16:30:00,
2013-03-16 12:31:00,33.0,11.9,29.81,NE,50,2.0,4.0,41,0.00,,SKC,0.00,VWS V13.01,2013-03-16 16:31:00,
2013-03-16 12:32:00,33.1,12.0,29.81,WNW,293,2.0,4.0,41,0.00,,SKC,0.00,VWS V13.01,2013-03-16 16:32:00,
2013-03-16 12:33:00,33.4,12.2,29.81,WNW,303,1.0,7.0,41,0.00,,SKC,0.00,VWS V13.01,2013-03-16 16:33:00,
2013-03-16 12:34:00,33.5,11.8,29.81,NNE,27,5.0,7.0,40,0.00,,SKC,0.00,VWS V13.01,2013-03-16 16:34:00,
2013-03-16 12:35:00,33.4,11.7,29.80,NNE,27,1.0,7.0,40,0.00,,SKC,0.00,VWS V13.01,2013-03-16 16:35:00,
2013-03-16 12:36:00,33.4,11.7,29.81,North,355,4.0,7.0,40,0.00,,SKC,0.00,VWS V13.01,2013-03-16 16:36:00,
2013-03-16 12:37:00,33.5,11.8,29.81,NNE,18,2.0,7.0,40,0.00,,SKC,0.00,VWS V13.01,2013-03-16 16:37:00,
2013-03-16 12:38:00,33.2,11.5,29.81,North,355,0.0,10.0,40,0.00,,SKC,0.00,VWS V13.01,2013-03-16 16:38:00,
2013-03-16 12:39:00,33.7,12.0,29.81,NNE,19,3.0,7.0,40,0.00,,SKC,0.00,VWS V13.01,2013-03-16 16:39:00,
2013-03-16 12:40:00,33.8,12.1,29.81,WSW,242,4.0,7.0,40,0.00,,SKC,0.00,VWS V13.01,2013-03-16 16:40:00,
2013-03-16 12:41:00,33.7,12.5,29.81,West,271,4.0,7.0,41,0.00,,SKC,0.00,VWS V13.01,2013-03-16 16:41:00,
2013-03-16 12:42:00,33.5,11.8,29.81,WSW,252,6.0,7.0,40,0.00,,SKC,0.00,VWS V13.01,2013-03-16 16:42:00,
2013-03-16 12:43:00,33.3,12.2,29.81,NW,306,3.0,7.0,41,0.00,,SKC,0.00,VWS V13.01,2013-03-16 16:43:00,
2013-03-16 12:44:00,33.0,11.3,29.81,WSW,254,0.0,7.0,40,0.00,,SKC,0.00,VWS V13.01,2013-03-16 16:44:00,
2013-03-16 12:45:00,32.8,11.1,29.81,WSW,254,0.0,7.0,40,0.00,,SKC,0.00,VWS V13.01,2013-03-16 16:45:00,
2013-03-16 12:46:00,32.7,11.6,29.81,West,280,2.0,7.0,41,0.00,,SKC,0.00,VWS V13.01,2013-03-16 16:46:00,
2013-03-16 12:47:00,32.6,11.0,29.81,WNW,288,4.0,7.0,40,0.00,,SKC,0.00,VWS V13.01,2013-03-16 16:47:00,
2013-03-16 12:48:00,32.6,11.0,29.81,NW,322,2.0,7.0,40,0.00,,SKC,0.00,VWS V13.01,2013-03-16 16:48:00,
2013-03-16 12:49:00,33.7,12.0,29.81,NNE,19,3.0,7.0,40,0.00,,SKC,0.00,VWS V13.01,2013-03-16 16:49:00,
2013-03-16 12:50:00,32.7,11.1,29.81,West,274,3.0,9.0,40,0.00,,SKC,0.00,VWS V13.01,2013-03-16 16:50:00,
2013-03-16 12:51:00,32.8,10.6,29.80,North,5,2.0,9.0,39,0.00,,SKC,0.00,VWS V13.01,2013-03-16 16:51:00,
2013-03-16 12:52:00,32.9,10.7,29.80,WNW,300,5.0,9.0,39,0.00,,SKC,0.00,VWS V13.01,2013-03-16 16:52:00,
2013-03-16 12:53:00,33.1,10.9,29.80,West,261,3.0,9.0,39,0.00,,SKC,0.00,VWS V13.01,2013-03-16 16:53:00,
2013-03-16 12:54:00,33.3,11.0,29.80,WSW,254,4.0,9.0,39,0.00,,SKC,0.00,VWS V13.01,2013-03-16 16:54:00,
2013-03-16 12:56:00,33.2,10.9,29.80,WSW,250,4.0,9.0,39,0.00,,SKC,0.00,VWS V13.01,2013-03-16 16:56:00,
2013-03-16 12:57:00,32.6,11.5,29.81,WNW,288,3.0,7.0,41,0.00,,SKC,0.00,VWS V13.01,2013-03-16 16:57:00,
2013-03-16 12:58:00,33.2,10.9,29.80,West,269,6.0,9.0,39,0.00,,SKC,0.00,VWS V13.01,2013-03-16 16:58:00,
2013-03-16 12:59:00,33.2,10.9,29.80,WSW,245,3.0,9.0,39,0.00,,SKC,0.00,VWS V13.01,2013-03-16 16:59:00,
2013-03-16 13:00:00,33.1,10.9,29.81,WSW,257,2.0,9.0,39,0.00,,SKC,0.00,VWS V13.01,2013-03-16 17:00:00,
2013-03-16 13:01:00,33.1,12.0,29.80,WSW,258,4.0,4.0,41,0.00,,SKC,0.00,VWS V13.01,2013-03-16 17:01:00,
2013-03-16 13:02:00,33.2,12.1,29.81,West,263,1.0,5.0,41,0.00,,SKC,0.00,VWS V13.01,2013-03-16 17:02:00,
2013-03-16 13:03:00,33.1,10.9,29.80,West,261,4.0,9.0,39,0.00,,SKC,0.00,VWS V13.01,2013-03-16 17:03:00,
2013-03-16 13:04:00,33.6,12.4,29.81,WSW,250,0.0,8.0,41,0.00,,SKC,0.00,VWS V13.01,2013-03-16 17:04:00,
2013-03-16 13:05:00,33.7,12.5,29.81,WSW,252,5.0,10.0,41,0.00,,SKC,0.00,VWS V13.01,2013-03-16 17:05:00,
2013-03-16 13:06:00,33.8,12.1,29.81,West,269,3.0,10.0,40,0.00,,SKC,0.00,VWS V13.01,2013-03-16 17:06:00,
2013-03-16 13:07:00,33.8,12.1,29.81,WSW,248,8.0,10.0,40,0.00,,SKC,0.00,VWS V13.01,2013-03-16 17:07:00,
2013-03-16 13:08:00,33.2,10.9,29.80,West,267,7.0,9.0,39,0.00,,SKC,0.00,VWS V13.01,2013-03-16 17:08:00,
2013-03-16 13:09:00,33.5,11.8,29.80,WSW,253,3.0,10.0,40,0.00,,SKC,0.00,VWS V13.01,2013-03-16 17:09:00,
2013-03-16 13:10:00,33.4,11.7,29.80,WSW,256,2.0,10.0,40,0.00,,SKC,0.00,VWS V13.01,2013-03-16 17:10:00,
2013-03-16 13:11:00,33.3,12.2,29.80,WSW,256,0.0,10.0,41,0.00,,SKC,0.00,VWS V13.01,2013-03-16 17:11:00,
2013-03-16 13:12:00,33.3,11.6,29.80,NW,321,5.0,10.0,40,0.00,,SKC,0.00,VWS V13.01,2013-03-16 17:12:00,
2013-03-16 13:13:00,33.2,11.5,29.80,NNW,327,1.0,10.0,40,0.00,,SKC,0.00,VWS V13.01,2013-03-16 17:13:00,
2013-03-16 13:14:00,33.4,11.7,29.80,NW,321,3.0,10.0,40,0.00,,SKC,0.00,VWS V13.01,2013-03-16 17:14:00,
2013-03-16 13:16:00,33.9,12.7,29.80,West,280,2.0,10.0,41,0.00,,SKC,0.00,VWS V13.01,2013-03-16 17:16:00,
2013-03-16 13:17:00,34.2,12.4,29.80,WNW,297,2.0,10.0,40,0.00,,SKC,0.00,VWS V13.01,2013-03-16 17:17:00,
2013-03-16 13:18:00,33.7,11.4,29.81,WSW,252,4.0,10.0,39,0.00,,SKC,0.00,VWS V13.01,2013-03-16 17:18:00,
2013-03-16 13:19:00,34.4,12.0,29.80,WSW,249,2.0,10.0,39,0.00,,SKC,0.00,VWS V13.01,2013-03-16 17:19:00,
2013-03-16 13:20:00,34.4,12.0,29.80,WNW,289,3.0,10.0,39,0.00,,SKC,0.00,VWS V13.01,2013-03-16 17:20:00,
2013-03-16 13:21:00,34.4,12.0,29.80,WSW,250,6.0,10.0,39,0.00,,SKC,0.00,VWS V13.01,2013-03-16 17:21:00,
2013-03-16 13:22:00,34.4,12.6,29.80,WSW,251,3.0,10.0,40,0.00,,SKC,0.00,VWS V13.01,2013-03-16 17:22:00,
2013-03-16 13:23:00,34.4,12.6,29.80,WSW,254,0.0,10.0,40,0.00,,SKC,0.00,VWS V13.01,2013-03-16 17:23:00,
2013-03-16 13:24:00,34.4,12.0,29.80,WSW,253,1.0,10.0,39,0.00,,SKC,0.00,VWS V13.01,2013-03-16 17:24:00,
2013-03-16 13:26:00,34.6,11.6,29.79,NNE,16,2.0,10.0,38,0.00,,SKC,0.00,VWS V13.01,2013-03-16 17:26:00,
2013-03-16 13:27:00,35.0,12.6,29.79,NNE,16,1.0,10.0,39,0.00,,SKC,0.00,VWS V13.01,2013-03-16 17:27:00,
2013-03-16 13:28:00,35.2,13.3,29.80,North,355,4.0,10.0,40,0.00,,SKC,0.00,VWS V13.01,2013-03-16 17:28:00,
2013-03-16 13:29:00,35.3,11.6,29.80,NNE,22,4.0,12.0,37,0.00,,SKC,0.00,VWS V13.01,2013-03-16 17:29:00,
2013-03-16 13:30:00,35.5,11.8,29.79,NNW,330,2.0,12.0,37,0.00,,SKC,0.00,VWS V13.01,2013-03-16 17:30:00,
2013-03-16 13:31:00,35.6,11.9,29.80,WNW,283,3.0,5.0,37,0.00,,SKC,0.00,VWS V13.01,2013-03-16 17:31:00,
2013-03-16 13:32:00,35.6,12.5,29.79,NE,42,5.0,7.0,38,0.00,,SKC,0.00,VWS V13.01,2013-03-16 17:32:00,
2013-03-16 13:33:00,35.6,11.9,29.79,West,269,4.0,7.0,37,0.00,,SKC,0.00,VWS V13.01,2013-03-16 17:33:00,
2013-03-16 13:34:00,34.4,12.0,29.80,WSW,253,1.0,10.0,39,0.00,,SKC,0.00,VWS V13.01,2013-03-16 17:34:00,
2013-03-16 13:35:00,35.4,11.7,29.79,West,267,3.0,7.0,37,0.00,,SKC,0.00,VWS V13.01,2013-03-16 17:35:00,
2013-03-16 13:36:00,35.3,12.2,29.79,NNW,343,9.0,9.0,38,0.00,,SKC,0.00,VWS V13.01,2013-03-16 17:36:00,
2013-03-16 13:37:00,35.1,10.9,29.79,NNW,344,2.0,13.0,36,0.00,,SKC,0.00,VWS V13.01,2013-03-16 17:37:00,
2013-03-16 13:38:00,34.9,10.7,29.79,NNE,22,0.0,13.0,36,0.00,,SKC,0.00,VWS V13.01,2013-03-16 17:38:00,
2013-03-16 13:39:00,34.8,11.2,29.79,WSW,254,5.0,13.0,37,0.00,,SKC,0.00,VWS V13.01,2013-03-16 17:39:00,
2013-03-16 13:40:00,34.6,11.6,29.79,WSW,254,2.0,13.0,38,0.00,,SKC,0.00,VWS V13.01,2013-03-16 17:40:00,
2013-03-16 13:41:00,34.5,12.7,29.79,WSW,257,3.0,13.0,40,0.00,,SKC,0.00,VWS V13.01,2013-03-16 17:41:00,
2013-03-16 13:42:00,34.5,12.1,29.79,NW,311,7.0,13.0,39,0.00,,SKC,0.00,VWS V13.01,2013-03-16 17:42:00,
2013-03-16 13:43:00,34.4,11.4,29.79,North,350,7.0,13.0,38,0.00,,SKC,0.00,VWS V13.01,2013-03-16 17:43:00,
2013-03-16 13:44:00,34.4,10.2,29.79,NNW,333,3.0,13.0,36,0.00,,SKC,0.00,VWS V13.01,2013-03-16 17:44:00,
2013-03-16 13:45:00,35.4,11.7,29.79,West,267,3.0,7.0,37,0.00,,SKC,0.00,VWS V13.01,2013-03-16 17:45:00,
2013-03-16 13:46:00,34.4,10.8,29.79,NNW,337,2.0,13.0,37,0.00,,SKC,0.00,VWS V13.01,2013-03-16 17:46:00,
2013-03-16 13:47:00,34.4,10.8,29.79,North,350,4.0,13.0,37,0.00,,SKC,0.00,VWS V13.01,2013-03-16 17:47:00,
2013-03-16 13:48:00,34.4,10.8,29.79,NNW,346,4.0,13.0,37,0.00,,SKC,0.00,VWS V13.01,2013-03-16 17:48:00,
2013-03-16 13:49:00,34.4,10.8,29.79,WNW,298,4.0,13.0,37,0.00,,SKC,0.00,VWS V13.01,2013-03-16 17:49:00,
2013-03-16 13:50:00,34.4,10.2,29.79,WNW,294,3.0,13.0,36,0.00,,SKC,0.00,VWS V13.01,2013-03-16 17:50:00,
2013-03-16 13:51:00,34.4,10.8,29.79,WNW,294,2.0,13.0,37,0.00,,SKC,0.00,VWS V13.01,2013-03-16 17:51:00,
2013-03-16 13:52:00,34.4,10.8,29.79,North,355,5.0,13.0,37,0.00,,SKC,0.00,VWS V13.01,2013-03-16 17:52:00,
2013-03-16 13:53:00,34.4,10.2,29.79,NNE,14,2.0,13.0,36,0.00,,SKC,0.00,VWS V13.01,2013-03-16 17:53:00,
2013-03-16 13:54:00,34.4,10.2,29.79,NNW,333,7.0,13.0,36,0.00,,SKC,0.00,VWS V13.01,2013-03-16 17:54:00,
2013-03-16 13:55:00,34.4,10.2,29.79,West,262,4.0,13.0,36,0.00,,SKC,0.00,VWS V13.01,2013-03-16 17:55:00,
2013-03-16 13:56:00,34.2,10.1,29.79,SW,214,3.0,13.0,36,0.00,,SKC,0.00,VWS V13.01,2013-03-16 17:56:00,
2013-03-16 13:57:00,34.1,10.6,29.79,SW,215,2.0,13.0,37,0.00,,SKC,0.00,VWS V13.01,2013-03-16 17:57:00,
2013-03-16 13:58:00,34.1,11.2,29.79,South,187,1.0,13.0,38,0.00,,SKC,0.00,VWS V13.01,2013-03-16 17:58:00,
2013-03-16 13:59:00,34.4,10.8,29.79,WNW,298,4.0,13.0,37,0.00,,SKC,0.00,VWS V13.01,2013-03-16 17:59:00,
2013-03-16 14:00:00,34.4,12.6,29.79,West,274,6.0,13.0,40,0.00,,SKC,0.00,VWS V13.01,2013-03-16 18:00:00,
2013-03-16 14:01:00,34.4,13.1,29.79,West,274,2.0,6.0,41,0.00,,SKC,0.00,VWS V13.01,2013-03-16 18:01:00,
2013-03-16 14:02:00,34.4,12.6,29.79,NNW,336,3.0,6.0,40,0.00,,SKC,0.00,VWS V13.01,2013-03-16 18:02:00,
2013-03-16 14:03:00,34.3,12.5,29.79,WSW,250,5.0,7.0,40,0.00,,SKC,0.00,VWS V13.01,2013-03-16 18:03:00,
2013-03-16 14:04:00,34.1,12.9,29.79,West,261,0.0,7.0,41,0.00,,SKC,0.00,VWS V13.01,2013-03-16 18:04:00,
2013-03-16 14:05:00,34.4,10.2,29.79,West,263,4.0,13.0,36,0.00,,SKC,0.00,VWS V13.01,2013-03-16 18:05:00,
2013-03-16 14:06:00,33.7,12.5,29.79,SW,228,3.0,7.0,41,0.00,,SKC,0.00,VWS V13.01,2013-03-16 18:06:00,
2013-03-16 14:07:00,33.6,12.4,29.79,SW,236,4.0,7.0,41,0.00,,SKC,0.00,VWS V13.01,2013-03-16 18:07:00,
2013-03-16 14:08:00,33.5,12.3,29.79,WSW,238,2.0,7.0,41,0.00,,SKC,0.00,VWS V13.01,2013-03-16 18:08:00,
2013-03-16 14:09:00,33.6,13.0,29.79,WSW,251,2.0,7.0,42,0.00,,SKC,0.00,VWS V13.01,2013-03-16 18:09:00,
2013-03-16 14:10:00,33.6,13.0,29.79,WSW,251,0.0,7.0,42,0.00,,SKC,0.00,VWS V13.01,2013-03-16 18:10:00,
2013-03-16 14:11:00,33.7,13.1,29.79,WSW,251,4.0,7.0,42,0.00,,SKC,0.00,VWS V13.01,2013-03-16 18:11:00,
2013-03-16 14:12:00,33.7,12.0,29.79,WSW,250,2.0,7.0,40,0.00,,SKC,0.00,VWS V13.01,2013-03-16 18:12:00,
2013-03-16 14:13:00,33.6,11.9,29.79,WSW,251,0.0,7.0,40,0.00,,SKC,0.00,VWS V13.01,2013-03-16 18:13:00,
2013-03-16 14:14:00,33.5,11.8,29.79,WSW,250,1.0,7.0,40,0.00,,SKC,0.00,VWS V13.01,2013-03-16 18:14:00,
2013-03-16 14:16:00,33.7,12.5,29.78,WSW,250,3.0,7.0,41,0.00,,SKC,0.00,VWS V13.01,2013-03-16 18:16:00,
2013-03-16 14:17:00,33.8,12.1,29.79,WSW,252,3.0,7.0,40,0.00,,SKC,0.00,VWS V13.01,2013-03-16 18:17:00,
2013-03-16 14:18:00,33.8,12.1,29.79,WSW,252,3.0,7.0,40,0.00,,SKC,0.00,VWS V13.01,2013-03-16 18:18:00,
2013-03-16 14:19:00,33.8,12.1,29.79,WSW,252,2.0,7.0,40,0.00,,SKC,0.00,VWS V13.01,2013-03-16 18:19:00,
2013-03-16 14:20:00,33.8,12.6,29.78,WSW,252,3.0,7.0,41,0.00,,SKC,0.00,VWS V13.01,2013-03-16 18:20:00,
2013-03-16 14:21:00,33.8,11.5,29.78,WSW,257,5.0,7.0,39,0.00,,SKC,0.00,VWS V13.01,2013-03-16 18:21:00,
2013-03-16 14:22:00,33.7,13.1,29.79,WSW,251,4.0,7.0,42,0.00,,SKC,0.00,VWS V13.01,2013-03-16 18:22:00,
2013-03-16 14:23:00,33.8,10.9,29.78,WNW,284,5.0,7.0,38,0.00,,SKC,0.00,VWS V13.01,2013-03-16 18:23:00,
2013-03-16 14:24:00,33.9,11.0,29.78,WNW,286,3.0,7.0,38,0.00,,SKC,0.00,VWS V13.01,2013-03-16 18:24:00,
2013-03-16 14:25:00,33.9,10.4,29.78,WNW,286,0.0,7.0,37,0.00,,SKC,0.00,VWS V13.01,2013-03-16 18:25:00,
2013-03-16 14:26:00,34.1,10.6,29.78,WNW,286,0.0,7.0,37,0.00,,SKC,0.00,VWS V13.01,2013-03-16 18:26:00,
2013-03-16 14:27:00,34.2,10.7,29.78,WNW,286,0.0,7.0,37,0.00,,SKC,0.00,VWS V13.01,2013-03-16 18:27:00,
2013-03-16 14:28:00,33.8,12.1,29.79,WSW,252,3.0,7.0,40,0.00,,SKC,0.00,VWS V13.01,2013-03-16 18:28:00,
2013-03-16 14:29:00,34.4,10.8,29.78,WNW,286,2.0,7.0,37,0.00,,SKC,0.00,VWS V13.01,2013-03-16 18:29:00,
2013-03-16 14:30:00,34.4,10.2,29.78,WNW,286,4.0,7.0,36,0.00,,SKC,0.00,VWS V13.01,2013-03-16 18:30:00,
2013-03-16 14:31:00,34.4,10.2,29.79,WNW,286,1.0,4.0,36,0.00,,SKC,0.00,VWS V13.01,2013-03-16 18:31:00,
2013-03-16 14:32:00,34.5,10.3,29.78,WNW,286,2.0,4.0,36,0.00,,SKC,0.00,VWS V13.01,2013-03-16 18:32:00,
2013-03-16 14:33:00,34.6,9.8,29.78,WNW,286,2.0,4.0,35,0.00,,SKC,0.00,VWS V13.01,2013-03-16 18:33:00,
2013-03-16 14:34:00,34.6,9.8,29.78,WNW,286,1.0,4.0,35,0.00,,SKC,0.00,VWS V13.01,2013-03-16 18:34:00,
2013-03-16 14:35:00,33.9,10.4,29.78,WNW,286,0.0,7.0,37,0.00,,SKC,0.00,VWS V13.01,2013-03-16 18:35:00,
2013-03-16 14:36:00,34.4,10.2,29.78,West,273,0.0,4.0,36,0.00,,SKC,0.00,VWS V13.01,2013-03-16 18:36:00,
2013-03-16 14:37:00,34.4,10.2,29.78,WSW,246,3.0,7.0,36,0.00,,SKC,0.00,VWS V13.01,2013-03-16 18:37:00,
2013-03-16 14:38:00,34.4,10.8,29.78,WSW,246,2.0,7.0,37,0.00,,SKC,0.00,VWS V13.01,2013-03-16 18:38:00,
2013-03-16 14:39:00,34.4,11.4,29.78,WSW,246,3.0,7.0,38,0.00,,SKC,0.00,VWS V13.01,2013-03-16 18:39:00,
2013-03-16 14:40:00,34.4,11.4,29.78,WSW,246,2.0,7.0,38,0.00,,SKC,0.00,VWS V13.01,2013-03-16 18:40:00,
2013-03-16 14:41:00,34.4,11.4,29.78,WSW,245,4.0,7.0,38,0.00,,SKC,0.00,VWS V13.01,2013-03-16 18:41:00,
2013-03-16 14:42:00,34.5,10.3,29.79,WNW,286,2.0,4.0,36,0.00,,SKC,0.00,VWS V13.01,2013-03-16 18:42:00,
2013-03-16 14:43:00,34.4,12.0,29.78,WSW,245,0.0,7.0,39,0.00,,SKC,0.00,VWS V13.01,2013-03-16 18:43:00,
2013-03-16 14:44:00,34.4,12.0,29.78,West,272,2.0,7.0,39,0.00,,SKC,0.00,VWS V13.01,2013-03-16 18:44:00,
2013-03-16 14:45:00,34.6,12.2,29.78,NNW,339,1.0,7.0,39,0.00,,SKC,0.00,VWS V13.01,2013-03-16 18:45:00,
2013-03-16 14:46:00,34.9,12.5,29.78,WSW,242,1.0,7.0,39,0.00,,SKC,0.00,VWS V13.01,2013-03-16 18:46:00,
2013-03-16 14:47:00,35.1,12.6,29.78,WNW,283,2.0,7.0,39,0.00,,SKC,0.00,VWS V13.01,2013-03-16 18:47:00,
2013-03-16 14:48:00,34.4,10.8,29.78,WSW,246,2.0,7.0,37,0.00,,SKC,0.00,VWS V13.01,2013-03-16 18:48:00,
2013-03-16 14:49:00,35.4,12.3,29.78,WSW,258,2.0,7.0,38,0.00,,SKC,0.00,VWS V13.01,2013-03-16 18:49:00,
2013-03-16 14:50:00,35.4,11.7,29.78,WSW,258,0.0,7.0,37,0.00,,SKC,0.00,VWS V13.01,2013-03-16 18:50:00,
2013-03-16 14:51:00,35.5,12.4,29.78,West,259,5.0,9.0,38,0.00,,SKC,0.00,VWS V13.01,2013-03-16 18:51:00,
2013-03-16 14:52:00,35.5,12.4,29.78,WSW,242,5.0,9.0,38,0.00,,SKC,0.00,VWS V13.01,2013-03-16 18:52:00,
2013-03-16 14:53:00,35.5,12.4,29.78,West,273,6.0,9.0,38,0.00,,SKC,0.00,VWS V13.01,2013-03-16 18:53:00,
2013-03-16 14:54:00,34.4,12.0,29.78,West,272,4.0,7.0,39,0.00,,SKC,0.00,VWS V13.01,2013-03-16 18:54:00,
2013-03-16 14:56:00,35.4,12.3,29.78,WSW,256,5.0,9.0,38,0.00,,SKC,0.00,VWS V13.01,2013-03-16 18:56:00,
2013-03-16 14:57:00,35.3,12.2,29.78,WSW,257,1.0,9.0,38,0.00,,SKC,0.00,VWS V13.01,2013-03-16 18:57:00,
2013-03-16 14:58:00,35.4,12.3,29.78,WSW,254,0.0,9.0,38,0.00,,SKC,0.00,VWS V13.01,2013-03-16 18:58:00,
2013-03-16 14:59:00,35.5,12.4,29.78,SSW,198,2.0,9.0,38,0.00,,SKC,0.00,VWS V13.01,2013-03-16 18:59:00,
2013-03-16 15:00:00,35.6,13.1,29.78,SW,226,4.0,9.0,39,0.00,,SKC,0.00,VWS V13.01,2013-03-16 19:00:00,
2013-03-16 15:01:00,35.7,12.6,29.78,SW,226,1.0,4.0,38,0.00,,SKC,0.00,VWS V13.01,2013-03-16 19:01:00,
2013-03-16 15:02:00,35.5,12.4,29.78,WSW,253,6.0,9.0,38,0.00,,SKC,0.00,VWS V13.01,2013-03-16 19:02:00,
2013-03-16 15:03:00,35.9,12.8,29.78,SW,225,2.0,4.0,38,0.00,,SKC,0.00,VWS V13.01,2013-03-16 19:03:00,
2013-03-16 15:04:00,35.9,12.8,29.78,SW,227,2.0,4.0,38,0.00,,SKC,0.00,VWS V13.01,2013-03-16 19:04:00,
2013-03-16 15:06:00,35.8,12.7,29.78,SW,228,2.0,4.0,38,0.00,,SKC,0.00,VWS V13.01,2013-03-16 19:06:00,
2013-03-16 15:07:00,35.3,12.2,29.78,WSW,257,3.0,9.0,38,0.00,,SKC,0.00,VWS V13.01,2013-03-16 19:07:00,
2013-03-16 15:08:00,35.5,11.8,29.78,WSW,252,4.0,6.0,37,0.00,,SKC,0.00,VWS V13.01,2013-03-16 19:08:00,
2013-03-16 15:09:00,35.4,12.3,29.78,West,275,1.0,6.0,38,0.00,,SKC,0.00,VWS V13.01,2013-03-16 19:09:00,
2013-03-16 15:10:00,35.3,12.8,29.78,NW,324,6.0,7.0,39,0.00,,SKC,0.00,VWS V13.01,2013-03-16 19:10:00,
2013-03-16 15:11:00,35.1,12.6,29.78,WNW,302,5.0,7.0,39,0.00,,SKC,0.00,VWS V13.01,2013-03-16 19:11:00,
2013-03-16 15:12:00,35.1,12.6,29.78,WNW,295,0.0,7.0,39,0.00,,SKC,0.00,VWS V13.01,2013-03-16 19:12:00,
2013-03-16 15:13:00,35.9,12.8,29.78,SW,225,2.0,4.0,38,0.00,,SKC,0.00,VWS V13.01,2013-03-16 19:13:00,
2013-03-16 15:14:00,34.9,15.2,29.78,West,263,4.0,10.0,44,0.00,,SKC,0.00,VWS V13.01,2013-03-16 19:14:00,
2013-03-16 15:17:00,34.4,17.2,29.78,West,269,11.0,11.0,49,0.00,,SKC,0.00,VWS V13.01,2013-03-16 19:17:00,
2013-03-16 15:18:00,35.5,11.8,29.78,WSW,250,3.0,6.0,37,0.00,,SKC,0.00,VWS V13.01,2013-03-16 19:18:00,
2013-03-16 15:19:00,34.2,18.0,29.78,WSW,257,3.0,11.0,51,0.00,,SKC,0.00,VWS V13.01,2013-03-16 19:19:00,
2013-03-16 15:20:00,34.1,17.9,29.78,WSW,237,3.0,11.0,51,0.00,,SKC,0.00,VWS V13.01,2013-03-16 19:20:00,
2013-03-16 15:21:00,34.2,18.4,29.78,West,275,2.0,11.0,52,0.00,,SKC,0.00,VWS V13.01,2013-03-16 19:21:00,
2013-03-16 15:22:00,34.3,18.5,29.78,West,275,3.0,11.0,52,0.00,,SKC,0.00,VWS V13.01,2013-03-16 19:22:00,
2013-03-16 15:23:00,34.4,18.6,29.78,WNW,288,5.0,12.0,52,0.00,,SKC,0.00,VWS V13.01,2013-03-16 19:23:00,
2013-03-16 15:24:00,34.4,18.2,29.78,WNW,294,2.0,12.0,51,0.00,,SKC,0.00,VWS V13.01,2013-03-16 19:24:00,
2013-03-16 15:25:00,34.4,17.7,29.78,WSW,240,3.0,12.0,50,0.00,,SKC,0.00,VWS V13.01,2013-03-16 19:25:00,
2013-03-16 15:26:00,34.3,18.5,29.78,SW,229,3.0,12.0,52,0.00,,SKC,0.00,VWS V13.01,2013-03-16 19:26:00,
2013-03-16 15:27:00,34.3,19.0,29.78,WSW,249,4.0,12.0,53,0.00,,SKC,0.00,VWS V13.01,2013-03-16 19:27:00,
2013-03-16 15:28:00,34.4,19.0,29.78,West,277,3.0,12.0,53,0.00,,SKC,0.00,VWS V13.01,2013-03-16 19:28:00,
2013-03-16 15:29:00,34.4,19.5,29.78,WSW,246,6.0,12.0,54,0.00,,SKC,0.00,VWS V13.01,2013-03-16 19:29:00,
2013-03-16 15:30:00,34.4,19.0,29.78,West,273,6.0,12.0,53,0.00,,SKC,0.00,VWS V13.01,2013-03-16 19:30:00,
2013-03-16 15:31:00,34.1,18.3,29.78,WSW,248,3.0,7.0,52,0.00,,SKC,0.00,VWS V13.01,2013-03-16 19:31:00,
2013-03-16 15:32:00,34.0,18.7,29.78,WSW,256,4.0,7.0,53,0.00,,SKC,0.00,VWS V13.01,2013-03-16 19:32:00,
2013-03-16 15:33:00,33.9,19.0,29.78,WSW,257,5.0,12.0,54,0.00,,SKC,0.00,VWS V13.01,2013-03-16 19:33:00,
2013-03-16 15:34:00,33.8,18.5,29.78,SW,225,2.0,12.0,53,0.00,,SKC,0.00,VWS V13.01,2013-03-16 19:34:00,
2013-03-16 15:36:00,33.9,18.6,29.79,West,280,5.0,12.0,53,0.00,,SKC,0.00,VWS V13.01,2013-03-16 19:36:00,
2013-03-16 15:37:00,34.0,18.7,29.79,WSW,250,4.0,12.0,53,0.00,,SKC,0.00,VWS V13.01,2013-03-16 19:37:00,
2013-03-16 15:38:00,34.4,19.0,29.78,West,278,5.0,12.0,53,0.00,,SKC,0.00,VWS V13.01,2013-03-16 19:38:00,
2013-03-16 15:39:00,34.0,18.7,29.79,West,272,4.0,12.0,53,0.00,,SKC,0.00,VWS V13.01,2013-03-16 19:39:00,
2013-03-16 15:40:00,34.0,18.2,29.79,SW,235,8.0,12.0,52,0.00,,SKC,0.00,VWS V13.01,2013-03-16 19:40:00,
2013-03-16 15:41:00,33.9,18.1,29.79,SSW,209,4.0,12.0,52,0.00,,SKC,0.00,VWS V13.01,2013-03-16 19:41:00,
2013-03-16 15:42:00,33.7,18.0,29.79,SW,223,7.0,12.0,52,0.00,,SKC,0.00,VWS V13.01,2013-03-16 19:42:00,
2013-03-16 15:43:00,33.6,18.3,29.79,WNW,283,9.0,12.0,53,0.00,,SKC,0.00,VWS V13.01,2013-03-16 19:43:00,
2013-03-16 15:44:00,33.8,18.5,29.78,SW,225,2.0,12.0,53,0.00,,SKC,0.00,VWS V13.01,2013-03-16 19:44:00,
2013-03-16 15:45:00,33.3,18.9,29.79,WSW,254,5.0,12.0,55,0.00,,SKC,0.00,VWS V13.01,2013-03-16 19:45:00,
2013-03-16 15:46:00,33.1,18.7,29.79,WSW,253,7.0,12.0,55,0.00,,SKC,0.00,VWS V13.01,2013-03-16 19:46:00,
2013-03-16 15:47:00,32.9,18.9,29.79,SW,230,6.0,12.0,56,0.00,,SKC,0.00,VWS V13.01,2013-03-16 19:47:00,
2013-03-16 15:48:00,32.9,19.4,29.79,WSW,240,5.0,12.0,57,0.00,,SKC,0.00,VWS V13.01,2013-03-16 19:48:00,
2013-03-16 15:49:00,34.0,18.7,29.79,West,276,4.0,12.0,53,0.00,,SKC,0.00,VWS V13.01,2013-03-16 19:49:00,
2013-03-16 15:51:00,32.7,19.6,29.79,WSW,238,6.0,12.0,58,0.00,,SKC,0.00,VWS V13.01,2013-03-16 19:51:00,
2013-03-16 15:52:00,32.6,19.1,29.79,West,260,6.0,12.0,57,0.00,,SKC,0.00,VWS V13.01,2013-03-16 19:52:00,
2013-03-16 15:53:00,32.6,19.1,29.79,WSW,248,4.0,12.0,57,0.00,,SKC,0.00,VWS V13.01,2013-03-16 19:53:00,
2013-03-16 15:54:00,33.4,19.0,29.79,West,275,5.0,12.0,55,0.00,,SKC,0.00,VWS V13.01,2013-03-16 19:54:00,
2013-03-16 15:55:00,32.6,19.9,29.79,West,277,5.0,12.0,59,0.00,,SKC,0.00,VWS V13.01,2013-03-16 19:55:00,
2013-03-16 15:56:00,32.7,20.0,29.79,NNW,333,6.0,12.0,59,0.00,,SKC,0.00,VWS V13.01,2013-03-16 19:56:00,
2013-03-16 15:57:00,32.7,20.0,29.79,WSW,249,1.0,12.0,59,0.00,,SKC,0.00,VWS V13.01,2013-03-16 19:57:00,
2013-03-16 15:58:00,32.7,19.6,29.79,WSW,241,11.0,12.0,58,0.00,,SKC,0.00,VWS V13.01,2013-03-16 19:58:00,
2013-03-16 15:59:00,32.8,19.3,29.79,West,265,11.0,12.0,57,0.00,,SKC,0.00,VWS V13.01,2013-03-16 19:59:00,
2013-03-16 16:00:00,32.6,19.1,29.79,WSW,244,6.0,12.0,57,0.00,,SKC,0.00,VWS V13.01,2013-03-16 20:00:00,
2013-03-16 16:01:00,32.6,19.1,29.79,WSW,250,6.0,6.0,57,0.00,,SKC,0.00,VWS V13.01,2013-03-16 20:01:00,
2013-03-16 16:02:00,32.6,19.1,29.79,WSW,244,5.0,9.0,57,0.00,,SKC,0.00,VWS V13.01,2013-03-16 20:02:00,
2013-03-16 16:03:00,32.5,19.0,29.79,SW,227,3.0,9.0,57,0.00,,SKC,0.00,VWS V13.01,2013-03-16 20:03:00,
2013-03-16 16:04:00,32.5,19.4,29.79,SW,227,6.0,11.0,58,0.00,,SKC,0.00,VWS V13.01,2013-03-16 20:04:00,
2013-03-16 16:05:00,32.5,19.4,29.79,WSW,251,2.0,12.0,58,0.00,,SKC,0.00,VWS V13.01,2013-03-16 20:05:00,
2013-03-16 16:06:00,32.6,19.5,29.80,SSW,202,2.0,12.0,58,0.00,,SKC,0.00,VWS V13.01,2013-03-16 20:06:00,
2013-03-16 16:07:00,32.5,19.8,29.80,WSW,248,3.0,12.0,59,0.00,,SKC,0.00,VWS V13.01,2013-03-16 20:07:00,
2013-03-16 16:08:00,32.5,19.8,29.80,West,275,11.0,12.0,59,0.00,,SKC,0.00,VWS V13.01,2013-03-16 20:08:00,
2013-03-16 16:09:00,32.6,19.1,29.79,West,271,5.0,12.0,57,0.00,,SKC,0.00,VWS V13.01,2013-03-16 20:09:00,
2013-03-16 16:10:00,32.5,20.2,29.79,WSW,256,7.0,12.0,60,0.00,,SKC,0.00,VWS V13.01,2013-03-16 20:10:00,
2013-03-16 16:11:00,32.5,20.6,29.80,SW,226,3.0,12.0,61,0.00,,SKC,0.00,VWS V13.01,2013-03-16 20:11:00,
2013-03-16 16:12:00,32.5,20.6,29.80,SW,236,1.0,12.0,61,0.00,,SKC,0.00,VWS V13.01,2013-03-16 20:12:00,
2013-03-16 16:13:00,32.5,20.2,29.80,WSW,252,6.0,12.0,60,0.00,,SKC,0.00,VWS V13.01,2013-03-16 20:13:00,
2013-03-16 16:14:00,32.5,20.2,29.80,West,264,7.0,12.0,60,0.00,,SKC,0.00,VWS V13.01,2013-03-16 20:14:00,
2013-03-16 16:15:00,32.4,20.1,29.79,WNW,288,7.0,12.0,60,0.00,,SKC,0.00,VWS V13.01,2013-03-16 20:15:00,
2013-03-16 16:16:00,32.4,20.5,29.79,WSW,246,4.0,12.0,61,0.00,,SKC,0.00,VWS V13.01,2013-03-16 20:16:00,
2013-03-16 16:17:00,32.4,20.1,29.79,West,266,4.0,12.0,60,0.00,,SKC,0.00,VWS V13.01,2013-03-16 20:17:00,
2013-03-16 16:18:00,32.5,19.8,29.80,West,266,10.0,12.0,59,0.00,,SKC,0.00,VWS V13.01,2013-03-16 20:18:00,
2013-03-16 16:19:00,32.5,20.6,29.79,West,260,5.0,12.0,61,0.00,,SKC,0.00,VWS V13.01,2013-03-16 20:19:00,
2013-03-16 16:20:00,32.5,20.6,29.79,SSW,210,5.0,12.0,61,0.00,,SKC,0.00,VWS V13.01,2013-03-16 20:20:00,
2013-03-16 16:21:00,32.5,20.2,29.79,SW,225,10.0,12.0,60,0.00,,SKC,0.00,VWS V13.01,2013-03-16 20:21:00,
2013-03-16 16:22:00,32.5,20.2,29.79,West,263,5.0,12.0,60,0.00,,SKC,0.00,VWS V13.01,2013-03-16 20:22:00,
2013-03-16 16:23:00,32.5,20.2,29.80,WSW,252,6.0,12.0,60,0.00,,SKC,0.00,VWS V13.01,2013-03-16 20:23:00,
2013-03-16 16:24:00,32.4,20.1,29.79,West,259,5.0,12.0,60,0.00,,SKC,0.00,VWS V13.01,2013-03-16 20:24:00,
2013-03-16 16:26:00,32.4,20.1,29.79,WSW,244,1.0,12.0,60,0.00,,SKC,0.00,VWS V13.01,2013-03-16 20:26:00,
2013-03-16 16:27:00,32.4,20.5,29.79,WSW,248,2.0,12.0,61,0.00,,SKC,0.00,VWS V13.01,2013-03-16 20:27:00,
2013-03-16 16:28:00,32.4,20.5,29.79,West,269,13.0,13.0,61,0.00,,SKC,0.00,VWS V13.01,2013-03-16 20:28:00,
2013-03-16 16:29:00,32.4,20.1,29.79,SSE,156,3.0,13.0,60,0.00,,SKC,0.00,VWS V13.01,2013-03-16 20:29:00,
2013-03-16 16:30:00,32.4,20.1,29.79,WSW,256,5.0,13.0,60,0.00,,SKC,0.00,VWS V13.01,2013-03-16 20:30:00,
2013-03-16 16:31:00,32.5,20.2,29.79,WSW,256,4.0,5.0,60,0.00,,SKC,0.00,VWS V13.01,2013-03-16 20:31:00,
2013-03-16 16:32:00,32.5,20.2,29.79,West,274,5.0,9.0,60,0.00,,SKC,0.00,VWS V13.01,2013-03-16 20:32:00,
2013-03-16 16:33:00,32.5,20.6,29.79,WSW,256,6.0,10.0,61,0.00,,SKC,0.00,VWS V13.01,2013-03-16 20:33:00,
2013-03-16 16:34:00,32.5,20.6,29.79,WSW,244,6.0,10.0,61,0.00,,SKC,0.00,VWS V13.01,2013-03-16 20:34:00,
2013-03-16 16:35:00,32.5,20.6,29.79,West,266,3.0,10.0,61,0.00,,SKC,0.00,VWS V13.01,2013-03-16 20:35:00,
2013-03-16 16:36:00,32.5,20.6,29.79,West,261,2.0,10.0,61,0.00,,SKC,0.00,VWS V13.01,2013-03-16 20:36:00,
2013-03-16 16:37:00,32.4,20.5,29.79,WSW,248,3.0,12.0,61,0.00,,SKC,0.00,VWS V13.01,2013-03-16 20:37:00,
2013-03-16 16:38:00,32.5,20.2,29.79,SSW,194,3.0,10.0,60,0.00,,SKC,0.00,VWS V13.01,2013-03-16 20:38:00,
2013-03-16 16:39:00,32.5,20.2,29.79,SW,234,3.0,10.0,60,0.00,,SKC,0.00,VWS V13.01,2013-03-16 20:39:00,
2013-03-16 16:40:00,32.5,20.2,29.79,WSW,257,2.0,10.0,60,0.00,,SKC,0.00,VWS V13.01,2013-03-16 20:40:00,
2013-03-16 16:41:00,32.5,20.6,29.79,WSW,257,5.0,10.0,61,0.00,,SKC,0.00,VWS V13.01,2013-03-16 20:41:00,
2013-03-16 16:42:00,32.5,20.6,29.79,SW,215,6.0,10.0,61,0.00,,SKC,0.00,VWS V13.01,2013-03-16 20:42:00,
2013-03-16 16:43:00,32.5,20.2,29.79,West,264,5.0,10.0,60,0.00,,SKC,0.00,VWS V13.01,2013-03-16 20:43:00,
2013-03-16 16:44:00,32.5,20.6,29.79,West,264,3.0,10.0,61,0.00,,SKC,0.00,VWS V13.01,2013-03-16 20:44:00,
2013-03-16 16:45:00,32.5,20.6,29.78,WSW,246,6.0,10.0,61,0.00,,SKC,0.00,VWS V13.01,2013-03-16 20:45:00,
2013-03-16 16:46:00,32.6,20.7,29.78,WSW,241,2.0,10.0,61,0.00,,SKC,0.00,VWS V13.01,2013-03-16 20:46:00,
2013-03-16 16:47:00,32.6,20.7,29.78,SSW,192,4.0,10.0,61,0.00,,SKC,0.00,VWS V13.01,2013-03-16 20:47:00,
2013-03-16 16:48:00,32.6,20.7,29.78,SW,234,5.0,10.0,61,0.00,,SKC,0.00,VWS V13.01,2013-03-16 20:48:00,
2013-03-16 16:49:00,32.6,20.7,29.78,West,267,5.0,10.0,61,0.00,,SKC,0.00,VWS V13.01,2013-03-16 20:49:00,
2013-03-16 16:50:00,32.6,21.0,29.78,West,263,4.0,10.0,62,0.00,,SKC,0.00,VWS V13.01,2013-03-16 20:50:00,
2013-03-16 16:51:00,32.7,21.1,29.78,SSW,210,2.0,10.0,62,0.00,,SKC,0.00,VWS V13.01,2013-03-16 20:51:00,
2013-03-16 16:52:00,32.5,20.6,29.79,SW,223,5.0,10.0,61,0.00,,SKC,0.00,VWS V13.01,2013-03-16 20:52:00,
2013-03-16 16:53:00,32.8,20.9,29.78,WSW,256,3.0,10.0,61,0.00,,SKC,0.00,VWS V13.01,2013-03-16 20:53:00,
2013-03-16 16:54:00,32.9,21.3,29.78,WSW,246,2.0,10.0,62,0.00,,SKC,0.00,VWS V13.01,2013-03-16 20:54:00,
2013-03-16 16:57:00,33.0,21.0,29.78,SW,214,0.0,10.0,61,0.00,,SKC,0.00,VWS V13.01,2013-03-16 20:57:00,
2013-03-16 16:58:00,33.0,20.6,29.78,West,264,6.0,10.0,60,0.00,,SKC,0.00,VWS V13.01,2013-03-16 20:58:00,
2013-03-16 16:59:00,33.0,20.6,29.78,West,263,4.0,10.0,60,0.00,,SKC,0.00,VWS V13.01,2013-03-16 20:59:00,
2013-03-16 17:00:00,33.0,20.6,29.78,West,263,2.0,10.0,60,0.00,,SKC,0.00,VWS V13.01,2013-03-16 21:00:00,
2013-03-16 17:01:00,33.0,20.6,29.78,South,178,4.0,4.0,60,0.00,,SKC,0.00,VWS V13.01,2013-03-16 21:01:00,
2013-03-16 17:02:00,33.0,20.6,29.78,South,182,3.0,4.0,60,0.00,,SKC,0.00,VWS V13.01,2013-03-16 21:02:00,
2013-03-16 17:03:00,33.0,20.6,29.78,WSW,237,1.0,5.0,60,0.00,,SKC,0.00,VWS V13.01,2013-03-16 21:03:00,
2013-03-16 17:04:00,33.1,20.7,29.78,WSW,245,5.0,5.0,60,0.00,,SKC,0.00,VWS V13.01,2013-03-16 21:04:00,
2013-03-16 17:05:00,33.1,20.7,29.78,WSW,237,4.0,7.0,60,0.00,,SKC,0.00,VWS V13.01,2013-03-16 21:05:00,
2013-03-16 17:06:00,33.1,20.7,29.78,SW,223,5.0,7.0,60,0.00,,SKC,0.00,VWS V13.01,2013-03-16 21:06:00,
2013-03-16 17:07:00,33.1,20.7,29.78,SW,225,2.0,7.0,60,0.00,,SKC,0.00,VWS V13.01,2013-03-16 21:07:00,
2013-03-16 17:08:00,33.0,20.6,29.78,West,264,6.0,10.0,60,0.00,,SKC,0.00,VWS V13.01,2013-03-16 21:08:00,
2013-03-16 17:09:00,33.2,20.8,29.78,SW,222,2.0,7.0,60,0.00,,SKC,0.00,VWS V13.01,2013-03-16 21:09:00,
2013-03-16 17:10:00,33.3,20.9,29.78,WSW,247,6.0,7.0,60,0.00,,SKC,0.00,VWS V13.01,2013-03-16 21:10:00,
2013-03-16 17:11:00,33.4,20.6,29.78,West,265,9.0,9.0,59,0.00,,SKC,0.00,VWS V13.01,2013-03-16 21:11:00,
2013-03-16 17:12:00,33.4,19.8,29.78,West,276,6.0,10.0,57,0.00,,SKC,0.00,VWS V13.01,2013-03-16 21:12:00,
2013-03-16 17:13:00,33.0,20.6,29.78,WSW,237,1.0,5.0,60,0.00,,SKC,0.00,VWS V13.01,2013-03-16 21:13:00,
2013-03-16 17:14:00,33.6,20.4,29.78,West,278,0.0,10.0,58,0.00,,SKC,0.00,VWS V13.01,2013-03-16 21:14:00,
2013-03-16 17:15:00,33.7,20.5,29.78,West,267,4.0,10.0,58,0.00,,SKC,0.00,VWS V13.01,2013-03-16 21:15:00,
2013-03-16 17:16:00,33.9,19.9,29.78,South,180,4.0,10.0,56,0.00,,SKC,0.00,VWS V13.01,2013-03-16 21:16:00,
2013-03-16 17:17:00,33.9,19.9,29.78,West,261,3.0,10.0,56,0.00,,SKC,0.00,VWS V13.01,2013-03-16 21:17:00,
2013-03-16 17:18:00,34.1,20.1,29.78,West,259,6.0,10.0,56,0.00,,SKC,0.00,VWS V13.01,2013-03-16 21:18:00,
2013-03-16 17:19:00,34.2,20.1,29.78,WSW,254,0.0,10.0,56,0.00,,SKC,0.00,VWS V13.01,2013-03-16 21:19:00,
2013-03-16 17:20:00,34.3,20.2,29.78,SW,234,4.0,10.0,56,0.00,,SKC,0.00,VWS V13.01,2013-03-16 21:20:00,
2013-03-16 17:21:00,34.4,20.3,29.78,WSW,248,6.0,10.0,56,0.00,,SKC,0.00,VWS V13.01,2013-03-16 21:21:00,
2013-03-16 17:22:00,33.4,19.8,29.78,West,271,6.0,10.0,57,0.00,,SKC,0.00,VWS V13.01,2013-03-16 21:22:00,
2013-03-16 17:23:00,34.4,20.3,29.78,West,271,1.0,10.0,56,0.00,,SKC,0.00,VWS V13.01,2013-03-16 21:23:00,
2013-03-16 17:24:00,34.4,20.8,29.78,West,269,3.0,10.0,57,0.00,,SKC,0.00,VWS V13.01,2013-03-16 21:24:00,
2013-03-16 17:25:00,34.4,20.8,29.78,West,273,2.0,10.0,57,0.00,,SKC,0.00,VWS V13.01,2013-03-16 21:25:00,
2013-03-16 17:26:00,34.4,20.3,29.78,West,273,2.0,10.0,56,0.00,,SKC,0.00,VWS V13.01,2013-03-16 21:26:00,
2013-03-16 17:27:00,34.4,20.3,29.78,SSW,192,4.0,10.0,56,0.00,,SKC,0.00,VWS V13.01,2013-03-16 21:27:00,
2013-03-16 17:28:00,34.1,20.1,29.78,West,259,6.0,10.0,56,0.00,,SKC,0.00,VWS V13.01,2013-03-16 21:28:00,
2013-03-16 17:29:00,34.4,20.8,29.78,West,271,1.0,10.0,57,0.00,,SKC,0.00,VWS V13.01,2013-03-16 21:29:00,
2013-03-16 17:31:00,34.4,19.9,29.78,SSW,202,1.0,5.0,55,0.00,,SKC,0.00,VWS V13.01,2013-03-16 21:31:00,
2013-03-16 17:32:00,34.3,19.8,29.78,SSW,202,3.0,5.0,55,0.00,,SKC,0.00,VWS V13.01,2013-03-16 21:32:00,
2013-03-16 17:33:00,34.1,19.6,29.77,SSW,207,2.0,5.0,55,0.00,,SKC,0.00,VWS V13.01,2013-03-16 21:33:00,
2013-03-16 17:34:00,34.1,19.6,29.77,SSW,207,1.0,5.0,55,0.00,,SKC,0.00,VWS V13.01,2013-03-16 21:34:00,
2013-03-16 17:36:00,34.1,20.1,29.77,SSW,211,2.0,5.0,56,0.00,,SKC,0.00,VWS V13.01,2013-03-16 21:36:00,
2013-03-16 17:37:00,34.2,20.6,29.77,SSW,211,0.0,5.0,57,0.00,,SKC,0.00,VWS V13.01,2013-03-16 21:37:00,
2013-03-16 17:38:00,34.4,20.3,29.78,West,271,5.0,10.0,56,0.00,,SKC,0.00,VWS V13.01,2013-03-16 21:38:00,
2013-03-16 17:39:00,34.4,20.3,29.77,SSW,211,0.0,5.0,56,0.00,,SKC,0.00,VWS V13.01,2013-03-16 21:39:00,
2013-03-16 17:40:00,34.4,19.5,29.77,SSW,211,3.0,5.0,54,0.00,,SKC,0.00,VWS V13.01,2013-03-16 21:40:00,
2013-03-16 17:41:00,34.4,19.5,29.77,SSE,153,1.0,5.0,54,0.00,,SKC,0.00,VWS V13.01,2013-03-16 21:41:00,
2013-03-16 17:42:00,34.4,19.0,29.77,SSE,161,3.0,5.0,53,0.00,,SKC,0.00,VWS V13.01,2013-03-16 21:42:00,
2013-03-16 17:43:00,34.2,18.9,29.77,South,171,3.0,5.0,53,0.00,,SKC,0.00,VWS V13.01,2013-03-16 21:43:00,
2013-03-16 17:44:00,34.2,18.9,29.77,SSW,205,1.0,5.0,53,0.00,,SKC,0.00,VWS V13.01,2013-03-16 21:44:00,
2013-03-16 17:46:00,34.2,18.9,29.77,SSW,205,2.0,5.0,53,0.00,,SKC,0.00,VWS V13.01,2013-03-16 21:46:00,
2013-03-16 17:47:00,34.1,19.2,29.77,SSW,205,0.0,5.0,54,0.00,,SKC,0.00,VWS V13.01,2013-03-16 21:47:00,
2013-03-16 17:48:00,34.1,18.8,29.77,SSW,205,2.0,5.0,53,0.00,,SKC,0.00,VWS V13.01,2013-03-16 21:48:00,
2013-03-16 17:49:00,34.1,18.3,29.77,SSW,205,1.0,5.0,52,0.00,,SKC,0.00,VWS V13.01,2013-03-16 21:49:00,
2013-03-16 17:51:00,33.9,17.7,29.77,SSW,205,0.0,5.0,51,0.00,,SKC,0.00,VWS V13.01,2013-03-16 21:51:00,
2013-03-16 17:52:00,33.8,17.1,29.77,SSW,202,1.0,5.0,50,0.00,,SKC,0.00,VWS V13.01,2013-03-16 21:52:00,
2013-03-16 17:53:00,33.8,17.1,29.77,SSW,206,3.0,5.0,50,0.00,,SKC,0.00,VWS V13.01,2013-03-16 21:53:00,
2013-03-16 17:54:00,33.7,16.6,29.77,South,182,2.0,5.0,49,0.00,,SKC,0.00,VWS V13.01,2013-03-16 21:54:00,
2013-03-16 17:56:00,33.5,16.4,29.77,South,183,1.0,5.0,49,0.00,,SKC,0.00,VWS V13.01,2013-03-16 21:56:00,
2013-03-16 17:57:00,33.5,16.4,29.77,South,183,0.0,5.0,49,0.00,,SKC,0.00,VWS V13.01,2013-03-16 21:57:00,
2013-03-16 17:58:00,33.5,16.4,29.77,South,184,0.0,5.0,49,0.00,,SKC,0.00,VWS V13.01,2013-03-16 21:58:00,
2013-03-16 17:59:00,33.5,16.4,29.77,South,183,0.0,5.0,49,0.00,,SKC,0.00,VWS V13.01,2013-03-16 21:59:00,
2013-03-16 18:00:00,34.0,17.8,29.77,SSW,205,2.0,5.0,51,0.00,,SKC,0.00,VWS V13.01,2013-03-16 22:00:00,
2013-03-16 18:01:00,33.4,16.8,29.77,South,184,1.0,1.0,50,0.00,,SKC,0.00,VWS V13.01,2013-03-16 22:01:00,
2013-03-16 18:02:00,33.5,16.4,29.77,South,184,3.0,3.0,49,0.00,,SKC,0.00,VWS V13.01,2013-03-16 22:02:00,
2013-03-16 18:03:00,33.5,15.9,29.77,South,184,1.0,3.0,48,0.00,,SKC,0.00,VWS V13.01,2013-03-16 22:03:00,
2013-03-16 18:04:00,33.5,15.9,29.77,South,183,2.0,3.0,48,0.00,,SKC,0.00,VWS V13.01,2013-03-16 22:04:00,
2013-03-16 18:05:00,33.4,15.4,29.77,South,183,0.0,3.0,47,0.00,,SKC,0.00,VWS V13.01,2013-03-16 22:05:00,
2013-03-16 18:06:00,33.4,15.4,29.77,South,183,0.0,3.0,47,0.00,,SKC,0.00,VWS V13.01,2013-03-16 22:06:00,
2013-03-16 18:07:00,33.4,15.4,29.77,South,184,0.0,3.0,47,0.00,,SKC,0.00,VWS V13.01,2013-03-16 22:07:00,
2013-03-16 18:08:00,33.5,16.4,29.77,South,183,0.0,5.0,49,0.00,,SKC,0.00,VWS V13.01,2013-03-16 22:08:00,
2013-03-16 18:09:00,33.4,15.8,29.78,South,184,0.0,3.0,48,0.00,,SKC,0.00,VWS V13.01,2013-03-16 22:09:00,
2013-03-16 18:11:00,33.4,19.0,29.78,South,184,0.0,3.0,55,0.00,,SKC,0.00,VWS V13.01,2013-03-16 22:11:00,
2013-03-16 18:12:00,33.4,19.0,29.78,South,183,0.0,3.0,55,0.00,,SKC,0.00,VWS V13.01,2013-03-16 22:12:00,
2013-03-16 18:13:00,33.3,19.3,29.78,South,183,0.0,3.0,56,0.00,,SKC,0.00,VWS V13.01,2013-03-16 22:13:00,
2013-03-16 18:14:00,33.2,19.2,29.78,South,184,0.0,3.0,56,0.00,,SKC,0.00,VWS V13.01,2013-03-16 22:14:00,
2013-03-16 18:15:00,33.1,19.1,29.78,South,184,0.0,3.0,56,0.00,,SKC,0.00,VWS V13.01,2013-03-16 22:15:00,
2013-03-16 18:16:00,32.9,19.4,29.78,South,184,0.0,3.0,57,0.00,,SKC,0.00,VWS V13.01,2013-03-16 22:16:00,
2013-03-16 18:17:00,32.8,20.1,29.78,South,183,0.0,3.0,59,0.00,,SKC,0.00,VWS V13.01,2013-03-16 22:17:00,
2013-03-16 18:18:00,32.6,19.5,29.78,South,184,0.0,3.0,58,0.00,,SKC,0.00,VWS V13.01,2013-03-16 22:18:00,
2013-03-16 18:19:00,32.5,19.4,29.78,South,183,0.0,3.0,58,0.00,,SKC,0.00,VWS V13.01,2013-03-16 22:19:00,
2013-03-16 18:20:00,32.5,19.8,29.78,South,184,0.0,3.0,59,0.00,,SKC,0.00,VWS V13.01,2013-03-16 22:20:00,
2013-03-16 18:21:00,32.3,18.8,29.78,South,184,0.0,3.0,57,0.00,,SKC,0.00,VWS V13.01,2013-03-16 22:21:00,
2013-03-16 18:22:00,32.2,19.1,29.78,South,183,0.0,3.0,58,0.00,,SKC,0.00,VWS V13.01,2013-03-16 22:22:00,
2013-03-16 18:23:00,32.1,18.6,29.78,South,184,0.0,3.0,57,0.00,,SKC,0.00,VWS V13.01,2013-03-16 22:23:00,
2013-03-16 18:24:00,32.0,18.1,29.78,South,184,0.0,3.0,56,0.00,,SKC,0.00,VWS V13.01,2013-03-16 22:24:00,
2013-03-16 18:25:00,31.9,18.8,29.78,South,184,0.0,3.0,58,0.00,,SKC,0.00,VWS V13.01,2013-03-16 22:25:00,
2013-03-16 18:26:00,31.7,18.2,29.78,South,184,0.0,3.0,57,0.00,,SKC,0.00,VWS V13.01,2013-03-16 22:26:00,
2013-03-16 18:27:00,31.7,17.8,29.78,South,183,0.0,3.0,56,0.00,,SKC,0.00,VWS V13.01,2013-03-16 22:27:00,
2013-03-16 18:28:00,32.6,19.5,29.78,South,183,0.0,3.0,58,0.00,,SKC,0.00,VWS V13.01,2013-03-16 22:28:00,
2013-03-16 18:29:00,31.5,17.6,29.79,South,184,0.0,3.0,56,0.00,,SKC,0.00,VWS V13.01,2013-03-16 22:29:00,
2013-03-16 18:30:00,31.4,17.9,29.78,South,184,0.0,3.0,57,0.00,,SKC,0.00,VWS V13.01,2013-03-16 22:30:00,
2013-03-16 18:31:00,31.2,18.2,29.79,South,184,0.0,0.0,58,0.00,,SKC,0.00,VWS V13.01,2013-03-16 22:31:00,
2013-03-16 18:32:00,31.2,18.2,29.79,South,183,0.0,0.0,58,0.00,,SKC,0.00,VWS V13.01,2013-03-16 22:32:00,
2013-03-16 18:33:00,31.1,18.5,29.79,South,183,0.0,0.0,59,0.00,,SKC,0.00,VWS V13.01,2013-03-16 22:33:00,
2013-03-16 18:34:00,32.0,18.1,29.79,South,184,0.0,3.0,56,0.00,,SKC,0.00,VWS V13.01,2013-03-16 22:34:00,
2013-03-16 18:36:00,30.8,18.6,29.79,South,183,0.0,0.0,60,0.00,,SKC,0.00,VWS V13.01,2013-03-16 22:36:00,
2013-03-16 18:37:00,30.8,19.0,29.79,South,184,0.0,0.0,61,0.00,,SKC,0.00,VWS V13.01,2013-03-16 22:37:00,
2013-03-16 18:38:00,30.7,19.2,29.79,South,184,0.0,0.0,62,0.00,,SKC,0.00,VWS V13.01,2013-03-16 22:38:00,
2013-03-16 18:39:00,30.6,19.1,29.79,South,184,0.0,0.0,62,0.00,,SKC,0.00,VWS V13.01,2013-03-16 22:39:00,
2013-03-16 18:40:00,30.5,19.0,29.79,South,183,0.0,0.0,62,0.00,,SKC,0.00,VWS V13.01,2013-03-16 22:40:00,
2013-03-16 18:41:00,30.4,19.0,29.79,South,184,0.0,0.0,62,0.00,,SKC,0.00,VWS V13.01,2013-03-16 22:41:00,
2013-03-16 18:42:00,30.3,18.9,29.79,South,184,0.0,0.0,62,0.00,,SKC,0.00,VWS V13.01,2013-03-16 22:42:00,
2013-03-16 18:43:00,30.3,18.9,29.79,South,184,0.0,0.0,62,0.00,,SKC,0.00,VWS V13.01,2013-03-16 22:43:00,
2013-03-16 18:44:00,30.2,18.8,29.79,South,184,0.0,0.0,62,0.00,,SKC,0.00,VWS V13.01,2013-03-16 22:44:00,
2013-03-16 18:45:00,30.9,18.7,29.79,South,184,0.0,0.0,60,0.00,,SKC,0.00,VWS V13.01,2013-03-16 22:45:00,
2013-03-16 18:46:00,30.1,19.0,29.80,South,184,3.0,3.0,63,0.00,,SKC,0.00,VWS V13.01,2013-03-16 22:46:00,
2013-03-16 18:47:00,30.0,18.2,29.80,South,184,0.0,3.0,61,0.00,,SKC,0.00,VWS V13.01,2013-03-16 22:47:00,
2013-03-16 18:48:00,30.1,17.9,29.80,South,183,0.0,3.0,60,0.00,,SKC,0.00,VWS V13.01,2013-03-16 22:48:00,
2013-03-16 18:49:00,30.1,17.9,29.80,South,184,0.0,3.0,60,0.00,,SKC,0.00,VWS V13.01,2013-03-16 22:49:00,
2013-03-16 18:50:00,30.1,18.3,29.80,South,183,0.0,3.0,61,0.00,,SKC,0.00,VWS V13.01,2013-03-16 22:50:00,
2013-03-16 18:51:00,30.1,18.3,29.80,South,184,1.0,3.0,61,0.00,,SKC,0.00,VWS V13.01,2013-03-16 22:51:00,
2013-03-16 18:52:00,30.1,17.9,29.80,SE,129,2.0,3.0,60,0.00,,SKC,0.00,VWS V13.01,2013-03-16 22:52:00,
2013-03-16 18:53:00,30.1,17.5,29.80,North,349,1.0,5.0,59,0.00,,SKC,0.00,VWS V13.01,2013-03-16 22:53:00,
2013-03-16 18:54:00,30.2,17.6,29.80,North,355,9.0,9.0,59,0.00,,SKC,0.00,VWS V13.01,2013-03-16 22:54:00,
2013-03-16 18:55:00,30.2,16.8,29.80,NNE,29,4.0,10.0,57,0.00,,SKC,0.00,VWS V13.01,2013-03-16 22:55:00,
2013-03-16 18:56:00,30.3,16.5,29.80,NE,50,2.0,10.0,56,0.00,,SKC,0.00,VWS V13.01,2013-03-16 22:56:00,
2013-03-16 18:57:00,30.0,18.2,29.80,South,184,0.0,3.0,61,0.00,,SKC,0.00,VWS V13.01,2013-03-16 22:57:00,
2013-03-16 18:58:00,30.5,16.7,29.81,NE,52,2.0,10.0,56,0.00,,SKC,0.00,VWS V13.01,2013-03-16 22:58:00,
2013-03-16 18:59:00,30.5,16.7,29.81,NE,48,4.0,10.0,56,0.00,,SKC,0.00,VWS V13.01,2013-03-16 22:59:00,
2013-03-16 19:00:00,30.5,15.9,29.81,NNE,28,2.0,10.0,54,0.00,,SKC,0.00,VWS V13.01,2013-03-16 23:00:00,
2013-03-16 19:01:00,30.5,15.4,29.81,NNE,33,0.0,3.0,53,0.00,,SKC,0.00,VWS V13.01,2013-03-16 23:01:00,
2013-03-16 19:02:00,30.5,15.4,29.81,ENE,57,1.0,5.0,53,0.00,,SKC,0.00,VWS V13.01,2013-03-16 23:02:00,
2013-03-16 19:03:00,30.5,15.4,29.81,NE,51,3.0,6.0,53,0.00,,SKC,0.00,VWS V13.01,2013-03-16 23:03:00,
2013-03-16 19:04:00,30.2,17.6,29.80,North,351,2.0,5.0,59,0.00,,SKC,0.00,VWS V13.01,2013-03-16 23:04:00,
2013-03-16 19:05:00,30.5,15.4,29.81,NNE,13,3.0,6.0,53,0.00,,SKC,0.00,VWS V13.01,2013-03-16 23:05:00,
2013-03-16 19:06:00,30.5,14.5,29.81,NNE,22,3.0,6.0,51,0.00,,SKC,0.00,VWS V13.01,2013-03-16 23:06:00,
2013-03-16 19:07:00,30.4,14.4,29.82,NNE,22,1.0,6.0,51,0.00,,SKC,0.00,VWS V13.01,2013-03-16 23:07:00,
2013-03-16 19:08:00,30.4,14.4,29.82,NE,38,4.0,6.0,51,0.00,,SKC,0.00,VWS V13.01,2013-03-16 23:08:00,
2013-03-16 19:09:00,30.5,16.7,29.81,NE,48,3.0,10.0,56,0.00,,SKC,0.00,VWS V13.01,2013-03-16 23:09:00,
2013-03-16 19:10:00,30.3,13.9,29.82,NE,42,6.0,6.0,50,0.00,,SKC,0.00,VWS V13.01,2013-03-16 23:10:00,
2013-03-16 19:11:00,30.3,13.4,29.82,NE,48,3.0,6.0,49,0.00,,SKC,0.00,VWS V13.01,2013-03-16 23:11:00,
2013-03-16 19:12:00,30.2,13.4,29.82,NE,48,0.0,6.0,49,0.00,,SKC,0.00,VWS V13.01,2013-03-16 23:12:00,
2013-03-16 19:13:00,30.2,13.8,29.82,NE,48,1.0,6.0,50,0.00,,SKC,0.00,VWS V13.01,2013-03-16 23:13:00,
2013-03-16 19:14:00,30.2,13.8,29.82,NE,48,4.0,6.0,50,0.00,,SKC,0.00,VWS V13.01,2013-03-16 23:14:00,
2013-03-16 19:16:00,30.1,13.7,29.82,NE,37,4.0,6.0,50,0.00,,SKC,0.00,VWS V13.01,2013-03-16 23:16:00,
2013-03-16 19:17:00,30.0,13.6,29.82,NE,37,2.0,6.0,50,0.00,,SKC,0.00,VWS V13.01,2013-03-16 23:17:00,
2013-03-16 19:18:00,30.0,13.6,29.82,NE,37,1.0,6.0,50,0.00,,SKC,0.00,VWS V13.01,2013-03-16 23:18:00,
2013-03-16 19:19:00,29.9,13.1,29.82,NE,52,3.0,6.0,49,0.00,,SKC,0.00,VWS V13.01,2013-03-16 23:19:00,
2013-03-16 19:21:00,29.9,13.1,29.82,NE,46,4.0,6.0,49,0.00,,SKC,0.00,VWS V13.01,2013-03-16 23:21:00,
2013-03-16 19:22:00,30.3,13.4,29.82,NE,49,1.0,6.0,49,0.00,,SKC,0.00,VWS V13.01,2013-03-16 23:22:00,
2013-03-16 19:23:00,29.8,12.5,29.82,ENE,58,5.0,6.0,48,0.00,,SKC,0.00,VWS V13.01,2013-03-16 23:23:00,
2013-03-16 19:24:00,29.8,12.5,29.82,NE,55,1.0,6.0,48,0.00,,SKC,0.00,VWS V13.01,2013-03-16 23:24:00,
2013-03-16 19:26:00,29.8,13.0,29.82,NE,51,2.0,6.0,49,0.00,,SKC,0.00,VWS V13.01,2013-03-16 23:26:00,
2013-03-16 19:27:00,29.8,13.0,29.82,NE,51,0.0,6.0,49,0.00,,SKC,0.00,VWS V13.01,2013-03-16 23:27:00,
2013-03-16 19:28:00,29.8,13.0,29.82,NE,51,3.0,6.0,49,0.00,,SKC,0.00,VWS V13.01,2013-03-16 23:28:00,
2013-03-16 19:29:00,29.8,13.0,29.82,NE,47,4.0,6.0,49,0.00,,SKC,0.00,VWS V13.01,2013-03-16 23:29:00,
2013-03-16 19:30:00,29.8,13.0,29.82,NE,36,3.0,6.0,49,0.00,,SKC,0.00,VWS V13.01,2013-03-16 23:30:00,
2013-03-16 19:31:00,29.7,12.4,29.83,NE,37,1.0,3.0,48,0.00,,SKC,0.00,VWS V13.01,2013-03-16 23:31:00,
2013-03-16 19:32:00,29.7,12.4,29.83,NE,37,0.0,3.0,48,0.00,,SKC,0.00,VWS V13.01,2013-03-16 23:32:00,
2013-03-16 19:33:00,29.8,12.5,29.83,NE,37,2.0,4.0,48,0.00,,SKC,0.00,VWS V13.01,2013-03-16 23:33:00,
2013-03-16 19:34:00,29.7,12.9,29.83,NE,37,1.0,4.0,49,0.00,,SKC,0.00,VWS V13.01,2013-03-16 23:34:00,
2013-03-16 19:35:00,29.7,12.9,29.83,NE,37,0.0,4.0,49,0.00,,SKC,0.00,VWS V13.01,2013-03-16 23:35:00,
2013-03-16 19:36:00,29.7,12.4,29.83,NNE,33,2.0,4.0,48,0.00,,SKC,0.00,VWS V13.01,2013-03-16 23:36:00,
2013-03-16 19:37:00,29.7,12.4,29.83,NE,34,1.0,4.0,48,0.00,,SKC,0.00,VWS V13.01,2013-03-16 23:37:00,
2013-03-16 19:38:00,29.7,12.4,29.83,NE,34,4.0,4.0,48,0.00,,SKC,0.00,VWS V13.01,2013-03-16 23:38:00,
2013-03-16 19:39:00,29.7,12.4,29.83,NE,49,5.0,5.0,48,0.00,,SKC,0.00,VWS V13.01,2013-03-16 23:39:00,
2013-03-16 19:40:00,29.7,12.4,29.83,NE,49,1.0,5.0,48,0.00,,SKC,0.00,VWS V13.01,2013-03-16 23:40:00,
2013-03-16 19:41:00,29.7,12.9,29.83,NE,49,1.0,5.0,49,0.00,,SKC,0.00,VWS V13.01,2013-03-16 23:41:00,
2013-03-16 19:42:00,29.7,12.9,29.83,NE,42,3.0,5.0,49,0.00,,SKC,0.00,VWS V13.01,2013-03-16 23:42:00,
2013-03-16 19:43:00,29.7,12.4,29.83,NE,37,2.0,4.0,48,0.00,,SKC,0.00,VWS V13.01,2013-03-16 23:43:00,
2013-03-16 19:44:00,29.7,12.9,29.83,NE,42,2.0,5.0,49,0.00,,SKC,0.00,VWS V13.01,2013-03-16 23:44:00,
2013-03-16 19:45:00,29.7,12.9,29.83,NE,42,3.0,5.0,49,0.00,,SKC,0.00,VWS V13.01,2013-03-16 23:45:00,
2013-03-16 19:46:00,29.7,12.9,29.83,NE,42,1.0,5.0,49,0.00,,SKC,0.00,VWS V13.01,2013-03-16 23:46:00,
2013-03-16 19:47:00,29.7,12.9,29.83,NE,42,2.0,5.0,49,0.00,,SKC,0.00,VWS V13.01,2013-03-16 23:47:00,
2013-03-16 19:48:00,29.7,12.4,29.83,NE,42,2.0,5.0,48,0.00,,SKC,0.00,VWS V13.01,2013-03-16 23:48:00,
2013-03-16 19:49:00,29.7,12.4,29.83,NE,36,3.0,5.0,48,0.00,,SKC,0.00,VWS V13.01,2013-03-16 23:49:00,
2013-03-16 19:50:00,29.7,12.4,29.83,ENE,68,0.0,7.0,48,0.00,,SKC,0.00,VWS V13.01,2013-03-16 23:50:00,
2013-03-16 19:51:00,29.7,12.4,29.83,ENE,65,0.0,7.0,48,0.00,,SKC,0.00,VWS V13.01,2013-03-16 23:51:00,
2013-03-16 19:52:00,29.7,12.9,29.83,ENE,64,1.0,7.0,49,0.00,,SKC,0.00,VWS V13.01,2013-03-16 23:52:00,
2013-03-16 19:53:00,29.7,12.9,29.83,ENE,64,0.0,7.0,49,0.00,,SKC,0.00,VWS V13.01,2013-03-16 23:53:00,
2013-03-16 19:54:00,29.7,13.4,29.83,ENE,63,2.0,7.0,50,0.00,,SKC,0.00,VWS V13.01,2013-03-16 23:54:00,
2013-03-16 19:56:00,29.6,13.3,29.83,ENE,62,2.0,7.0,50,0.00,,SKC,0.00,VWS V13.01,2013-03-16 23:56:00,
2013-03-16 19:57:00,29.6,13.3,29.83,ENE,61,0.0,7.0,50,0.00,,SKC,0.00,VWS V13.01,2013-03-16 23:57:00,
2013-03-16 19:58:00,29.6,13.3,29.83,ENE,62,2.0,7.0,50,0.00,,SKC,0.00,VWS V13.01,2013-03-16 23:58:00,
2013-03-16 19:59:00,29.6,12.8,29.83,ENE,59,2.0,7.0,49,0.00,,SKC,0.00,VWS V13.01,2013-03-16 23:59:00,
2013-03-16 20:00:00,29.6,12.8,29.83,ENE,59,1.0,7.0,49,0.00,,SKC,0.00,VWS V13.01,2013-03-17 00:00:00,
2013-03-16 20:01:00,29.6,12.8,29.83,ENE,57,4.0,4.0,49,0.00,,SKC,0.00,VWS V13.01,2013-03-17 00:01:00,
2013-03-16 20:02:00,29.7,12.9,29.83,ENE,64,1.0,7.0,49,0.00,,SKC,0.00,VWS V13.01,2013-03-17 00:02:00,
2013-03-16 20:03:00,29.6,12.8,29.83,ENE,57,3.0,4.0,49,0.00,,SKC,0.00,VWS V13.01,2013-03-17 00:03:00,
2013-03-16 20:04:00,29.5,12.7,29.83,ENE,57,2.0,4.0,49,0.00,,SKC,0.00,VWS V13.01,2013-03-17 00:04:00,
2013-03-16 20:05:00,29.5,13.2,29.83,ENE,57,1.0,4.0,50,0.00,,SKC,0.00,VWS V13.01,2013-03-17 00:05:00,
2013-03-16 20:06:00,29.5,13.2,29.83,ENE,57,0.0,4.0,50,0.00,,SKC,0.00,VWS V13.01,2013-03-17 00:06:00,
2013-03-16 20:07:00,29.5,13.2,29.83,ENE,57,0.0,4.0,50,0.00,,SKC,0.00,VWS V13.01,2013-03-17 00:07:00,
2013-03-16 20:08:00,29.5,13.2,29.83,ENE,57,0.0,4.0,50,0.00,,SKC,0.00,VWS V13.01,2013-03-17 00:08:00,
2013-03-16 20:09:00,29.5,12.7,29.83,NE,56,0.0,4.0,49,0.00,,SKC,0.00,VWS V13.01,2013-03-17 00:09:00,
2013-03-16 20:10:00,29.5,12.7,29.83,ENE,57,1.0,4.0,49,0.00,,SKC,0.00,VWS V13.01,2013-03-17 00:10:00,
2013-03-16 20:11:00,29.5,12.7,29.83,ENE,57,4.0,5.0,49,0.00,,SKC,0.00,VWS V13.01,2013-03-17 00:11:00,
2013-03-16 20:12:00,29.6,12.8,29.83,ENE,57,3.0,4.0,49,0.00,,SKC,0.00,VWS V13.01,2013-03-17 00:12:00,
2013-03-16 20:13:00,29.4,12.6,29.83,NE,56,2.0,5.0,49,0.00,,SKC,0.00,VWS V13.01,2013-03-17 00:13:00,
2013-03-16 20:14:00,29.4,12.6,29.84,ENE,60,1.0,5.0,49,0.00,,SKC,0.00,VWS V13.01,2013-03-17 00:14:00,
2013-03-16 20:16:00,29.4,12.6,29.84,ENE,61,3.0,5.0,49,0.00,,SKC,0.00,VWS V13.01,2013-03-17 00:16:00,
2013-03-16 20:17:00,29.4,12.6,29.84,ENE,61,0.0,5.0,49,0.00,,SKC,0.00,VWS V13.01,2013-03-17 00:17:00,
2013-03-16 20:18:00,29.4,12.6,29.84,ENE,61,2.0,5.0,49,0.00,,SKC,0.00,VWS V13.01,2013-03-17 00:18:00,
2013-03-16 20:19:00,29.4,12.6,29.84,ENE,61,3.0,5.0,49,0.00,,SKC,0.00,VWS V13.01,2013-03-17 00:19:00,
2013-03-16 20:20:00,29.4,12.6,29.84,ENE,60,3.0,5.0,49,0.00,,SKC,0.00,VWS V13.01,2013-03-17 00:20:00,
2013-03-16 20:21:00,29.4,12.6,29.84,ENE,60,2.0,5.0,49,0.00,,SKC,0.00,VWS V13.01,2013-03-17 00:21:00,
2013-03-16 20:22:00,29.5,12.7,29.84,NE,55,1.0,5.0,49,0.00,,SKC,0.00,VWS V13.01,2013-03-17 00:22:00,
2013-03-16 20:23:00,29.5,12.7,29.84,NE,55,3.0,5.0,49,0.00,,SKC,0.00,VWS V13.01,2013-03-17 00:23:00,
2013-03-16 20:24:00,29.4,12.6,29.84,NE,55,0.0,5.0,49,0.00,,SKC,0.00,VWS V13.01,2013-03-17 00:24:00,
2013-03-16 20:25:00,29.4,12.6,29.84,ENE,61,1.0,5.0,49,0.00,,SKC,0.00,VWS V13.01,2013-03-17 00:25:00,
2013-03-16 20:26:00,29.5,13.2,29.84,NE,55,2.0,5.0,50,0.00,,SKC,0.00,VWS V13.01,2013-03-17 00:26:00,
2013-03-16 20:27:00,29.5,12.7,29.84,NNE,33,4.0,5.0,49,0.00,,SKC,0.00,VWS V13.01,2013-03-17 00:27:00,
2013-03-16 20:28:00,29.5,12.2,29.84,North,360,5.0,7.0,48,0.00,,SKC,0.00,VWS V13.01,2013-03-17 00:28:00,
2013-03-16 20:29:00,29.5,12.2,29.84,North,360,1.0,7.0,48,0.00,,SKC,0.00,VWS V13.01,2013-03-17 00:29:00,
2013-03-16 20:31:00,29.5,12.2,29.85,NE,48,1.0,6.0,48,0.00,,SKC,0.00,VWS V13.01,2013-03-17 00:31:00,
2013-03-16 20:32:00,29.5,12.2,29.85,NE,47,3.0,6.0,48,0.00,,SKC,0.00,VWS V13.01,2013-03-17 00:32:00,
2013-03-16 20:33:00,29.5,12.2,29.85,NE,47,2.0,6.0,48,0.00,,SKC,0.00,VWS V13.01,2013-03-17 00:33:00,
2013-03-16 20:34:00,29.5,12.2,29.85,NE,46,3.0,6.0,48,0.00,,SKC,0.00,VWS V13.01,2013-03-17 00:34:00,
2013-03-16 20:35:00,29.5,12.2,29.85,NE,41,1.0,6.0,48,0.00,,SKC,0.00,VWS V13.01,2013-03-17 00:35:00,
2013-03-16 20:36:00,29.5,12.7,29.85,NE,42,1.0,6.0,49,0.00,,SKC,0.00,VWS V13.01,2013-03-17 00:36:00,
2013-03-16 20:37:00,29.5,12.2,29.85,NE,41,1.0,6.0,48,0.00,,SKC,0.00,VWS V13.01,2013-03-17 00:37:00,
2013-03-16 20:38:00,29.5,12.2,29.85,NE,42,2.0,6.0,48,0.00,,SKC,0.00,VWS V13.01,2013-03-17 00:38:00,
2013-03-16 20:39:00,29.5,12.2,29.85,NE,36,5.0,7.0,48,0.00,,SKC,0.00,VWS V13.01,2013-03-17 00:39:00,
2013-03-16 20:40:00,29.5,12.2,29.85,NE,34,4.0,7.0,48,0.00,,SKC,0.00,VWS V13.01,2013-03-17 00:40:00,
2013-03-16 20:41:00,29.5,12.2,29.85,NE,44,5.0,7.0,48,0.00,,SKC,0.00,VWS V13.01,2013-03-17 00:41:00,
2013-03-16 20:42:00,29.4,12.1,29.85,NE,41,4.0,7.0,48,0.00,,SKC,0.00,VWS V13.01,2013-03-17 00:42:00,
2013-03-16 20:43:00,29.4,11.7,29.85,East,79,3.0,10.0,47,0.00,,SKC,0.00,VWS V13.01,2013-03-17 00:43:00,
2013-03-16 20:44:00,29.4,12.1,29.85,NNE,33,3.0,10.0,48,0.00,,SKC,0.00,VWS V13.01,2013-03-17 00:44:00,
2013-03-16 20:46:00,29.4,11.7,29.85,NNW,329,1.0,10.0,47,0.00,,SKC,0.00,VWS V13.01,2013-03-17 00:46:00,
2013-03-16 20:47:00,29.4,12.1,29.85,NNW,341,3.0,10.0,48,0.00,,SKC,0.00,VWS V13.01,2013-03-17 00:47:00,
2013-03-16 20:48:00,29.4,11.7,29.85,NE,46,6.0,10.0,47,0.00,,SKC,0.00,VWS V13.01,2013-03-17 00:48:00,
2013-03-16 20:49:00,29.4,11.7,29.85,ENE,57,1.0,10.0,47,0.00,,SKC,0.00,VWS V13.01,2013-03-17 00:49:00,
2013-03-16 20:50:00,29.4,12.1,29.85,North,11,2.0,10.0,48,0.00,,SKC,0.00,VWS V13.01,2013-03-17 00:50:00,
2013-03-16 20:51:00,29.4,11.7,29.85,NNE,32,3.0,10.0,47,0.00,,SKC,0.00,VWS V13.01,2013-03-17 00:51:00,
2013-03-16 20:52:00,29.3,11.6,29.85,NNW,344,6.0,10.0,47,0.00,,SKC,0.00,VWS V13.01,2013-03-17 00:52:00,
2013-03-16 20:53:00,29.3,11.1,29.85,NNW,345,2.0,10.0,46,0.00,,SKC,0.00,VWS V13.01,2013-03-17 00:53:00,
2013-03-16 20:54:00,29.3,11.1,29.85,North,360,4.0,10.0,46,0.00,,SKC,0.00,VWS V13.01,2013-03-17 00:54:00,
2013-03-16 20:55:00,29.3,11.1,29.85,NNE,32,3.0,10.0,46,0.00,,SKC,0.00,VWS V13.01,2013-03-17 00:55:00,
2013-03-16 20:56:00,29.3,11.6,29.85,NNE,24,2.0,10.0,47,0.00,,SKC,0.00,VWS V13.01,2013-03-17 00:56:00,
2013-03-16 20:57:00,29.3,11.6,29.85,NNE,24,1.0,10.0,47,0.00,,SKC,0.00,VWS V13.01,2013-03-17 00:57:00,
2013-03-16 20:58:00,29.3,11.6,29.86,NNE,32,7.0,10.0,47,0.00,,SKC,0.00,VWS V13.01,2013-03-17 00:58:00,
2013-03-16 20:59:00,29.4,11.7,29.85,ENE,57,2.0,10.0,47,0.00,,SKC,0.00,VWS V13.01,2013-03-17 00:59:00,
2013-03-16 21:01:00,29.2,11.5,29.86,NE,38,5.0,7.0,47,0.00,,SKC,0.00,VWS V13.01,2013-03-17 01:01:00,
2013-03-16 21:02:00,29.2,11.0,29.86,NE,52,6.0,9.0,46,0.00,,SKC,0.00,VWS V13.01,2013-03-17 01:02:00,
2013-03-16 21:03:00,29.2,11.5,29.86,NE,48,5.0,11.0,47,0.00,,SKC,0.00,VWS V13.01,2013-03-17 01:03:00,
2013-03-16 21:04:00,29.1,11.4,29.86,NE,44,3.0,11.0,47,0.00,,SKC,0.00,VWS V13.01,2013-03-17 01:04:00,
2013-03-16 21:05:00,29.1,11.4,29.86,NNE,32,2.0,11.0,47,0.00,,SKC,0.00,VWS V13.01,2013-03-17 01:05:00,
2013-03-16 21:06:00,29.1,11.4,29.86,NNE,30,3.0,11.0,47,0.00,,SKC,0.00,VWS V13.01,2013-03-17 01:06:00,
2013-03-16 21:07:00,29.3,11.6,29.85,NNE,24,2.0,10.0,47,0.00,,SKC,0.00,VWS V13.01,2013-03-17 01:07:00,
2013-03-16 21:08:00,29.1,11.4,29.86,NE,43,3.0,11.0,47,0.00,,SKC,0.00,VWS V13.01,2013-03-17 01:08:00,
2013-03-16 21:09:00,29.0,10.8,29.86,NE,40,6.0,11.0,46,0.00,,SKC,0.00,VWS V13.01,2013-03-17 01:09:00,
2013-03-16 21:10:00,29.0,11.3,29.86,NE,38,1.0,11.0,47,0.00,,SKC,0.00,VWS V13.01,2013-03-17 01:10:00,
2013-03-16 21:11:00,29.0,11.3,29.86,NE,38,3.0,11.0,47,0.00,,SKC,0.00,VWS V13.01,2013-03-17 01:11:00,
2013-03-16 21:12:00,29.0,10.8,29.86,ENE,63,6.0,11.0,46,0.00,,SKC,0.00,VWS V13.01,2013-03-17 01:12:00,
2013-03-16 21:13:00,29.0,10.8,29.86,NE,40,4.0,11.0,46,0.00,,SKC,0.00,VWS V13.01,2013-03-17 01:13:00,
2013-03-16 21:14:00,29.1,11.4,29.86,NE,47,3.0,11.0,47,0.00,,SKC,0.00,VWS V13.01,2013-03-17 01:14:00,
2013-03-16 21:15:00,28.9,10.7,29.86,NE,50,4.0,11.0,46,0.00,,SKC,0.00,VWS V13.01,2013-03-17 01:15:00,
2013-03-16 21:16:00,28.9,11.2,29.86,NE,49,1.0,11.0,47,0.00,,SKC,0.00,VWS V13.01,2013-03-17 01:16:00,
2013-03-16 21:17:00,28.9,10.7,29.86,NE,38,9.0,11.0,46,0.00,,SKC,0.00,VWS V13.01,2013-03-17 01:17:00,
2013-03-16 21:18:00,28.9,10.7,29.86,North,5,3.0,11.0,46,0.00,,SKC,0.00,VWS V13.01,2013-03-17 01:18:00,
2013-03-16 21:19:00,28.8,10.6,29.86,NE,47,3.0,11.0,46,0.00,,SKC,0.00,VWS V13.01,2013-03-17 01:19:00,
2013-03-16 21:20:00,28.8,11.1,29.86,NE,46,2.0,11.0,47,0.00,,SKC,0.00,VWS V13.01,2013-03-17 01:20:00,
2013-03-16 21:21:00,28.8,11.1,29.86,NE,49,3.0,11.0,47,0.00,,SKC,0.00,VWS V13.01,2013-03-17 01:21:00,
2013-03-16 21:22:00,28.8,11.1,29.86,NE,48,0.0,11.0,47,0.00,,SKC,0.00,VWS V13.01,2013-03-17 01:22:00,
2013-03-16 21:23:00,28.8,10.6,29.87,NNE,21,2.0,11.0,46,0.00,,SKC,0.00,VWS V13.01,2013-03-17 01:23:00,
2013-03-16 21:24:00,28.9,10.7,29.86,NE,52,4.0,11.0,46,0.00,,SKC,0.00,VWS V13.01,2013-03-17 01:24:00,
2013-03-16 21:25:00,28.8,11.1,29.87,NE,45,2.0,11.0,47,0.00,,SKC,0.00,VWS V13.01,2013-03-17 01:25:00,
2013-03-16 21:26:00,28.8,11.1,29.87,North,5,1.0,11.0,47,0.00,,SKC,0.00,VWS V13.01,2013-03-17 01:26:00,
2013-03-16 21:27:00,28.8,11.1,29.87,NE,46,6.0,11.0,47,0.00,,SKC,0.00,VWS V13.01,2013-03-17 01:27:00,
2013-03-16 21:28:00,28.8,10.6,29.87,NNE,33,2.0,11.0,46,0.00,,SKC,0.00,VWS V13.01,2013-03-17 01:28:00,
2013-03-16 21:29:00,28.8,10.6,29.87,NNE,16,4.0,11.0,46,0.00,,SKC,0.00,VWS V13.01,2013-03-17 01:29:00,
2013-03-16 21:30:00,28.8,10.6,29.87,NNE,20,4.0,11.0,46,0.00,,SKC,0.00,VWS V13.01,2013-03-17 01:30:00,
2013-03-16 21:31:00,28.8,10.6,29.87,NNE,32,3.0,5.0,46,0.00,,SKC,0.00,VWS V13.01,2013-03-17 01:31:00,
2013-03-16 21:32:00,28.8,10.6,29.87,NNE,32,3.0,5.0,46,0.00,,SKC,0.00,VWS V13.01,2013-03-17 01:32:00,
2013-03-16 21:33:00,28.8,11.1,29.87,NNE,32,2.0,5.0,47,0.00,,SKC,0.00,VWS V13.01,2013-03-17 01:33:00,
2013-03-16 21:34:00,28.8,11.1,29.87,NNE,32,2.0,5.0,47,0.00,,SKC,0.00,VWS V13.01,2013-03-17 01:34:00,
2013-03-16 21:35:00,28.8,11.1,29.87,NE,53,1.0,5.0,47,0.00,,SKC,0.00,VWS V13.01,2013-03-17 01:35:00,
2013-03-16 21:36:00,28.8,11.1,29.87,NE,39,2.0,5.0,47,0.00,,SKC,0.00,VWS V13.01,2013-03-17 01:36:00,
2013-03-16 21:37:00,28.8,11.1,29.87,NE,46,6.0,11.0,47,0.00,,SKC,0.00,VWS V13.01,2013-03-17 01:37:00,
2013-03-16 21:38:00,28.7,11.0,29.87,NNE,33,5.0,6.0,47,0.00,,SKC,0.00,VWS V13.01,2013-03-17 01:38:00,
2013-03-16 21:39:00,28.7,11.0,29.87,NNE,28,2.0,6.0,47,0.00,,SKC,0.00,VWS V13.01,2013-03-17 01:39:00,
2013-03-16 21:40:00,28.7,11.0,29.87,NNE,28,3.0,6.0,47,0.00,,SKC,0.00,VWS V13.01,2013-03-17 01:40:00,
2013-03-16 21:41:00,28.7,11.0,29.87,NNE,25,2.0,6.0,47,0.00,,SKC,0.00,VWS V13.01,2013-03-17 01:41:00,
2013-03-16 21:42:00,28.7,11.0,29.87,NNE,25,0.0,6.0,47,0.00,,SKC,0.00,VWS V13.01,2013-03-17 01:42:00,
2013-03-16 21:43:00,28.8,11.1,29.87,NNE,32,1.0,5.0,47,0.00,,SKC,0.00,VWS V13.01,2013-03-17 01:43:00,
2013-03-16 21:44:00,28.6,10.9,29.87,East,96,5.0,12.0,47,0.00,,SKC,0.00,VWS V13.01,2013-03-17 01:44:00,
2013-03-16 21:45:00,28.6,10.9,29.87,NE,45,1.0,12.0,47,0.00,,SKC,0.00,VWS V13.01,2013-03-17 01:45:00,
2013-03-16 21:46:00,28.7,11.5,29.87,NE,45,3.0,12.0,48,0.00,,SKC,0.00,VWS V13.01,2013-03-17 01:46:00,
2013-03-16 21:47:00,28.6,10.9,29.87,North,355,4.0,12.0,47,0.00,,SKC,0.00,VWS V13.01,2013-03-17 01:47:00,
2013-03-16 21:48:00,28.6,10.9,29.87,North,355,2.0,12.0,47,0.00,,SKC,0.00,VWS V13.01,2013-03-17 01:48:00,
2013-03-16 21:49:00,28.6,10.9,29.87,North,355,0.0,12.0,47,0.00,,SKC,0.00,VWS V13.01,2013-03-17 01:49:00,
2013-03-16 21:51:00,28.6,11.4,29.88,NNE,24,2.0,12.0,48,0.00,,SKC,0.00,VWS V13.01,2013-03-17 01:51:00,
2013-03-16 21:52:00,28.6,11.4,29.88,NE,50,6.0,12.0,48,0.00,,SKC,0.00,VWS V13.01,2013-03-17 01:52:00,
2013-03-16 21:53:00,28.7,11.5,29.87,North,355,6.0,6.0,48,0.00,,SKC,0.00,VWS V13.01,2013-03-17 01:53:00,
2013-03-16 21:54:00,28.6,10.9,29.88,North,5,3.0,12.0,47,0.00,,SKC,0.00,VWS V13.01,2013-03-17 01:54:00,
2013-03-16 21:55:00,28.5,10.9,29.88,NE,41,2.0,12.0,47,0.00,,SKC,0.00,VWS V13.01,2013-03-17 01:55:00,
2013-03-16 21:56:00,28.5,10.9,29.88,NE,41,1.0,12.0,47,0.00,,SKC,0.00,VWS V13.01,2013-03-17 01:56:00,
2013-03-16 21:57:00,28.5,10.9,29.88,NE,38,2.0,12.0,47,0.00,,SKC,0.00,VWS V13.01,2013-03-17 01:57:00,
2013-03-16 21:58:00,28.5,11.3,29.88,NE,38,0.0,12.0,48,0.00,,SKC,0.00,VWS V13.01,2013-03-17 01:58:00,
2013-03-16 21:59:00,28.5,11.3,29.88,NE,38,1.0,12.0,48,0.00,,SKC,0.00,VWS V13.01,2013-03-17 01:59:00,
2013-03-16 22:00:00,28.5,10.9,29.88,NE,43,4.0,12.0,47,0.00,,SKC,0.00,VWS V13.01,2013-03-17 02:00:00,
2013-03-16 22:01:00,28.5,10.9,29.88,NE,40,4.0,4.0,47,0.00,,SKC,0.00,VWS V13.01,2013-03-17 02:01:00,
2013-03-16 22:02:00,28.5,10.9,29.88,NE,42,4.0,5.0,47,0.00,,SKC,0.00,VWS V13.01,2013-03-17 02:02:00,
2013-03-16 22:03:00,28.5,11.3,29.88,NE,41,0.0,5.0,48,0.00,,SKC,0.00,VWS V13.01,2013-03-17 02:03:00,
2013-03-16 22:04:00,28.6,10.9,29.88,North,5,3.0,12.0,47,0.00,,SKC,0.00,VWS V13.01,2013-03-17 02:04:00,
2013-03-16 22:05:00,28.4,11.2,29.88,NE,50,3.0,5.0,48,0.00,,SKC,0.00,VWS V13.01,2013-03-17 02:05:00,
2013-03-16 22:06:00,28.4,11.2,29.88,ENE,63,4.0,5.0,48,0.00,,SKC,0.00,VWS V13.01,2013-03-17 02:06:00,
2013-03-16 22:07:00,28.4,10.8,29.88,NNE,17,3.0,5.0,47,0.00,,SKC,0.00,VWS V13.01,2013-03-17 02:07:00,
2013-03-16 22:08:00,28.4,10.8,29.88,NNE,17,3.0,5.0,47,0.00,,SKC,0.00,VWS V13.01,2013-03-17 02:08:00,
2013-03-16 22:09:00,28.4,11.2,29.88,NNE,17,4.0,5.0,48,0.00,,SKC,0.00,VWS V13.01,2013-03-17 02:09:00,
2013-03-16 22:10:00,28.4,10.8,29.88,NNE,17,2.0,5.0,47,0.00,,SKC,0.00,VWS V13.01,2013-03-17 02:10:00,
2013-03-16 22:11:00,28.4,10.8,29.88,NNE,24,5.0,6.0,47,0.00,,SKC,0.00,VWS V13.01,2013-03-17 02:11:00,
2013-03-16 22:12:00,28.4,10.8,29.88,NE,36,2.0,6.0,47,0.00,,SKC,0.00,VWS V13.01,2013-03-17 02:12:00,
2013-03-16 22:13:00,28.5,11.3,29.88,NE,41,0.0,5.0,48,0.00,,SKC,0.00,VWS V13.01,2013-03-17 02:13:00,
2013-03-16 22:14:00,28.4,11.2,29.89,NE,34,3.0,6.0,48,0.00,,SKC,0.00,VWS V13.01,2013-03-17 02:14:00,
2013-03-16 22:15:00,28.3,11.1,29.89,NNE,22,3.0,7.0,48,0.00,,SKC,0.00,VWS V13.01,2013-03-17 02:15:00,
2013-03-16 22:16:00,28.3,10.7,29.89,NE,45,2.0,7.0,47,0.00,,SKC,0.00,VWS V13.01,2013-03-17 02:16:00,
2013-03-16 22:17:00,28.3,10.7,29.89,NE,43,2.0,7.0,47,0.00,,SKC,0.00,VWS V13.01,2013-03-17 02:17:00,
2013-03-16 22:18:00,28.3,10.7,29.89,NE,38,5.0,7.0,47,0.00,,SKC,0.00,VWS V13.01,2013-03-17 02:18:00,
2013-03-16 22:19:00,28.4,11.2,29.88,NNE,17,2.0,5.0,48,0.00,,SKC,0.00,VWS V13.01,2013-03-17 02:19:00,
2013-03-16 22:21:00,28.3,11.1,29.89,NE,34,2.0,7.0,48,0.00,,SKC,0.00,VWS V13.01,2013-03-17 02:21:00,
2013-03-16 22:22:00,28.3,11.1,29.89,NE,34,2.0,7.0,48,0.00,,SKC,0.00,VWS V13.01,2013-03-17 02:22:00,
2013-03-16 22:23:00,28.3,11.1,29.89,NE,55,2.0,7.0,48,0.00,,SKC,0.00,VWS V13.01,2013-03-17 02:23:00,
2013-03-16 22:24:00,28.3,10.7,29.89,NE,55,2.0,7.0,47,0.00,,SKC,0.00,VWS V13.01,2013-03-17 02:24:00,
2013-03-16 22:26:00,28.3,11.1,29.89,NE,52,1.0,7.0,48,0.00,,SKC,0.00,VWS V13.01,2013-03-17 02:26:00,
2013-03-16 22:27:00,28.3,11.1,29.89,NE,52,2.0,7.0,48,0.00,,SKC,0.00,VWS V13.01,2013-03-17 02:27:00,
2013-03-16 22:28:00,28.2,11.0,29.89,NE,51,1.0,7.0,48,0.00,,SKC,0.00,VWS V13.01,2013-03-17 02:28:00,
2013-03-16 22:29:00,28.2,11.0,29.89,NE,52,1.0,7.0,48,0.00,,SKC,0.00,VWS V13.01,2013-03-17 02:29:00,
2013-03-16 22:30:00,28.2,11.0,29.89,NE,52,1.0,7.0,48,0.00,,SKC,0.00,VWS V13.01,2013-03-17 02:30:00,
2013-03-16 22:31:00,28.2,11.0,29.89,NE,51,2.0,2.0,48,0.00,,SKC,0.00,VWS V13.01,2013-03-17 02:31:00,
2013-03-16 22:32:00,28.2,11.0,29.89,NE,51,3.0,3.0,48,0.00,,SKC,0.00,VWS V13.01,2013-03-17 02:32:00,
2013-03-16 22:33:00,28.2,11.0,29.89,NNE,13,6.0,6.0,48,0.00,,SKC,0.00,VWS V13.01,2013-03-17 02:33:00,
2013-03-16 22:34:00,28.2,11.0,29.89,NNE,14,4.0,6.0,48,0.00,,SKC,0.00,VWS V13.01,2013-03-17 02:34:00,
2013-03-16 22:35:00,28.1,10.5,29.89,NNW,336,5.0,6.0,47,0.00,,SKC,0.00,VWS V13.01,2013-03-17 02:35:00,
2013-03-16 22:36:00,28.1,10.5,29.89,NNW,337,3.0,6.0,47,0.00,,SKC,0.00,VWS V13.01,2013-03-17 02:36:00,
2013-03-16 22:37:00,28.1,10.9,29.89,North,5,4.0,6.0,48,0.00,,SKC,0.00,VWS V13.01,2013-03-17 02:37:00,
2013-03-16 22:38:00,28.3,11.1,29.89,NE,51,2.0,7.0,48,0.00,,SKC,0.00,VWS V13.01,2013-03-17 02:38:00,
2013-03-16 22:39:00,28.1,10.9,29.89,NNE,24,4.0,7.0,48,0.00,,SKC,0.00,VWS V13.01,2013-03-17 02:39:00,
2013-03-16 22:40:00,28.1,10.9,29.89,NNE,22,2.0,7.0,48,0.00,,SKC,0.00,VWS V13.01,2013-03-17 02:40:00,
2013-03-16 22:41:00,28.1,10.9,29.89,North,360,2.0,7.0,48,0.00,,SKC,0.00,VWS V13.01,2013-03-17 02:41:00,
2013-03-16 22:42:00,28.1,10.9,29.89,NNE,16,1.0,7.0,48,0.00,,SKC,0.00,VWS V13.01,2013-03-17 02:42:00,
2013-03-16 22:43:00,28.1,10.9,29.89,North,5,2.0,7.0,48,0.00,,SKC,0.00,VWS V13.01,2013-03-17 02:43:00,
2013-03-16 22:44:00,28.2,11.0,29.89,NNE,14,5.0,6.0,48,0.00,,SKC,0.00,VWS V13.01,2013-03-17 02:44:00,
2013-03-16 22:46:00,28.0,10.9,29.89,NNE,28,4.0,7.0,48,0.00,,SKC,0.00,VWS V13.01,2013-03-17 02:46:00,
2013-03-16 22:47:00,28.0,10.9,29.89,NNE,28,4.0,7.0,48,0.00,,SKC,0.00,VWS V13.01,2013-03-17 02:47:00,
2013-03-16 22:48:00,28.0,10.9,29.89,NNE,28,2.0,7.0,48,0.00,,SKC,0.00,VWS V13.01,2013-03-17 02:48:00,
2013-03-16 22:49:00,28.0,10.9,29.89,NNE,28,0.0,7.0,48,0.00,,SKC,0.00,VWS V13.01,2013-03-17 02:49:00,
2013-03-16 22:50:00,28.0,10.9,29.89,NNE,29,1.0,7.0,48,0.00,,SKC,0.00,VWS V13.01,2013-03-17 02:50:00,
2013-03-16 22:51:00,28.0,10.9,29.89,NNE,29,0.0,7.0,48,0.00,,SKC,0.00,VWS V13.01,2013-03-17 02:51:00,
2013-03-16 22:52:00,28.0,10.9,29.89,NNE,29,2.0,7.0,48,0.00,,SKC,0.00,VWS V13.01,2013-03-17 02:52:00,
2013-03-16 22:53:00,28.1,10.9,29.89,North,5,3.0,7.0,48,0.00,,SKC,0.00,VWS V13.01,2013-03-17 02:53:00,
2013-03-16 22:54:00,28.0,10.9,29.89,NNE,25,3.0,7.0,48,0.00,,SKC,0.00,VWS V13.01,2013-03-17 02:54:00,
2013-03-16 22:55:00,27.9,10.8,29.89,NNE,25,1.0,7.0,48,0.00,,SKC,0.00,VWS V13.01,2013-03-17 02:55:00,
2013-03-16 22:56:00,27.9,10.8,29.89,NNE,25,0.0,7.0,48,0.00,,SKC,0.00,VWS V13.01,2013-03-17 02:56:00,
2013-03-16 22:57:00,27.9,11.2,29.89,NNE,25,2.0,7.0,49,0.00,,SKC,0.00,VWS V13.01,2013-03-17 02:57:00,
2013-03-16 22:58:00,28.0,10.9,29.89,NNE,28,2.0,7.0,48,0.00,,SKC,0.00,VWS V13.01,2013-03-17 02:58:00,
2013-03-16 22:59:00,27.9,11.2,29.89,NNE,26,3.0,7.0,49,0.00,,SKC,0.00,VWS V13.01,2013-03-17 02:59:00,
2013-03-16 23:00:00,27.9,11.2,29.89,NNE,25,2.0,7.0,49,0.00,,SKC,0.00,VWS V13.01,2013-03-17 03:00:00,
2013-03-16 23:01:00,27.9,11.2,29.89,NNE,25,2.0,2.0,49,0.00,,SKC,0.00,VWS V13.01,2013-03-17 03:01:00,
2013-03-16 23:02:00,27.9,11.2,29.90,NNE,25,0.0,2.0,49,0.00,,SKC,0.00,VWS V13.01,2013-03-17 03:02:00,
2013-03-16 23:03:00,27.9,11.2,29.90,NNE,25,0.0,2.0,49,0.00,,SKC,0.00,VWS V13.01,2013-03-17 03:03:00,
2013-03-16 23:04:00,28.0,10.9,29.89,NNE,25,2.0,7.0,48,0.00,,SKC,0.00,VWS V13.01,2013-03-17 03:04:00,
2013-03-16 23:05:00,27.9,11.7,29.90,NNE,25,2.0,2.0,50,0.00,,SKC,0.00,VWS V13.01,2013-03-17 03:05:00,
2013-03-16 23:06:00,27.9,11.2,29.90,NNE,25,0.0,2.0,49,0.00,,SKC,0.00,VWS V13.01,2013-03-17 03:06:00,
2013-03-16 23:07:00,27.9,11.2,29.90,NNE,23,3.0,3.0,49,0.00,,SKC,0.00,VWS V13.01,2013-03-17 03:07:00,
2013-03-16 23:08:00,27.9,11.7,29.90,NNE,24,0.0,3.0,50,0.00,,SKC,0.00,VWS V13.01,2013-03-17 03:08:00,
2013-03-16 23:09:00,27.9,11.7,29.90,NNE,24,2.0,3.0,50,0.00,,SKC,0.00,VWS V13.01,2013-03-17 03:09:00,
2013-03-16 23:10:00,27.8,11.6,29.90,NNE,26,4.0,5.0,50,0.00,,SKC,0.00,VWS V13.01,2013-03-17 03:10:00,
2013-03-16 23:11:00,27.8,11.6,29.90,NNE,25,0.0,5.0,50,0.00,,SKC,0.00,VWS V13.01,2013-03-17 03:11:00,
2013-03-16 23:12:00,27.8,11.6,29.90,NNE,33,3.0,6.0,50,0.00,,SKC,0.00,VWS V13.01,2013-03-17 03:12:00,
2013-03-16 23:13:00,27.8,11.6,29.90,NNE,33,1.0,6.0,50,0.00,,SKC,0.00,VWS V13.01,2013-03-17 03:13:00,
2013-03-16 23:14:00,27.8,11.6,29.90,NNE,33,2.0,6.0,50,0.00,,SKC,0.00,VWS V13.01,2013-03-17 03:14:00,
2013-03-16 23:15:00,27.7,11.5,29.90,NNE,33,3.0,6.0,50,0.00,,SKC,0.00,VWS V13.01,2013-03-17 03:15:00,
2013-03-16 23:16:00,27.7,11.5,29.90,NNE,33,4.0,6.0,50,0.00,,SKC,0.00,VWS V13.01,2013-03-17 03:16:00,
2013-03-16 23:17:00,27.6,11.4,29.90,NNE,33,1.0,6.0,50,0.00,,SKC,0.00,VWS V13.01,2013-03-17 03:17:00,
2013-03-16 23:18:00,27.6,11.4,29.90,NNE,33,5.0,6.0,50,0.00,,SKC,0.00,VWS V13.01,2013-03-17 03:18:00,
2013-03-16 23:19:00,27.6,11.4,29.90,NNE,33,2.0,6.0,50,0.00,,SKC,0.00,VWS V13.01,2013-03-17 03:19:00,
2013-03-16 23:20:00,27.5,11.3,29.90,NNE,33,0.0,6.0,50,0.00,,SKC,0.00,VWS V13.01,2013-03-17 03:20:00,
2013-03-16 23:21:00,27.5,11.3,29.90,NNE,33,1.0,6.0,50,0.00,,SKC,0.00,VWS V13.01,2013-03-17 03:21:00,
2013-03-16 23:22:00,27.5,11.3,29.90,NNE,33,2.0,6.0,50,0.00,,SKC,0.00,VWS V13.01,2013-03-17 03:22:00,
2013-03-16 23:23:00,27.4,11.2,29.90,NNE,33,3.0,6.0,50,0.00,,SKC,0.00,VWS V13.01,2013-03-17 03:23:00,
2013-03-16 23:24:00,27.4,11.2,29.90,NNE,33,3.0,6.0,50,0.00,,SKC,0.00,VWS V13.01,2013-03-17 03:24:00,
2013-03-16 23:26:00,27.3,11.1,29.90,NNE,26,5.0,6.0,50,0.00,,SKC,0.00,VWS V13.01,2013-03-17 03:26:00,
2013-03-16 23:27:00,27.2,11.0,29.90,NE,41,1.0,7.0,50,0.00,,SKC,0.00,VWS V13.01,2013-03-17 03:27:00,
2013-03-16 23:28:00,27.2,11.0,29.90,NE,39,1.0,7.0,50,0.00,,SKC,0.00,VWS V13.01,2013-03-17 03:28:00,
2013-03-16 23:29:00,27.2,11.5,29.90,NNE,27,3.0,7.0,51,0.00,,SKC,0.00,VWS V13.01,2013-03-17 03:29:00,
2013-03-16 23:31:00,27.1,11.4,29.91,NE,40,2.0,3.0,51,0.00,,SKC,0.00,VWS V13.01,2013-03-17 03:31:00,
2013-03-16 23:32:00,27.1,11.4,29.91,NE,34,1.0,3.0,51,0.00,,SKC,0.00,VWS V13.01,2013-03-17 03:32:00,
2013-03-16 23:33:00,27.0,10.9,29.91,NNE,30,6.0,6.0,50,0.00,,SKC,0.00,VWS V13.01,2013-03-17 03:33:00,
2013-03-16 23:34:00,27.0,10.9,29.91,NNE,29,4.0,6.0,50,0.00,,SKC,0.00,VWS V13.01,2013-03-17 03:34:00,
2013-03-16 23:35:00,26.9,10.8,29.91,NNE,30,1.0,6.0,50,0.00,,SKC,0.00,VWS V13.01,2013-03-17 03:35:00,
2013-03-16 23:36:00,26.9,10.8,29.91,NE,34,2.0,6.0,50,0.00,,SKC,0.00,VWS V13.01,2013-03-17 03:36:00,
2013-03-16 23:37:00,26.9,11.2,29.91,NNE,26,2.0,6.0,51,0.00,,SKC,0.00,VWS V13.01,2013-03-17 03:37:00,
2013-03-16 23:38:00,26.8,10.7,29.91,NE,44,2.0,6.0,50,0.00,,SKC,0.00,VWS V13.01,2013-03-17 03:38:00,
2013-03-16 23:39:00,27.2,11.5,29.90,NNE,26,4.0,7.0,51,0.00,,SKC,0.00,VWS V13.01,2013-03-17 03:39:00,
2013-03-16 23:41:00,26.7,10.6,29.91,NE,44,4.0,6.0,50,0.00,,SKC,0.00,VWS V13.01,2013-03-17 03:41:00,
2013-03-16 23:42:00,26.7,10.6,29.91,NE,39,5.0,6.0,50,0.00,,SKC,0.00,VWS V13.01,2013-03-17 03:42:00,
2013-03-16 23:43:00,26.7,11.0,29.91,NNE,26,1.0,6.0,51,0.00,,SKC,0.00,VWS V13.01,2013-03-17 03:43:00,
2013-03-16 23:44:00,26.7,11.0,29.91,NNE,27,1.0,6.0,51,0.00,,SKC,0.00,VWS V13.01,2013-03-17 03:44:00,
2013-03-16 23:45:00,26.6,10.9,29.91,NNE,28,4.0,6.0,51,0.00,,SKC,0.00,VWS V13.01,2013-03-17 03:45:00,
2013-03-16 23:46:00,26.6,10.9,29.91,NNE,28,1.0,6.0,51,0.00,,SKC,0.00,VWS V13.01,2013-03-17 03:46:00,
2013-03-16 23:47:00,26.6,10.9,29.91,NE,38,5.0,6.0,51,0.00,,SKC,0.00,VWS V13.01,2013-03-17 03:47:00,
2013-03-16 23:48:00,26.8,10.7,29.91,NE,44,4.0,6.0,50,0.00,,SKC,0.00,VWS V13.01,2013-03-17 03:48:00,
2013-03-16 23:49:00,26.5,10.8,29.91,North,9,4.0,7.0,51,0.00,,SKC,0.00,VWS V13.01,2013-03-17 03:49:00,
2013-03-16 23:50:00,26.5,10.8,29.91,NNE,22,2.0,7.0,51,0.00,,SKC,0.00,VWS V13.01,2013-03-17 03:50:00,
2013-03-16 23:51:00,26.5,10.8,29.91,NNE,30,3.0,7.0,51,0.00,,SKC,0.00,VWS V13.01,2013-03-17 03:51:00,
2013-03-16 23:52:00,26.5,11.3,29.91,NNE,30,3.0,7.0,52,0.00,,SKC,0.00,VWS V13.01,2013-03-17 03:52:00,
2013-03-16 23:53:00,26.5,11.3,29.91,NNE,30,2.0,7.0,52,0.00,,SKC,0.00,VWS V13.01,2013-03-17 03:53:00,
2013-03-16 23:54:00,26.4,11.2,29.91,NE,37,5.0,7.0,52,0.00,,SKC,0.00,VWS V13.01,2013-03-17 03:54:00,
2013-03-16 23:56:00,26.4,11.2,29.91,NE,38,2.0,7.0,52,0.00,,SKC,0.00,VWS V13.01,2013-03-17 03:56:00,
2013-03-16 23:57:00,26.4,11.2,29.91,NE,38,1.0,7.0,52,0.00,,SKC,0.00,VWS V13.01,2013-03-17 03:57:00,
2013-03-16 23:58:00,26.4,11.2,29.92,NE,40,0.0,7.0,52,0.00,,SKC,0.00,VWS V13.01,2013-03-17 03:58:00,
2013-03-16 23:59:00,26.4,11.2,29.92,NE,40,1.0,7.0,52,0.00,,SKC,0.00,VWS V13.01,2013-03-17 03:59:00,